﻿<?xml version="1.0" encoding="utf-8"?><gpx creator="Garmin Desktop App" version="1.1" xsi:schemaLocation="http://www.topografix.com/GPX/1/1 http://www.topografix.com/GPX/1/1/gpx.xsd http://www.garmin.com/xmlschemas/WaypointExtension/v1 http://www8.garmin.com/xmlschemas/WaypointExtensionv1.xsd http://www.garmin.com/xmlschemas/TrackPointExtension/v1 http://www.garmin.com/xmlschemas/TrackPointExtensionv1.xsd http://www.garmin.com/xmlschemas/GpxExtensions/v3 http://www8.garmin.com/xmlschemas/GpxExtensionsv3.xsd http://www.garmin.com/xmlschemas/ActivityExtension/v1 http://www8.garmin.com/xmlschemas/ActivityExtensionv1.xsd http://www.garmin.com/xmlschemas/AdventuresExtensions/v1 http://www8.garmin.com/xmlschemas/AdventuresExtensionv1.xsd http://www.garmin.com/xmlschemas/PressureExtension/v1 http://www.garmin.com/xmlschemas/PressureExtensionv1.xsd http://www.garmin.com/xmlschemas/TripExtensions/v1 http://www.garmin.com/xmlschemas/TripExtensionsv1.xsd http://www.garmin.com/xmlschemas/TripMetaDataExtensions/v1 http://www.garmin.com/xmlschemas/TripMetaDataExtensionsv1.xsd http://www.garmin.com/xmlschemas/ViaPointTransportationModeExtensions/v1 http://www.garmin.com/xmlschemas/ViaPointTransportationModeExtensionsv1.xsd http://www.garmin.com/xmlschemas/CreationTimeExtension/v1 http://www.garmin.com/xmlschemas/CreationTimeExtensionsv1.xsd http://www.garmin.com/xmlschemas/AccelerationExtension/v1 http://www.garmin.com/xmlschemas/AccelerationExtensionv1.xsd http://www.garmin.com/xmlschemas/PowerExtension/v1 http://www.garmin.com/xmlschemas/PowerExtensionv1.xsd http://www.garmin.com/xmlschemas/VideoExtension/v1 http://www.garmin.com/xmlschemas/VideoExtensionv1.xsd" xmlns="http://www.topografix.com/GPX/1/1" xmlns:xsi="http://www.w3.org/2001/XMLSchema-instance" xmlns:wptx1="http://www.garmin.com/xmlschemas/WaypointExtension/v1" xmlns:gpxtrx="http://www.garmin.com/xmlschemas/GpxExtensions/v3" xmlns:gpxtpx="http://www.garmin.com/xmlschemas/TrackPointExtension/v1" xmlns:gpxx="http://www.garmin.com/xmlschemas/GpxExtensions/v3" xmlns:trp="http://www.garmin.com/xmlschemas/TripExtensions/v1" xmlns:adv="http://www.garmin.com/xmlschemas/AdventuresExtensions/v1" xmlns:prs="http://www.garmin.com/xmlschemas/PressureExtension/v1" xmlns:tmd="http://www.garmin.com/xmlschemas/TripMetaDataExtensions/v1" xmlns:vptm="http://www.garmin.com/xmlschemas/ViaPointTransportationModeExtensions/v1" xmlns:ctx="http://www.garmin.com/xmlschemas/CreationTimeExtension/v1" xmlns:gpxacc="http://www.garmin.com/xmlschemas/AccelerationExtension/v1" xmlns:gpxpx="http://www.garmin.com/xmlschemas/PowerExtension/v1" xmlns:vidx1="http://www.garmin.com/xmlschemas/VideoExtension/v1">

  <metadata>
    <link href="http://www.garmin.com">
      <text>Garmin International</text>
    </link>
    <time>2021-01-16T14:26:44Z</time>
    <bounds maxlat="46.073927823454142" maxlon="8.848901828750968" minlat="46.06856307014823" minlon="8.815257959067822" />
  </metadata>

  <trk>
    <name>capanna merigetto2020-01-06</name>
    <extensions>
      <gpxx:TrackExtension>
        <gpxx:DisplayColor>Yellow</gpxx:DisplayColor>
      </gpxx:TrackExtension>
      <gpxtrkx:TrackStatsExtension xmlns:gpxtrkx="http://www.garmin.com/xmlschemas/TrackStatsExtension/v1">
        <gpxtrkx:Distance>11280</gpxtrkx:Distance>
        <gpxtrkx:TotalElapsedTime>28809</gpxtrkx:TotalElapsedTime>
        <gpxtrkx:MovingTime>15756</gpxtrkx:MovingTime>
        <gpxtrkx:StoppedTime>13042</gpxtrkx:StoppedTime>
        <gpxtrkx:MovingSpeed>1</gpxtrkx:MovingSpeed>
        <gpxtrkx:MaxSpeed>2</gpxtrkx:MaxSpeed>
        <gpxtrkx:MaxElevation>1509</gpxtrkx:MaxElevation>
        <gpxtrkx:MinElevation>539</gpxtrkx:MinElevation>
        <gpxtrkx:Ascent>1030</gpxtrkx:Ascent>
        <gpxtrkx:Descent>1045</gpxtrkx:Descent>
        <gpxtrkx:AvgAscentRate>0</gpxtrkx:AvgAscentRate>
        <gpxtrkx:MaxAscentRate>0</gpxtrkx:MaxAscentRate>
        <gpxtrkx:AvgDescentRate>0</gpxtrkx:AvgDescentRate>
        <gpxtrkx:MaxDescentRate>-1</gpxtrkx:MaxDescentRate>
      </gpxtrkx:TrackStatsExtension>
    </extensions>
    <trkseg>
      <trkpt lat="46.073055434972048" lon="8.815454849973321">
        <ele>672.99000000000001</ele>
        <time>2020-01-06T07:26:20Z</time>
      </trkpt>
      <trkpt lat="46.073055434972048" lon="8.815454430878162">
        <ele>672.99000000000001</ele>
        <time>2020-01-06T07:26:21Z</time>
      </trkpt>
      <trkpt lat="46.073053339496255" lon="8.815452419221401">
        <ele>554.82000000000005</ele>
        <time>2020-01-06T07:26:24Z</time>
      </trkpt>
      <trkpt lat="46.073054261505604" lon="8.815443366765976">
        <ele>554.82000000000005</ele>
        <time>2020-01-06T07:26:25Z</time>
      </trkpt>
      <trkpt lat="46.073072366416454" lon="8.815445378422737">
        <ele>554.13</ele>
        <time>2020-01-06T07:26:46Z</time>
      </trkpt>
      <trkpt lat="46.073060547932982" lon="8.81544990465045">
        <ele>555.48000000000002</ele>
        <time>2020-01-06T07:26:59Z</time>
      </trkpt>
      <trkpt lat="46.073043448850513" lon="8.815508829429746">
        <ele>554.20000000000005</ele>
        <time>2020-01-06T07:27:15Z</time>
      </trkpt>
      <trkpt lat="46.073003131896257" lon="8.815441187471151">
        <ele>554.29999999999995</ele>
        <time>2020-01-06T07:27:29Z</time>
      </trkpt>
      <trkpt lat="46.073003970086575" lon="8.815427692607045">
        <ele>554.25</ele>
        <time>2020-01-06T07:27:46Z</time>
      </trkpt>
      <trkpt lat="46.073017716407776" lon="8.815400954335928">
        <ele>554.49000000000001</ele>
        <time>2020-01-06T07:28:11Z</time>
      </trkpt>
      <trkpt lat="46.073047975078225" lon="8.815424926578999">
        <ele>554.60000000000002</ele>
        <time>2020-01-06T07:28:22Z</time>
      </trkpt>
      <trkpt lat="46.073012938722968" lon="8.81538150832057">
        <ele>554.25</ele>
        <time>2020-01-06T07:28:33Z</time>
      </trkpt>
      <trkpt lat="46.072965748608112" lon="8.81529894657433">
        <ele>553.51999999999998</ele>
        <time>2020-01-06T07:28:44Z</time>
      </trkpt>
      <trkpt lat="46.072925347834826" lon="8.815270867198706">
        <ele>553.30999999999995</ele>
        <time>2020-01-06T07:29:01Z</time>
      </trkpt>
      <trkpt lat="46.072913696989417" lon="8.815257959067822">
        <ele>553.24000000000001</ele>
        <time>2020-01-06T07:29:11Z</time>
      </trkpt>
      <trkpt lat="46.072973208501935" lon="8.815351501107216">
        <ele>554.12</ele>
        <time>2020-01-06T07:29:23Z</time>
      </trkpt>
      <trkpt lat="46.073019057512283" lon="8.815453005954623">
        <ele>554.62</ele>
        <time>2020-01-06T07:29:33Z</time>
      </trkpt>
      <trkpt lat="46.07307949103415" lon="8.815633887425065">
        <ele>555.07000000000005</ele>
        <time>2020-01-06T07:29:46Z</time>
      </trkpt>
      <trkpt lat="46.073182336986065" lon="8.815750479698181">
        <ele>555.91999999999996</ele>
        <time>2020-01-06T07:29:58Z</time>
      </trkpt>
      <trkpt lat="46.073292307555676" lon="8.815878890454769">
        <ele>556.69000000000005</ele>
        <time>2020-01-06T07:30:11Z</time>
      </trkpt>
      <trkpt lat="46.073302030563354" lon="8.815889619290829">
        <ele>556.86000000000001</ele>
        <time>2020-01-06T07:30:24Z</time>
      </trkpt>
      <trkpt lat="46.073303623124957" lon="8.815945275127888">
        <ele>556.75</ele>
        <time>2020-01-06T07:30:39Z</time>
      </trkpt>
      <trkpt lat="46.073312172666192" lon="8.815962625667453">
        <ele>556.75999999999999</ele>
        <time>2020-01-06T07:30:41Z</time>
      </trkpt>
      <trkpt lat="46.073337821289897" lon="8.815988693386316">
        <ele>556.87</ele>
        <time>2020-01-06T07:30:44Z</time>
      </trkpt>
      <trkpt lat="46.073445780202746" lon="8.816034710034728">
        <ele>557.19000000000005</ele>
        <time>2020-01-06T07:31:00Z</time>
      </trkpt>
      <trkpt lat="46.073438739404082" lon="8.816060358658433">
        <ele>556.94000000000005</ele>
        <time>2020-01-06T07:31:20Z</time>
      </trkpt>
      <trkpt lat="46.073446618393064" lon="8.816066225990653">
        <ele>557.27999999999997</ele>
        <time>2020-01-06T07:31:36Z</time>
      </trkpt>
      <trkpt lat="46.073480481281877" lon="8.816077457740903">
        <ele>556.95000000000005</ele>
        <time>2020-01-06T07:31:50Z</time>
      </trkpt>
      <trkpt lat="46.073492718860507" lon="8.816089108586311">
        <ele>556.96000000000004</ele>
        <time>2020-01-06T07:31:55Z</time>
      </trkpt>
      <trkpt lat="46.073502525687218" lon="8.816092880442739">
        <ele>556.90999999999997</ele>
        <time>2020-01-06T07:31:58Z</time>
      </trkpt>
      <trkpt lat="46.073533119633794" lon="8.816091371700168">
        <ele>557</ele>
        <time>2020-01-06T07:32:01Z</time>
      </trkpt>
      <trkpt lat="46.073576286435127" lon="8.816052144393325">
        <ele>556.89999999999998</ele>
        <time>2020-01-06T07:32:12Z</time>
      </trkpt>
      <trkpt lat="46.073518702760339" lon="8.816074104979634">
        <ele>556.99000000000001</ele>
        <time>2020-01-06T07:32:22Z</time>
      </trkpt>
      <trkpt lat="46.073467992246151" lon="8.816097239032388">
        <ele>557.03999999999996</ele>
        <time>2020-01-06T07:32:37Z</time>
      </trkpt>
      <trkpt lat="46.073453323915601" lon="8.816119451075792">
        <ele>557</ele>
        <time>2020-01-06T07:32:51Z</time>
      </trkpt>
      <trkpt lat="46.073446702212095" lon="8.816126072779298">
        <ele>556.87</ele>
        <time>2020-01-06T07:33:06Z</time>
      </trkpt>
      <trkpt lat="46.073420299217105" lon="8.816132275387645">
        <ele>556.96000000000004</ele>
        <time>2020-01-06T07:33:24Z</time>
      </trkpt>
      <trkpt lat="46.073407726362348" lon="8.816120373085141">
        <ele>557.94000000000005</ele>
        <time>2020-01-06T07:33:36Z</time>
      </trkpt>
      <trkpt lat="46.073397668078542" lon="8.816096736118197">
        <ele>557.14999999999998</ele>
        <time>2020-01-06T07:33:47Z</time>
      </trkpt>
      <trkpt lat="46.073368163779378" lon="8.816075194627047">
        <ele>557.49000000000001</ele>
        <time>2020-01-06T07:34:06Z</time>
      </trkpt>
      <trkpt lat="46.07336631976068" lon="8.816072763875127">
        <ele>557.35000000000002</ele>
        <time>2020-01-06T07:34:18Z</time>
      </trkpt>
      <trkpt lat="46.073406133800745" lon="8.816125988960266">
        <ele>557.54999999999995</ele>
        <time>2020-01-06T07:34:33Z</time>
      </trkpt>
      <trkpt lat="46.073434296995401" lon="8.816169910132885">
        <ele>557.55999999999995</ele>
        <time>2020-01-06T07:34:44Z</time>
      </trkpt>
      <trkpt lat="46.073450054973364" lon="8.816196983680129">
        <ele>557.59000000000003</ele>
        <time>2020-01-06T07:34:53Z</time>
      </trkpt>
      <trkpt lat="46.073457431048155" lon="8.81620092317462">
        <ele>557.38999999999999</ele>
        <time>2020-01-06T07:34:56Z</time>
      </trkpt>
      <trkpt lat="46.073481990024447" lon="8.816228080540896">
        <ele>557.44000000000005</ele>
        <time>2020-01-06T07:34:59Z</time>
      </trkpt>
      <trkpt lat="46.073542507365346" lon="8.816360849887133">
        <ele>556.63</ele>
        <time>2020-01-06T07:35:09Z</time>
      </trkpt>
      <trkpt lat="46.073561869561672" lon="8.816380631178618">
        <ele>556.51999999999998</ele>
        <time>2020-01-06T07:35:11Z</time>
      </trkpt>
      <trkpt lat="46.0737020149827" lon="8.81657081656158">
        <ele>556.65999999999997</ele>
        <time>2020-01-06T07:35:27Z</time>
      </trkpt>
      <trkpt lat="46.073758425191045" lon="8.816771060228348">
        <ele>558.54999999999995</ele>
        <time>2020-01-06T07:35:41Z</time>
      </trkpt>
      <trkpt lat="46.073779547587037" lon="8.816831661388278">
        <ele>558.10000000000002</ele>
        <time>2020-01-06T07:35:45Z</time>
      </trkpt>
      <trkpt lat="46.073849704116583" lon="8.817027127370238">
        <ele>558.19000000000005</ele>
        <time>2020-01-06T07:36:03Z</time>
      </trkpt>
      <trkpt lat="46.073802765458822" lon="8.817000640556216">
        <ele>559.60000000000002</ele>
        <time>2020-01-06T07:36:11Z</time>
      </trkpt>
      <trkpt lat="46.073713582009077" lon="8.81694121286273">
        <ele>562.79999999999995</ele>
        <time>2020-01-06T07:36:25Z</time>
      </trkpt>
      <trkpt lat="46.073640240356326" lon="8.816905841231346">
        <ele>565.44000000000005</ele>
        <time>2020-01-06T07:36:38Z</time>
      </trkpt>
      <trkpt lat="46.07361258007586" lon="8.816952276974917">
        <ele>567.92999999999995</ele>
        <time>2020-01-06T07:36:51Z</time>
      </trkpt>
      <trkpt lat="46.073621716350317" lon="8.817039867863059">
        <ele>570.04999999999995</ele>
        <time>2020-01-06T07:37:02Z</time>
      </trkpt>
      <trkpt lat="46.073673013597727" lon="8.817069539800286">
        <ele>572.72000000000003</ele>
        <time>2020-01-06T07:37:15Z</time>
      </trkpt>
      <trkpt lat="46.073698913678527" lon="8.817164758220315">
        <ele>575.20000000000005</ele>
        <time>2020-01-06T07:37:30Z</time>
      </trkpt>
      <trkpt lat="46.073736632242799" lon="8.817245392128825">
        <ele>577.16999999999996</ele>
        <time>2020-01-06T07:37:44Z</time>
      </trkpt>
      <trkpt lat="46.073727998882532" lon="8.817294174805284">
        <ele>579.46000000000004</ele>
        <time>2020-01-06T07:37:57Z</time>
      </trkpt>
      <trkpt lat="46.073663458228111" lon="8.817281937226653">
        <ele>581.12</ele>
        <time>2020-01-06T07:38:11Z</time>
      </trkpt>
      <trkpt lat="46.073697404935956" lon="8.817340610548854">
        <ele>583.25</ele>
        <time>2020-01-06T07:38:23Z</time>
      </trkpt>
      <trkpt lat="46.073664631694555" lon="8.817375563085079">
        <ele>584.95000000000005</ele>
        <time>2020-01-06T07:38:33Z</time>
      </trkpt>
      <trkpt lat="46.073682736605406" lon="8.817451503127813">
        <ele>587.11000000000001</ele>
        <time>2020-01-06T07:38:45Z</time>
      </trkpt>
      <trkpt lat="46.073704781010747" lon="8.817520318552852">
        <ele>589.25</ele>
        <time>2020-01-06T07:38:56Z</time>
      </trkpt>
      <trkpt lat="46.073744175955653" lon="8.817595336586237">
        <ele>592.34000000000003</ele>
        <time>2020-01-06T07:39:11Z</time>
      </trkpt>
      <trkpt lat="46.073729759082198" lon="8.817682592198253">
        <ele>594.13999999999999</ele>
        <time>2020-01-06T07:39:22Z</time>
      </trkpt>
      <trkpt lat="46.073719365522265" lon="8.817808907479048">
        <ele>595.98000000000002</ele>
        <time>2020-01-06T07:39:36Z</time>
      </trkpt>
      <trkpt lat="46.073724227026105" lon="8.817862970754504">
        <ele>597.30999999999995</ele>
        <time>2020-01-06T07:39:46Z</time>
      </trkpt>
      <trkpt lat="46.07368684373796" lon="8.817906389012933">
        <ele>598.64999999999998</ele>
        <time>2020-01-06T07:39:58Z</time>
      </trkpt>
      <trkpt lat="46.073659770190716" lon="8.817995153367519">
        <ele>601.22000000000003</ele>
        <time>2020-01-06T07:40:11Z</time>
      </trkpt>
      <trkpt lat="46.073633870109916" lon="8.818103028461337">
        <ele>603.29999999999995</ele>
        <time>2020-01-06T07:40:25Z</time>
      </trkpt>
      <trkpt lat="46.073638647794724" lon="8.818153906613588">
        <ele>605.41999999999996</ele>
        <time>2020-01-06T07:40:36Z</time>
      </trkpt>
      <trkpt lat="46.07366681098938" lon="8.818090204149485">
        <ele>608.48000000000002</ele>
        <time>2020-01-06T07:40:50Z</time>
      </trkpt>
      <trkpt lat="46.073697153478861" lon="8.818010408431292">
        <ele>610.22000000000003</ele>
        <time>2020-01-06T07:41:03Z</time>
      </trkpt>
      <trkpt lat="46.073743924498558" lon="8.818005798384547">
        <ele>612.15999999999997</ele>
        <time>2020-01-06T07:41:14Z</time>
      </trkpt>
      <trkpt lat="46.073726071044803" lon="8.818044271320105">
        <ele>613.94000000000005</ele>
        <time>2020-01-06T07:41:25Z</time>
      </trkpt>
      <trkpt lat="46.073733111843467" lon="8.818104788661003">
        <ele>615.90999999999997</ele>
        <time>2020-01-06T07:41:38Z</time>
      </trkpt>
      <trkpt lat="46.073722299188375" lon="8.818147704005241">
        <ele>617.90999999999997</ele>
        <time>2020-01-06T07:41:50Z</time>
      </trkpt>
      <trkpt lat="46.073665386065841" lon="8.818242838606238">
        <ele>618.79999999999995</ele>
        <time>2020-01-06T07:42:02Z</time>
      </trkpt>
      <trkpt lat="46.073658596724272" lon="8.818250549957156">
        <ele>619</ele>
        <time>2020-01-06T07:42:03Z</time>
      </trkpt>
      <trkpt lat="46.073635965585709" lon="8.818342164158821">
        <ele>620.41999999999996</ele>
        <time>2020-01-06T07:42:15Z</time>
      </trkpt>
      <trkpt lat="46.073632780462503" lon="8.818464037030935">
        <ele>621.82000000000005</ele>
        <time>2020-01-06T07:42:28Z</time>
      </trkpt>
      <trkpt lat="46.073619537055492" lon="8.818559171631932">
        <ele>623.08000000000004</ele>
        <time>2020-01-06T07:42:40Z</time>
      </trkpt>
      <trkpt lat="46.073636468499899" lon="8.818679703399539">
        <ele>624.74000000000001</ele>
        <time>2020-01-06T07:42:52Z</time>
      </trkpt>
      <trkpt lat="46.073621129617095" lon="8.818802833557129">
        <ele>627.78999999999996</ele>
        <time>2020-01-06T07:43:06Z</time>
      </trkpt>
      <trkpt lat="46.073615597561002" lon="8.818885814398527">
        <ele>630.95000000000005</ele>
        <time>2020-01-06T07:43:22Z</time>
      </trkpt>
      <trkpt lat="46.073611741885543" lon="8.818896543234587">
        <ele>631.04999999999995</ele>
        <time>2020-01-06T07:43:23Z</time>
      </trkpt>
      <trkpt lat="46.073548709973693" lon="8.819000897929072">
        <ele>633.88999999999999</ele>
        <time>2020-01-06T07:43:38Z</time>
      </trkpt>
      <trkpt lat="46.073598582297564" lon="8.8190374430269">
        <ele>636.21000000000004</ele>
        <time>2020-01-06T07:43:52Z</time>
      </trkpt>
      <trkpt lat="46.07358374632895" lon="8.819051021710038">
        <ele>637.79999999999995</ele>
        <time>2020-01-06T07:44:02Z</time>
      </trkpt>
      <trkpt lat="46.073506297543645" lon="8.819102318957448">
        <ele>640.15999999999997</ele>
        <time>2020-01-06T07:44:16Z</time>
      </trkpt>
      <trkpt lat="46.073465812951326" lon="8.819202231243253">
        <ele>642.48000000000002</ele>
        <time>2020-01-06T07:44:31Z</time>
      </trkpt>
      <trkpt lat="46.073491210117936" lon="8.819244056940079">
        <ele>644.51999999999998</ele>
        <time>2020-01-06T07:44:44Z</time>
      </trkpt>
      <trkpt lat="46.073549967259169" lon="8.819227125495672">
        <ele>647.78999999999996</ele>
        <time>2020-01-06T07:45:00Z</time>
      </trkpt>
      <trkpt lat="46.073532532900572" lon="8.819283284246922">
        <ele>649.49000000000001</ele>
        <time>2020-01-06T07:45:11Z</time>
      </trkpt>
      <trkpt lat="46.073526665568352" lon="8.819350842386484">
        <ele>650.69000000000005</ele>
        <time>2020-01-06T07:45:22Z</time>
      </trkpt>
      <trkpt lat="46.07356421649456" lon="8.819367606192827">
        <ele>653.38999999999999</ele>
        <time>2020-01-06T07:45:36Z</time>
      </trkpt>
      <trkpt lat="46.073537897318602" lon="8.819428961724043">
        <ele>654.90999999999997</ele>
        <time>2020-01-06T07:45:48Z</time>
      </trkpt>
      <trkpt lat="46.073592128232121" lon="8.819459220394492">
        <ele>657.21000000000004</ele>
        <time>2020-01-06T07:46:01Z</time>
      </trkpt>
      <trkpt lat="46.073561450466514" lon="8.81952996365726">
        <ele>659.42999999999995</ele>
        <time>2020-01-06T07:46:16Z</time>
      </trkpt>
      <trkpt lat="46.073458017781377" lon="8.819593330845237">
        <ele>662.12</ele>
        <time>2020-01-06T07:46:33Z</time>
      </trkpt>
      <trkpt lat="46.07340345159173" lon="8.819644208997488">
        <ele>664.25999999999999</ele>
        <time>2020-01-06T07:46:48Z</time>
      </trkpt>
      <trkpt lat="46.073331870138645" lon="8.819726267829537">
        <ele>667.32000000000005</ele>
        <time>2020-01-06T07:47:04Z</time>
      </trkpt>
      <trkpt lat="46.073346035555005" lon="8.819765578955412">
        <ele>668.92999999999995</ele>
        <time>2020-01-06T07:47:16Z</time>
      </trkpt>
      <trkpt lat="46.073393980041146" lon="8.819757951423526">
        <ele>671.35000000000002</ele>
        <time>2020-01-06T07:47:28Z</time>
      </trkpt>
      <trkpt lat="46.073451898992062" lon="8.819773877039552">
        <ele>673.44000000000005</ele>
        <time>2020-01-06T07:47:42Z</time>
      </trkpt>
      <trkpt lat="46.073450641706586" lon="8.819816205650568">
        <ele>675.19000000000005</ele>
        <time>2020-01-06T07:47:55Z</time>
      </trkpt>
      <trkpt lat="46.073410073295236" lon="8.819890217855573">
        <ele>677.88999999999999</ele>
        <time>2020-01-06T07:48:10Z</time>
      </trkpt>
      <trkpt lat="46.073375875130296" lon="8.819923996925354">
        <ele>679.78999999999996</ele>
        <time>2020-01-06T07:48:23Z</time>
      </trkpt>
      <trkpt lat="46.073310663923621" lon="8.819959117099643">
        <ele>681.20000000000005</ele>
        <time>2020-01-06T07:48:37Z</time>
      </trkpt>
      <trkpt lat="46.073357351124287" lon="8.81998635828495">
        <ele>683.10000000000002</ele>
        <time>2020-01-06T07:48:48Z</time>
      </trkpt>
      <trkpt lat="46.073408396914601" lon="8.819988537579775">
        <ele>685.26999999999998</ele>
        <time>2020-01-06T07:49:00Z</time>
      </trkpt>
      <trkpt lat="46.073460364714265" lon="8.819979317486286">
        <ele>687.16999999999996</ele>
        <time>2020-01-06T07:49:13Z</time>
      </trkpt>
      <trkpt lat="46.073499927297235" lon="8.819975461810827">
        <ele>688.89999999999998</ele>
        <time>2020-01-06T07:49:25Z</time>
      </trkpt>
      <trkpt lat="46.073475033044815" lon="8.820026926696301">
        <ele>690.27999999999997</ele>
        <time>2020-01-06T07:49:35Z</time>
      </trkpt>
      <trkpt lat="46.073450641706586" lon="8.820042768493295">
        <ele>691.96000000000004</ele>
        <time>2020-01-06T07:49:46Z</time>
      </trkpt>
      <trkpt lat="46.07339221984148" lon="8.820050396025181">
        <ele>693.96000000000004</ele>
        <time>2020-01-06T07:50:00Z</time>
      </trkpt>
      <trkpt lat="46.073434883728623" lon="8.820069003850222">
        <ele>695.99000000000001</ele>
        <time>2020-01-06T07:50:12Z</time>
      </trkpt>
      <trkpt lat="46.073493473231792" lon="8.820055089890957">
        <ele>697.45000000000005</ele>
        <time>2020-01-06T07:50:23Z</time>
      </trkpt>
      <trkpt lat="46.073537394404411" lon="8.820035308599472">
        <ele>698.79999999999995</ele>
        <time>2020-01-06T07:50:33Z</time>
      </trkpt>
      <trkpt lat="46.073630601167679" lon="8.82001175545156">
        <ele>700.89999999999998</ele>
        <time>2020-01-06T07:50:46Z</time>
      </trkpt>
      <trkpt lat="46.073725149035454" lon="8.81994285620749">
        <ele>702.98000000000002</ele>
        <time>2020-01-06T07:50:59Z</time>
      </trkpt>
      <trkpt lat="46.073796898126602" lon="8.819899605587125">
        <ele>705.40999999999997</ele>
        <time>2020-01-06T07:51:11Z</time>
      </trkpt>
      <trkpt lat="46.073869653046131" lon="8.819854510948062">
        <ele>707.34000000000003</ele>
        <time>2020-01-06T07:51:22Z</time>
      </trkpt>
      <trkpt lat="46.073847357183695" lon="8.819882087409496">
        <ele>708.88999999999999</ele>
        <time>2020-01-06T07:51:32Z</time>
      </trkpt>
      <trkpt lat="46.073777619749308" lon="8.819962302222848">
        <ele>710.54999999999995</ele>
        <time>2020-01-06T07:51:43Z</time>
      </trkpt>
      <trkpt lat="46.073795054107904" lon="8.820001445710659">
        <ele>712.44000000000005</ele>
        <time>2020-01-06T07:51:55Z</time>
      </trkpt>
      <trkpt lat="46.073861103504896" lon="8.820036398246884">
        <ele>714.25999999999999</ele>
        <time>2020-01-06T07:52:06Z</time>
      </trkpt>
      <trkpt lat="46.07389404438436" lon="8.820122312754393">
        <ele>716.63999999999999</ele>
        <time>2020-01-06T07:52:18Z</time>
      </trkpt>
      <trkpt lat="46.073854481801391" lon="8.820155002176762">
        <ele>718.55999999999995</ele>
        <time>2020-01-06T07:52:29Z</time>
      </trkpt>
      <trkpt lat="46.073838137090206" lon="8.820253070443869">
        <ele>720.85000000000002</ele>
        <time>2020-01-06T07:52:43Z</time>
      </trkpt>
      <trkpt lat="46.073789354413748" lon="8.820278886705637">
        <ele>722.78999999999996</ele>
        <time>2020-01-06T07:52:56Z</time>
      </trkpt>
      <trkpt lat="46.073723053559661" lon="8.820370584726334">
        <ele>724.66999999999996</ele>
        <time>2020-01-06T07:53:11Z</time>
      </trkpt>
      <trkpt lat="46.073648957535625" lon="8.820503102615476">
        <ele>727.52999999999997</ele>
        <time>2020-01-06T07:53:28Z</time>
      </trkpt>
      <trkpt lat="46.07357201166451" lon="8.82054241374135">
        <ele>729.25999999999999</ele>
        <time>2020-01-06T07:53:40Z</time>
      </trkpt>
      <trkpt lat="46.073516607284546" lon="8.820601673796773">
        <ele>732.22000000000003</ele>
        <time>2020-01-06T07:53:56Z</time>
      </trkpt>
      <trkpt lat="46.073473021388054" lon="8.820638302713633">
        <ele>734.64999999999998</ele>
        <time>2020-01-06T07:54:11Z</time>
      </trkpt>
      <trkpt lat="46.073424657806754" lon="8.820705693215132">
        <ele>737.02999999999997</ele>
        <time>2020-01-06T07:54:23Z</time>
      </trkpt>
      <trkpt lat="46.073440164327621" lon="8.820753386244178">
        <ele>739.49000000000001</ele>
        <time>2020-01-06T07:54:36Z</time>
      </trkpt>
      <trkpt lat="46.07351291924715" lon="8.820779453963041">
        <ele>742.36000000000001</ele>
        <time>2020-01-06T07:54:52Z</time>
      </trkpt>
      <trkpt lat="46.073595397174358" lon="8.820802588015795">
        <ele>744.94000000000005</ele>
        <time>2020-01-06T07:55:07Z</time>
      </trkpt>
      <trkpt lat="46.073566060513258" lon="8.820827901363373">
        <ele>747.02999999999997</ele>
        <time>2020-01-06T07:55:19Z</time>
      </trkpt>
      <trkpt lat="46.073585087433457" lon="8.820897471159697">
        <ele>748.96000000000004</ele>
        <time>2020-01-06T07:55:31Z</time>
      </trkpt>
      <trkpt lat="46.073639234527946" lon="8.820943990722299">
        <ele>750.98000000000002</ele>
        <time>2020-01-06T07:55:44Z</time>
      </trkpt>
      <trkpt lat="46.073662955313921" lon="8.820982463657856">
        <ele>752.86000000000001</ele>
        <time>2020-01-06T07:55:55Z</time>
      </trkpt>
      <trkpt lat="46.07360914349556" lon="8.82099000737071">
        <ele>754.50999999999999</ele>
        <time>2020-01-06T07:56:06Z</time>
      </trkpt>
      <trkpt lat="46.073588524013758" lon="8.82101439870894">
        <ele>756.51999999999998</ele>
        <time>2020-01-06T07:56:18Z</time>
      </trkpt>
      <trkpt lat="46.073615932837129" lon="8.821064438670874">
        <ele>758.76999999999998</ele>
        <time>2020-01-06T07:56:29Z</time>
      </trkpt>
      <trkpt lat="46.073673767969012" lon="8.821099558845162">
        <ele>760.99000000000001</ele>
        <time>2020-01-06T07:56:43Z</time>
      </trkpt>
      <trkpt lat="46.073647700250149" lon="8.821128560230136">
        <ele>763.49000000000001</ele>
        <time>2020-01-06T07:56:56Z</time>
      </trkpt>
      <trkpt lat="46.07358131557703" lon="8.821171475574374">
        <ele>765.59000000000003</ele>
        <time>2020-01-06T07:57:09Z</time>
      </trkpt>
      <trkpt lat="46.073505962267518" lon="8.821242805570364">
        <ele>767.80999999999995</ele>
        <time>2020-01-06T07:57:22Z</time>
      </trkpt>
      <trkpt lat="46.073478385806084" lon="8.821326624602079">
        <ele>770.27999999999997</ele>
        <time>2020-01-06T07:57:36Z</time>
      </trkpt>
      <trkpt lat="46.073528425768018" lon="8.821308771148324">
        <ele>772.14999999999998</ele>
        <time>2020-01-06T07:57:48Z</time>
      </trkpt>
      <trkpt lat="46.073570419102907" lon="8.821306088939309">
        <ele>774.07000000000005</ele>
        <time>2020-01-06T07:57:59Z</time>
      </trkpt>
      <trkpt lat="46.073549380525947" lon="8.821338526904583">
        <ele>775.92999999999995</ele>
        <time>2020-01-06T07:58:12Z</time>
      </trkpt>
      <trkpt lat="46.073497831821442" lon="8.821412287652493">
        <ele>777.75</ele>
        <time>2020-01-06T07:58:23Z</time>
      </trkpt>
      <trkpt lat="46.073515098541975" lon="8.821492753922939">
        <ele>780.04999999999995</ele>
        <time>2020-01-06T07:58:33Z</time>
      </trkpt>
      <trkpt lat="46.073582153767347" lon="8.821487473323941">
        <ele>782.80999999999995</ele>
        <time>2020-01-06T07:58:47Z</time>
      </trkpt>
      <trkpt lat="46.07361794449389" lon="8.821525778621435">
        <ele>785.28999999999996</ele>
        <time>2020-01-06T07:59:01Z</time>
      </trkpt>
      <trkpt lat="46.073617273941636" lon="8.821593504399061">
        <ele>787.69000000000005</ele>
        <time>2020-01-06T07:59:14Z</time>
      </trkpt>
      <trkpt lat="46.07366630807519" lon="8.821639521047473">
        <ele>789.86000000000001</ele>
        <time>2020-01-06T07:59:26Z</time>
      </trkpt>
      <trkpt lat="46.073697656393051" lon="8.82172049023211">
        <ele>792.25999999999999</ele>
        <time>2020-01-06T07:59:39Z</time>
      </trkpt>
      <trkpt lat="46.073694135993719" lon="8.821756867691875">
        <ele>794.63999999999999</ele>
        <time>2020-01-06T07:59:51Z</time>
      </trkpt>
      <trkpt lat="46.07362967915833" lon="8.821784444153309">
        <ele>796.46000000000004</ele>
        <time>2020-01-06T08:00:03Z</time>
      </trkpt>
      <trkpt lat="46.073653483763337" lon="8.821849906817079">
        <ele>798.52999999999997</ele>
        <time>2020-01-06T08:00:15Z</time>
      </trkpt>
      <trkpt lat="46.073684748262167" lon="8.821868011727929">
        <ele>799.42999999999995</ele>
        <time>2020-01-06T08:00:26Z</time>
      </trkpt>
      <trkpt lat="46.073649041354656" lon="8.821897096931934">
        <ele>801.85000000000002</ele>
        <time>2020-01-06T08:00:39Z</time>
      </trkpt>
      <trkpt lat="46.073633534833789" lon="8.821944706141949">
        <ele>803.71000000000004</ele>
        <time>2020-01-06T08:00:50Z</time>
      </trkpt>
      <trkpt lat="46.073683742433786" lon="8.82197018712759">
        <ele>805.00999999999999</ele>
        <time>2020-01-06T08:01:02Z</time>
      </trkpt>
      <trkpt lat="46.07367318123579" lon="8.822026513516903">
        <ele>807.17999999999995</ele>
        <time>2020-01-06T08:01:14Z</time>
      </trkpt>
      <trkpt lat="46.073725819587708" lon="8.822097256779671">
        <ele>809.09000000000003</ele>
        <time>2020-01-06T08:01:27Z</time>
      </trkpt>
      <trkpt lat="46.073750713840127" lon="8.822170766070485">
        <ele>811.64999999999998</ele>
        <time>2020-01-06T08:01:40Z</time>
      </trkpt>
      <trkpt lat="46.07377577573061" lon="8.822257434949279">
        <ele>814.17999999999995</ele>
        <time>2020-01-06T08:01:53Z</time>
      </trkpt>
      <trkpt lat="46.073776865378022" lon="8.822332033887506">
        <ele>816.63</ele>
        <time>2020-01-06T08:02:05Z</time>
      </trkpt>
      <trkpt lat="46.073709726333618" lon="8.822358353063464">
        <ele>817.53999999999996</ele>
        <time>2020-01-06T08:02:17Z</time>
      </trkpt>
      <trkpt lat="46.073627332225442" lon="8.822392551228404">
        <ele>816.75</ele>
        <time>2020-01-06T08:02:27Z</time>
      </trkpt>
      <trkpt lat="46.073616100475192" lon="8.8224031124264">
        <ele>816.90999999999997</ele>
        <time>2020-01-06T08:02:45Z</time>
      </trkpt>
      <trkpt lat="46.073648035526276" lon="8.822390204295516">
        <ele>816.62</ele>
        <time>2020-01-06T08:03:18Z</time>
      </trkpt>
      <trkpt lat="46.073689693585038" lon="8.822376541793346">
        <ele>817.10000000000002</ele>
        <time>2020-01-06T08:03:28Z</time>
      </trkpt>
      <trkpt lat="46.073731100186706" lon="8.822374111041427">
        <ele>817.35000000000002</ele>
        <time>2020-01-06T08:03:53Z</time>
      </trkpt>
      <trkpt lat="46.07374643906951" lon="8.82248517125845">
        <ele>820.05999999999995</ele>
        <time>2020-01-06T08:04:08Z</time>
      </trkpt>
      <trkpt lat="46.073768148198724" lon="8.822559602558613">
        <ele>822.82000000000005</ele>
        <time>2020-01-06T08:04:19Z</time>
      </trkpt>
      <trkpt lat="46.073751719668508" lon="8.822669070214033">
        <ele>825.75</ele>
        <time>2020-01-06T08:04:34Z</time>
      </trkpt>
      <trkpt lat="46.073766890913248" lon="8.822773844003677">
        <ele>827.74000000000001</ele>
        <time>2020-01-06T08:04:46Z</time>
      </trkpt>
      <trkpt lat="46.073768232017756" lon="8.822857746854425">
        <ele>829.79999999999995</ele>
        <time>2020-01-06T08:04:59Z</time>
      </trkpt>
      <trkpt lat="46.073763119056821" lon="8.822872247546911">
        <ele>830.85000000000002</ele>
        <time>2020-01-06T08:05:01Z</time>
      </trkpt>
      <trkpt lat="46.07374987564981" lon="8.822952881455421">
        <ele>832.65999999999997</ele>
        <time>2020-01-06T08:05:12Z</time>
      </trkpt>
      <trkpt lat="46.073741829022765" lon="8.82303049787879">
        <ele>834.46000000000004</ele>
        <time>2020-01-06T08:05:22Z</time>
      </trkpt>
      <trkpt lat="46.073717018589377" lon="8.823132673278451">
        <ele>836.91999999999996</ele>
        <time>2020-01-06T08:05:35Z</time>
      </trkpt>
      <trkpt lat="46.073704529553652" lon="8.823175085708499">
        <ele>837.60000000000002</ele>
        <time>2020-01-06T08:05:39Z</time>
      </trkpt>
      <trkpt lat="46.073682317510247" lon="8.823288409039378">
        <ele>839.29999999999995</ele>
        <time>2020-01-06T08:05:50Z</time>
      </trkpt>
      <trkpt lat="46.073640994727612" lon="8.823408437892795">
        <ele>840.86000000000001</ele>
        <time>2020-01-06T08:06:03Z</time>
      </trkpt>
      <trkpt lat="46.073570167645812" lon="8.823542632162571">
        <ele>841.76999999999998</ele>
        <time>2020-01-06T08:06:15Z</time>
      </trkpt>
      <trkpt lat="46.073593134060502" lon="8.823577919974923">
        <ele>844.20000000000005</ele>
        <time>2020-01-06T08:06:25Z</time>
      </trkpt>
      <trkpt lat="46.073594056069851" lon="8.823624858632684">
        <ele>845.94000000000005</ele>
        <time>2020-01-06T08:06:34Z</time>
      </trkpt>
      <trkpt lat="46.073625404387712" lon="8.823651932179928">
        <ele>848.12</ele>
        <time>2020-01-06T08:06:45Z</time>
      </trkpt>
      <trkpt lat="46.073671756312251" lon="8.823648830875754">
        <ele>850.42999999999995</ele>
        <time>2020-01-06T08:06:59Z</time>
      </trkpt>
      <trkpt lat="46.073658932000399" lon="8.823717143386602">
        <ele>852.74000000000001</ele>
        <time>2020-01-06T08:07:11Z</time>
      </trkpt>
      <trkpt lat="46.073701763525605" lon="8.823722675442696">
        <ele>855.60000000000002</ele>
        <time>2020-01-06T08:07:23Z</time>
      </trkpt>
      <trkpt lat="46.073684077709913" lon="8.823758382350206">
        <ele>856.67999999999995</ele>
        <time>2020-01-06T08:07:28Z</time>
      </trkpt>
      <trkpt lat="46.073637809604406" lon="8.823868772014976">
        <ele>858.92999999999995</ele>
        <time>2020-01-06T08:07:40Z</time>
      </trkpt>
      <trkpt lat="46.073583578690886" lon="8.823965499177575">
        <ele>861.38</ele>
        <time>2020-01-06T08:07:55Z</time>
      </trkpt>
      <trkpt lat="46.0735431779176" lon="8.82405904121697">
        <ele>863.46000000000004</ele>
        <time>2020-01-06T08:08:08Z</time>
      </trkpt>
      <trkpt lat="46.073477296158671" lon="8.824179237708449">
        <ele>865.94000000000005</ele>
        <time>2020-01-06T08:08:22Z</time>
      </trkpt>
      <trkpt lat="46.073416275903583" lon="8.824282418936491">
        <ele>867.76999999999998</ele>
        <time>2020-01-06T08:08:36Z</time>
      </trkpt>
      <trkpt lat="46.073334133252501" lon="8.824380319565535">
        <ele>869.99000000000001</ele>
        <time>2020-01-06T08:08:51Z</time>
      </trkpt>
      <trkpt lat="46.073257271200418" lon="8.824489116668701">
        <ele>872.50999999999999</ele>
        <time>2020-01-06T08:09:05Z</time>
      </trkpt>
      <trkpt lat="46.073195161297917" lon="8.824576707556844">
        <ele>874.88</ele>
        <time>2020-01-06T08:09:18Z</time>
      </trkpt>
      <trkpt lat="46.073140427470207" lon="8.824665388092399">
        <ele>877.15999999999997</ele>
        <time>2020-01-06T08:09:31Z</time>
      </trkpt>
      <trkpt lat="46.073108240962029" lon="8.824741831049323">
        <ele>878.95000000000005</ele>
        <time>2020-01-06T08:09:42Z</time>
      </trkpt>
      <trkpt lat="46.073139337822795" lon="8.824751218780875">
        <ele>881.12</ele>
        <time>2020-01-06T08:09:53Z</time>
      </trkpt>
      <trkpt lat="46.073111426085234" lon="8.824819196015596">
        <ele>883.34000000000003</ele>
        <time>2020-01-06T08:10:04Z</time>
      </trkpt>
      <trkpt lat="46.073102625086904" lon="8.824904691427946">
        <ele>884.83000000000004</ele>
        <time>2020-01-06T08:10:14Z</time>
      </trkpt>
      <trkpt lat="46.073092063888907" lon="8.824975937604904">
        <ele>885.13</ele>
        <time>2020-01-06T08:10:20Z</time>
      </trkpt>
      <trkpt lat="46.073079658672214" lon="8.82505539804697">
        <ele>884.80999999999995</ele>
        <time>2020-01-06T08:10:25Z</time>
      </trkpt>
      <trkpt lat="46.073071109130979" lon="8.825152209028602">
        <ele>884.58000000000004</ele>
        <time>2020-01-06T08:10:31Z</time>
      </trkpt>
      <trkpt lat="46.073062140494585" lon="8.825302328914404">
        <ele>885.75999999999999</ele>
        <time>2020-01-06T08:10:41Z</time>
      </trkpt>
      <trkpt lat="46.072999611496925" lon="8.825444569811225">
        <ele>888.38999999999999</ele>
        <time>2020-01-06T08:10:52Z</time>
      </trkpt>
      <trkpt lat="46.072936495766044" lon="8.825577674433589">
        <ele>891.24000000000001</ele>
        <time>2020-01-06T08:11:05Z</time>
      </trkpt>
      <trkpt lat="46.072881845757365" lon="8.82567155174911">
        <ele>893.75999999999999</ele>
        <time>2020-01-06T08:11:19Z</time>
      </trkpt>
      <trkpt lat="46.072825770825148" lon="8.825749419629574">
        <ele>895.19000000000005</ele>
        <time>2020-01-06T08:11:33Z</time>
      </trkpt>
      <trkpt lat="46.07278092764318" lon="8.825873136520386">
        <ele>897.54999999999995</ele>
        <time>2020-01-06T08:11:48Z</time>
      </trkpt>
      <trkpt lat="46.072722254320979" lon="8.825981011614204">
        <ele>899.14999999999998</ele>
        <time>2020-01-06T08:12:01Z</time>
      </trkpt>
      <trkpt lat="46.072667185217142" lon="8.826078241690993">
        <ele>900.85000000000002</ele>
        <time>2020-01-06T08:12:13Z</time>
      </trkpt>
      <trkpt lat="46.072621587663889" lon="8.826229199767113">
        <ele>902.65999999999997</ele>
        <time>2020-01-06T08:12:29Z</time>
      </trkpt>
      <trkpt lat="46.072614882141352" lon="8.826300445944071">
        <ele>903.87</ele>
        <time>2020-01-06T08:12:41Z</time>
      </trkpt>
      <trkpt lat="46.072599459439516" lon="8.826389629393816">
        <ele>904.61000000000001</ele>
        <time>2020-01-06T08:12:52Z</time>
      </trkpt>
      <trkpt lat="46.07258697040379" lon="8.826491972431541">
        <ele>906.07000000000005</ele>
        <time>2020-01-06T08:13:03Z</time>
      </trkpt>
      <trkpt lat="46.072549000382423" lon="8.8265510648489">
        <ele>907.77999999999997</ele>
        <time>2020-01-06T08:13:16Z</time>
      </trkpt>
      <trkpt lat="46.072519076988101" lon="8.826635889708996">
        <ele>909.12</ele>
        <time>2020-01-06T08:13:27Z</time>
      </trkpt>
      <trkpt lat="46.072490913793445" lon="8.82677000015974">
        <ele>911.38999999999999</ele>
        <time>2020-01-06T08:13:45Z</time>
      </trkpt>
      <trkpt lat="46.072496781125665" lon="8.826859015971422">
        <ele>913.62</ele>
        <time>2020-01-06T08:13:58Z</time>
      </trkpt>
      <trkpt lat="46.072444729506969" lon="8.826929843053222">
        <ele>915.24000000000001</ele>
        <time>2020-01-06T08:14:13Z</time>
      </trkpt>
      <trkpt lat="46.072348756715655" lon="8.826961191371083">
        <ele>917.23000000000002</ele>
        <time>2020-01-06T08:14:29Z</time>
      </trkpt>
      <trkpt lat="46.072219759225845" lon="8.826949540525675">
        <ele>919.74000000000001</ele>
        <time>2020-01-06T08:14:45Z</time>
      </trkpt>
      <trkpt lat="46.072117835283279" lon="8.827028078958392">
        <ele>920.01999999999998</ele>
        <time>2020-01-06T08:14:58Z</time>
      </trkpt>
      <trkpt lat="46.072116326540709" lon="8.82704702205956">
        <ele>920.04999999999995</ele>
        <time>2020-01-06T08:14:59Z</time>
      </trkpt>
      <trkpt lat="46.072104088962078" lon="8.827220862731338">
        <ele>920.80999999999995</ele>
        <time>2020-01-06T08:15:09Z</time>
      </trkpt>
      <trkpt lat="46.072065616026521" lon="8.827310632914305">
        <ele>923.02999999999997</ele>
        <time>2020-01-06T08:15:22Z</time>
      </trkpt>
      <trkpt lat="46.071997219696641" lon="8.827277775853872">
        <ele>925.14999999999998</ele>
        <time>2020-01-06T08:15:33Z</time>
      </trkpt>
      <trkpt lat="46.071931337937713" lon="8.827236453071237">
        <ele>927.42999999999995</ele>
        <time>2020-01-06T08:15:45Z</time>
      </trkpt>
      <trkpt lat="46.071870988234878" lon="8.827122878283262">
        <ele>930.36000000000001</ele>
        <time>2020-01-06T08:16:00Z</time>
      </trkpt>
      <trkpt lat="46.071801669895649" lon="8.827093709260225">
        <ele>932.84000000000003</ele>
        <time>2020-01-06T08:16:14Z</time>
      </trkpt>
      <trkpt lat="46.07173671014607" lon="8.827084992080927">
        <ele>935.19000000000005</ele>
        <time>2020-01-06T08:16:26Z</time>
      </trkpt>
      <trkpt lat="46.071661440655589" lon="8.827073760330677">
        <ele>937.51999999999998</ele>
        <time>2020-01-06T08:16:40Z</time>
      </trkpt>
      <trkpt lat="46.071580639109015" lon="8.827044842764735">
        <ele>940.15999999999997</ele>
        <time>2020-01-06T08:16:56Z</time>
      </trkpt>
      <trkpt lat="46.071494556963444" lon="8.827042747288942">
        <ele>942.14999999999998</ele>
        <time>2020-01-06T08:17:10Z</time>
      </trkpt>
      <trkpt lat="46.071377294138074" lon="8.827037718147039">
        <ele>945.07000000000005</ele>
        <time>2020-01-06T08:17:29Z</time>
      </trkpt>
      <trkpt lat="46.071269083768129" lon="8.827037047594786">
        <ele>947.34000000000003</ele>
        <time>2020-01-06T08:17:46Z</time>
      </trkpt>
      <trkpt lat="46.071171686053276" lon="8.827080801129341">
        <ele>949.62</ele>
        <time>2020-01-06T08:18:01Z</time>
      </trkpt>
      <trkpt lat="46.07109222561121" lon="8.82711349055171">
        <ele>951.61000000000001</ele>
        <time>2020-01-06T08:18:14Z</time>
      </trkpt>
      <trkpt lat="46.071043275296688" lon="8.827105024829507">
        <ele>950.29999999999995</ele>
        <time>2020-01-06T08:18:26Z</time>
      </trkpt>
      <trkpt lat="46.071033300831914" lon="8.827100582420826">
        <ele>950.44000000000005</ele>
        <time>2020-01-06T08:18:36Z</time>
      </trkpt>
      <trkpt lat="46.071035228669643" lon="8.827094966545701">
        <ele>950.05999999999995</ele>
        <time>2020-01-06T08:19:22Z</time>
      </trkpt>
      <trkpt lat="46.071033217012882" lon="8.82709052413702">
        <ele>950.03999999999996</ele>
        <time>2020-01-06T08:20:05Z</time>
      </trkpt>
      <trkpt lat="46.071036653593183" lon="8.827100750058889">
        <ele>949.78999999999996</ele>
        <time>2020-01-06T08:20:32Z</time>
      </trkpt>
      <trkpt lat="46.071047969162464" lon="8.827116005122662">
        <ele>949.89999999999998</ele>
        <time>2020-01-06T08:21:01Z</time>
      </trkpt>
      <trkpt lat="46.07105316594243" lon="8.827112903818488">
        <ele>949.97000000000003</ele>
        <time>2020-01-06T08:21:49Z</time>
      </trkpt>
      <trkpt lat="46.071057189255953" lon="8.827114664018154">
        <ele>949.82000000000005</ele>
        <time>2020-01-06T08:22:38Z</time>
      </trkpt>
      <trkpt lat="46.071053417399526" lon="8.827119190245867">
        <ele>949.66999999999996</ele>
        <time>2020-01-06T08:23:19Z</time>
      </trkpt>
      <trkpt lat="46.071027014404535" lon="8.827124051749706">
        <ele>949.34000000000003</ele>
        <time>2020-01-06T08:24:26Z</time>
      </trkpt>
      <trkpt lat="46.071025254204869" lon="8.827116508036852">
        <ele>949.08000000000004</ele>
        <time>2020-01-06T08:25:04Z</time>
      </trkpt>
      <trkpt lat="46.070997845381498" lon="8.827127320691943">
        <ele>948.74000000000001</ele>
        <time>2020-01-06T08:26:21Z</time>
      </trkpt>
      <trkpt lat="46.071003712713718" lon="8.827114412561059">
        <ele>948.48000000000002</ele>
        <time>2020-01-06T08:27:23Z</time>
      </trkpt>
      <trkpt lat="46.071027014404535" lon="8.827096475288272">
        <ele>948.21000000000004</ele>
        <time>2020-01-06T08:28:24Z</time>
      </trkpt>
      <trkpt lat="46.07104972936213" lon="8.827081304043531">
        <ele>947.79999999999995</ele>
        <time>2020-01-06T08:29:31Z</time>
      </trkpt>
      <trkpt lat="46.07105509378016" lon="8.827094882726669">
        <ele>947.75999999999999</ele>
        <time>2020-01-06T08:30:29Z</time>
      </trkpt>
      <trkpt lat="46.071051405742764" lon="8.827109299600124">
        <ele>947.49000000000001</ele>
        <time>2020-01-06T08:31:23Z</time>
      </trkpt>
      <trkpt lat="46.071035480126739" lon="8.827122123911977">
        <ele>947.29999999999995</ele>
        <time>2020-01-06T08:31:59Z</time>
      </trkpt>
      <trkpt lat="46.071022571995854" lon="8.82713402621448">
        <ele>947.21000000000004</ele>
        <time>2020-01-06T08:32:39Z</time>
      </trkpt>
      <trkpt lat="46.071020476520061" lon="8.827134110033512">
        <ele>947.00999999999999</ele>
        <time>2020-01-06T08:33:21Z</time>
      </trkpt>
      <trkpt lat="46.071032211184502" lon="8.82711298763752">
        <ele>946.96000000000004</ele>
        <time>2020-01-06T08:33:50Z</time>
      </trkpt>
      <trkpt lat="46.071025086566806" lon="8.827121453359723">
        <ele>946.63</ele>
        <time>2020-01-06T08:34:29Z</time>
      </trkpt>
      <trkpt lat="46.071027768775821" lon="8.827135534957051">
        <ele>946.33000000000004</ele>
        <time>2020-01-06T08:35:21Z</time>
      </trkpt>
      <trkpt lat="46.071027014404535" lon="8.827135786414146">
        <ele>946.27999999999997</ele>
        <time>2020-01-06T08:36:09Z</time>
      </trkpt>
      <trkpt lat="46.071033971384168" lon="8.827120196074247">
        <ele>946.08000000000004</ele>
        <time>2020-01-06T08:36:58Z</time>
      </trkpt>
      <trkpt lat="46.07103799469769" lon="8.827105276286602">
        <ele>945.97000000000003</ele>
        <time>2020-01-06T08:37:42Z</time>
      </trkpt>
      <trkpt lat="46.071046041324735" lon="8.827091949060559">
        <ele>945.64999999999998</ele>
        <time>2020-01-06T08:38:27Z</time>
      </trkpt>
      <trkpt lat="46.071048555895686" lon="8.827093793079257">
        <ele>945.62</ele>
        <time>2020-01-06T08:38:57Z</time>
      </trkpt>
      <trkpt lat="46.071039503440261" lon="8.827092787250876">
        <ele>945.15999999999997</ele>
        <time>2020-01-06T08:39:36Z</time>
      </trkpt>
      <trkpt lat="46.071048052981496" lon="8.827081471681595">
        <ele>945</ele>
        <time>2020-01-06T08:40:06Z</time>
      </trkpt>
      <trkpt lat="46.071048807352781" lon="8.82707585580647">
        <ele>944.85000000000002</ele>
        <time>2020-01-06T08:40:43Z</time>
      </trkpt>
      <trkpt lat="46.071044867858291" lon="8.827092116698623">
        <ele>945.22000000000003</ele>
        <time>2020-01-06T08:41:01Z</time>
      </trkpt>
      <trkpt lat="46.07104729861021" lon="8.82709639146924">
        <ele>945.36000000000001</ele>
        <time>2020-01-06T08:41:15Z</time>
      </trkpt>
      <trkpt lat="46.07105459086597" lon="8.827104521915317">
        <ele>945.27999999999997</ele>
        <time>2020-01-06T08:41:31Z</time>
      </trkpt>
      <trkpt lat="46.071042101830244" lon="8.82717065513134">
        <ele>945.46000000000004</ele>
        <time>2020-01-06T08:41:44Z</time>
      </trkpt>
      <trkpt lat="46.071030786260962" lon="8.827200494706631">
        <ele>944.40999999999997</ele>
        <time>2020-01-06T08:41:47Z</time>
      </trkpt>
      <trkpt lat="46.071019973605871" lon="8.827207451686263">
        <ele>943.55999999999995</ele>
        <time>2020-01-06T08:41:50Z</time>
      </trkpt>
      <trkpt lat="46.071007652208209" lon="8.827160764485598">
        <ele>943.57000000000005</ele>
        <time>2020-01-06T08:41:54Z</time>
      </trkpt>
      <trkpt lat="46.070841187611222" lon="8.827292444184423">
        <ele>943.26999999999998</ele>
        <time>2020-01-06T08:42:20Z</time>
      </trkpt>
      <trkpt lat="46.07081076130271" lon="8.827209044247866">
        <ele>942.52999999999997</ele>
        <time>2020-01-06T08:42:26Z</time>
      </trkpt>
      <trkpt lat="46.070811683312058" lon="8.827318595722318">
        <ele>942.22000000000003</ele>
        <time>2020-01-06T08:42:35Z</time>
      </trkpt>
      <trkpt lat="46.070842444896698" lon="8.827344831079245">
        <ele>942.07000000000005</ele>
        <time>2020-01-06T08:42:38Z</time>
      </trkpt>
      <trkpt lat="46.070863734930754" lon="8.82734902203083">
        <ele>942.26999999999998</ele>
        <time>2020-01-06T08:42:40Z</time>
      </trkpt>
      <trkpt lat="46.070904806256294" lon="8.827381627634168">
        <ele>943.23000000000002</ele>
        <time>2020-01-06T08:42:52Z</time>
      </trkpt>
      <trkpt lat="46.070911344140768" lon="8.827473828569055">
        <ele>944</ele>
        <time>2020-01-06T08:43:08Z</time>
      </trkpt>
      <trkpt lat="46.070893909782171" lon="8.82767734117806">
        <ele>941.16999999999996</ele>
        <time>2020-01-06T08:43:23Z</time>
      </trkpt>
      <trkpt lat="46.070870188996196" lon="8.827699553221464">
        <ele>940.88999999999999</ele>
        <time>2020-01-06T08:43:25Z</time>
      </trkpt>
      <trkpt lat="46.070866249501705" lon="8.827739534899592">
        <ele>940.64999999999998</ele>
        <time>2020-01-06T08:43:29Z</time>
      </trkpt>
      <trkpt lat="46.070841690525413" lon="8.827887894585729">
        <ele>939.74000000000001</ele>
        <time>2020-01-06T08:43:37Z</time>
      </trkpt>
      <trkpt lat="46.070808749645948" lon="8.827989567071199">
        <ele>938.82000000000005</ele>
        <time>2020-01-06T08:43:43Z</time>
      </trkpt>
      <trkpt lat="46.070785447955132" lon="8.828038768842816">
        <ele>938.23000000000002</ele>
        <time>2020-01-06T08:43:53Z</time>
      </trkpt>
      <trkpt lat="46.070765415206552" lon="8.828042624518275">
        <ele>938.05999999999995</ele>
        <time>2020-01-06T08:44:10Z</time>
      </trkpt>
      <trkpt lat="46.070723757147789" lon="8.828067183494568">
        <ele>938.03999999999996</ele>
        <time>2020-01-06T08:44:31Z</time>
      </trkpt>
      <trkpt lat="46.070738341659307" lon="8.828156953677535">
        <ele>938.61000000000001</ele>
        <time>2020-01-06T08:44:48Z</time>
      </trkpt>
      <trkpt lat="46.07073649764061" lon="8.828171957284212">
        <ele>938.90999999999997</ele>
        <time>2020-01-06T08:45:07Z</time>
      </trkpt>
      <trkpt lat="46.070735324174166" lon="8.8281708676368">
        <ele>939.07000000000005</ele>
        <time>2020-01-06T08:45:30Z</time>
      </trkpt>
      <trkpt lat="46.070729037746787" lon="8.828177824616432">
        <ele>938.84000000000003</ele>
        <time>2020-01-06T08:45:43Z</time>
      </trkpt>
      <trkpt lat="46.070718308910728" lon="8.828206909820437">
        <ele>938.63</ele>
        <time>2020-01-06T08:45:57Z</time>
      </trkpt>
      <trkpt lat="46.070763906463981" lon="8.828210262581706">
        <ele>937.78999999999996</ele>
        <time>2020-01-06T08:47:03Z</time>
      </trkpt>
      <trkpt lat="46.07072333805263" lon="8.828130718320608">
        <ele>938.46000000000004</ele>
        <time>2020-01-06T08:49:01Z</time>
      </trkpt>
      <trkpt lat="46.070817885920405" lon="8.82838829420507">
        <ele>938.86000000000001</ele>
        <time>2020-01-06T08:54:32Z</time>
      </trkpt>
      <trkpt lat="46.070827441290021" lon="8.828367507085204">
        <ele>938.59000000000003</ele>
        <time>2020-01-06T08:55:01Z</time>
      </trkpt>
      <trkpt lat="46.070852084085345" lon="8.828360131010413">
        <ele>938.73000000000002</ele>
        <time>2020-01-06T08:55:32Z</time>
      </trkpt>
      <trkpt lat="46.070837248116732" lon="8.828292153775692">
        <ele>939.53999999999996</ele>
        <time>2020-01-06T08:55:40Z</time>
      </trkpt>
      <trkpt lat="46.070796092972159" lon="8.82821336388588">
        <ele>939.71000000000004</ele>
        <time>2020-01-06T08:55:46Z</time>
      </trkpt>
      <trkpt lat="46.070767091587186" lon="8.828190481290221">
        <ele>939.88999999999999</ele>
        <time>2020-01-06T08:56:04Z</time>
      </trkpt>
      <trkpt lat="46.070765415206552" lon="8.828198360279203">
        <ele>940.03999999999996</ele>
        <time>2020-01-06T08:56:16Z</time>
      </trkpt>
      <trkpt lat="46.070752926170826" lon="8.828191738575697">
        <ele>940.13999999999999</ele>
        <time>2020-01-06T08:56:27Z</time>
      </trkpt>
      <trkpt lat="46.070752507075667" lon="8.828199952840805">
        <ele>940.00999999999999</ele>
        <time>2020-01-06T08:56:48Z</time>
      </trkpt>
      <trkpt lat="46.070758374407887" lon="8.828228954225779">
        <ele>940.12</ele>
        <time>2020-01-06T08:56:55Z</time>
      </trkpt>
      <trkpt lat="46.070757955312729" lon="8.828255021944642">
        <ele>940.44000000000005</ele>
        <time>2020-01-06T08:56:57Z</time>
      </trkpt>
      <trkpt lat="46.070774048566818" lon="8.828426599502564">
        <ele>941.78999999999996</ele>
        <time>2020-01-06T08:57:10Z</time>
      </trkpt>
      <trkpt lat="46.070790309458971" lon="8.82864092476666">
        <ele>943.01999999999998</ele>
        <time>2020-01-06T08:57:26Z</time>
      </trkpt>
      <trkpt lat="46.070831883698702" lon="8.828858267515898">
        <ele>945.12</ele>
        <time>2020-01-06T08:57:42Z</time>
      </trkpt>
      <trkpt lat="46.070857951417565" lon="8.829037053510547">
        <ele>946.51999999999998</ele>
        <time>2020-01-06T08:57:56Z</time>
      </trkpt>
      <trkpt lat="46.070893909782171" lon="8.829184910282493">
        <ele>947.21000000000004</ele>
        <time>2020-01-06T08:58:07Z</time>
      </trkpt>
      <trkpt lat="46.070963144302368" lon="8.829341903328896">
        <ele>949.17999999999995</ele>
        <time>2020-01-06T08:58:23Z</time>
      </trkpt>
      <trkpt lat="46.070983344689012" lon="8.829488921910524">
        <ele>951.38999999999999</ele>
        <time>2020-01-06T08:58:38Z</time>
      </trkpt>
      <trkpt lat="46.071047214791179" lon="8.829581290483475">
        <ele>953.83000000000004</ele>
        <time>2020-01-06T08:58:51Z</time>
      </trkpt>
      <trkpt lat="46.071121646091342" lon="8.829580955207348">
        <ele>956.03999999999996</ele>
        <time>2020-01-06T08:59:04Z</time>
      </trkpt>
      <trkpt lat="46.071156514808536" lon="8.82963283918798">
        <ele>957.59000000000003</ele>
        <time>2020-01-06T08:59:16Z</time>
      </trkpt>
      <trkpt lat="46.071141008287668" lon="8.829726548865438">
        <ele>959.25</ele>
        <time>2020-01-06T08:59:28Z</time>
      </trkpt>
      <trkpt lat="46.070983177050948" lon="8.829770972952247">
        <ele>961.01999999999998</ele>
        <time>2020-01-06T08:59:44Z</time>
      </trkpt>
      <trkpt lat="46.070872871205211" lon="8.829809613525868">
        <ele>962.77999999999997</ele>
        <time>2020-01-06T08:59:57Z</time>
      </trkpt>
      <trkpt lat="46.070828195661306" lon="8.82982830516994">
        <ele>964.91999999999996</ele>
        <time>2020-01-06T09:00:10Z</time>
      </trkpt>
      <trkpt lat="46.070784693583846" lon="8.829845823347569">
        <ele>966.66999999999996</ele>
        <time>2020-01-06T09:00:22Z</time>
      </trkpt>
      <trkpt lat="46.070725936442614" lon="8.829871891066432">
        <ele>969.02999999999997</ele>
        <time>2020-01-06T09:00:36Z</time>
      </trkpt>
      <trkpt lat="46.070679584518075" lon="8.829879686236382">
        <ele>970.77999999999997</ele>
        <time>2020-01-06T09:00:49Z</time>
      </trkpt>
      <trkpt lat="46.070613702759147" lon="8.829935593530536">
        <ele>972.62</ele>
        <time>2020-01-06T09:01:04Z</time>
      </trkpt>
      <trkpt lat="46.070519154891372" lon="8.82998077198863">
        <ele>974.96000000000004</ele>
        <time>2020-01-06T09:01:19Z</time>
      </trkpt>
      <trkpt lat="46.070467103272676" lon="8.830018071457744">
        <ele>976.88999999999999</ele>
        <time>2020-01-06T09:01:31Z</time>
      </trkpt>
      <trkpt lat="46.070443131029606" lon="8.830056125298142">
        <ele>978.86000000000001</ele>
        <time>2020-01-06T09:01:44Z</time>
      </trkpt>
      <trkpt lat="46.07042184099555" lon="8.83013709448278">
        <ele>980.63</ele>
        <time>2020-01-06T09:01:57Z</time>
      </trkpt>
      <trkpt lat="46.070390660315752" lon="8.830199958756566">
        <ele>982.55999999999995</ele>
        <time>2020-01-06T09:02:10Z</time>
      </trkpt>
      <trkpt lat="46.070379596203566" lon="8.830270366743207">
        <ele>983.60000000000002</ele>
        <time>2020-01-06T09:02:20Z</time>
      </trkpt>
      <trkpt lat="46.070373058319092" lon="8.830357370898128">
        <ele>983.85000000000002</ele>
        <time>2020-01-06T09:02:32Z</time>
      </trkpt>
      <trkpt lat="46.070348247885704" lon="8.830429371446371">
        <ele>986.46000000000004</ele>
        <time>2020-01-06T09:02:42Z</time>
      </trkpt>
      <trkpt lat="46.070361491292715" lon="8.830515369772911">
        <ele>987.96000000000004</ele>
        <time>2020-01-06T09:02:54Z</time>
      </trkpt>
      <trkpt lat="46.07037641108036" lon="8.830591225996614">
        <ele>989.71000000000004</ele>
        <time>2020-01-06T09:03:05Z</time>
      </trkpt>
      <trkpt lat="46.070389235392213" lon="8.830673284828663">
        <ele>990.63</ele>
        <time>2020-01-06T09:03:16Z</time>
      </trkpt>
      <trkpt lat="46.070386217907071" lon="8.830782249569893">
        <ele>992.14999999999998</ele>
        <time>2020-01-06T09:03:28Z</time>
      </trkpt>
      <trkpt lat="46.070386553183198" lon="8.830870175734162">
        <ele>993.09000000000003</ele>
        <time>2020-01-06T09:03:40Z</time>
      </trkpt>
      <trkpt lat="46.070407759398222" lon="8.83096874691546">
        <ele>994.5</ele>
        <time>2020-01-06T09:03:52Z</time>
      </trkpt>
      <trkpt lat="46.07044774107635" lon="8.831076119095087">
        <ele>996.51999999999998</ele>
        <time>2020-01-06T09:04:06Z</time>
      </trkpt>
      <trkpt lat="46.070472551509738" lon="8.831186257302761">
        <ele>997.71000000000004</ele>
        <time>2020-01-06T09:04:18Z</time>
      </trkpt>
      <trkpt lat="46.070455033332109" lon="8.831334533169866">
        <ele>998.64999999999998</ele>
        <time>2020-01-06T09:04:31Z</time>
      </trkpt>
      <trkpt lat="46.070445394143462" lon="8.831439055502415">
        <ele>999.11000000000001</ele>
        <time>2020-01-06T09:04:41Z</time>
      </trkpt>
      <trkpt lat="46.070444472134113" lon="8.831564616411924">
        <ele>999.63</ele>
        <time>2020-01-06T09:04:52Z</time>
      </trkpt>
      <trkpt lat="46.070447657257318" lon="8.831633096560836">
        <ele>999.85000000000002</ele>
        <time>2020-01-06T09:04:57Z</time>
      </trkpt>
      <trkpt lat="46.070462660863996" lon="8.831803500652313">
        <ele>1000.78</ele>
        <time>2020-01-06T09:05:12Z</time>
      </trkpt>
      <trkpt lat="46.070458050817251" lon="8.831982789561153">
        <ele>1001.78</ele>
        <time>2020-01-06T09:05:27Z</time>
      </trkpt>
      <trkpt lat="46.070506749674678" lon="8.832085719332099">
        <ele>1003.3</ele>
        <time>2020-01-06T09:05:40Z</time>
      </trkpt>
      <trkpt lat="46.070549916476011" lon="8.832149421796203">
        <ele>1004.89</ele>
        <time>2020-01-06T09:05:50Z</time>
      </trkpt>
      <trkpt lat="46.070588137954473" lon="8.83226458914578">
        <ele>1006.71</ele>
        <time>2020-01-06T09:06:03Z</time>
      </trkpt>
      <trkpt lat="46.07064463198185" lon="8.832397609949112">
        <ele>1008.11</ele>
        <time>2020-01-06T09:06:18Z</time>
      </trkpt>
      <trkpt lat="46.070676231756806" lon="8.83243172429502">
        <ele>1008.46</ele>
        <time>2020-01-06T09:06:23Z</time>
      </trkpt>
      <trkpt lat="46.070688217878342" lon="8.832456870004535">
        <ele>1008.39</ele>
        <time>2020-01-06T09:06:25Z</time>
      </trkpt>
      <trkpt lat="46.070658462122083" lon="8.832583352923393">
        <ele>1009.42</ele>
        <time>2020-01-06T09:06:37Z</time>
      </trkpt>
      <trkpt lat="46.07063440605998" lon="8.832699107006192">
        <ele>1011.6</ele>
        <time>2020-01-06T09:06:50Z</time>
      </trkpt>
      <trkpt lat="46.070628371089697" lon="8.83284947834909">
        <ele>1013.47</ele>
        <time>2020-01-06T09:07:03Z</time>
      </trkpt>
      <trkpt lat="46.070639099925756" lon="8.832970345392823">
        <ele>1014.87</ele>
        <time>2020-01-06T09:07:16Z</time>
      </trkpt>
      <trkpt lat="46.070631723850965" lon="8.833084590733051">
        <ele>1016.78</ele>
        <time>2020-01-06T09:07:30Z</time>
      </trkpt>
      <trkpt lat="46.070601381361485" lon="8.833194728940725">
        <ele>1018.85</ele>
        <time>2020-01-06T09:07:43Z</time>
      </trkpt>
      <trkpt lat="46.070538517087698" lon="8.833248876035214">
        <ele>1020.67</ele>
        <time>2020-01-06T09:07:57Z</time>
      </trkpt>
      <trkpt lat="46.070459140464664" lon="8.833262957632542">
        <ele>1022.54</ele>
        <time>2020-01-06T09:08:10Z</time>
      </trkpt>
      <trkpt lat="46.070465678349137" lon="8.833246864378452">
        <ele>1023.4400000000001</ele>
        <time>2020-01-06T09:08:21Z</time>
      </trkpt>
      <trkpt lat="46.070462157949805" lon="8.833249295130372">
        <ele>1021.01</ele>
        <time>2020-01-06T09:08:30Z</time>
      </trkpt>
      <trkpt lat="46.070455033332109" lon="8.833225658163428">
        <ele>1021.66</ele>
        <time>2020-01-06T09:08:48Z</time>
      </trkpt>
      <trkpt lat="46.070437012240291" lon="8.833193052560091">
        <ele>1022.75</ele>
        <time>2020-01-06T09:09:09Z</time>
      </trkpt>
      <trkpt lat="46.070440784096718" lon="8.833184167742729">
        <ele>1024.4300000000001</ele>
        <time>2020-01-06T09:09:17Z</time>
      </trkpt>
      <trkpt lat="46.07044380158186" lon="8.833188693970442">
        <ele>1022.9</ele>
        <time>2020-01-06T09:09:20Z</time>
      </trkpt>
      <trkpt lat="46.0704624094069" lon="8.833245355635881">
        <ele>1023.76</ele>
        <time>2020-01-06T09:09:31Z</time>
      </trkpt>
      <trkpt lat="46.07044531032443" lon="8.833407377824187">
        <ele>1026.5899999999999</ele>
        <time>2020-01-06T09:09:45Z</time>
      </trkpt>
      <trkpt lat="46.070399796590209" lon="8.833566131070256">
        <ele>1029.5</ele>
        <time>2020-01-06T09:09:58Z</time>
      </trkpt>
      <trkpt lat="46.070343973115087" lon="8.833683645352721">
        <ele>1032.3099999999999</ele>
        <time>2020-01-06T09:10:12Z</time>
      </trkpt>
      <trkpt lat="46.070282701402903" lon="8.833770817145705">
        <ele>1035.5</ele>
        <time>2020-01-06T09:10:25Z</time>
      </trkpt>
      <trkpt lat="46.070196200162172" lon="8.833850612863898">
        <ele>1038.1099999999999</ele>
        <time>2020-01-06T09:10:42Z</time>
      </trkpt>
      <trkpt lat="46.070133922621608" lon="8.833872070536017">
        <ele>1040.6800000000001</ele>
        <time>2020-01-06T09:10:55Z</time>
      </trkpt>
      <trkpt lat="46.070084972307086" lon="8.833861174061894">
        <ele>1043.24</ele>
        <time>2020-01-06T09:11:06Z</time>
      </trkpt>
      <trkpt lat="46.070070639252663" lon="8.833862682804465">
        <ele>1043.8199999999999</ele>
        <time>2020-01-06T09:11:18Z</time>
      </trkpt>
      <trkpt lat="46.070055216550827" lon="8.833865197375417">
        <ele>1044.0799999999999</ele>
        <time>2020-01-06T09:11:34Z</time>
      </trkpt>
      <trkpt lat="46.070054797455668" lon="8.833861257880926">
        <ele>1045.0799999999999</ele>
        <time>2020-01-06T09:11:40Z</time>
      </trkpt>
      <trkpt lat="46.070067202672362" lon="8.833838375285268">
        <ele>1044.1600000000001</ele>
        <time>2020-01-06T09:11:57Z</time>
      </trkpt>
      <trkpt lat="46.070068376138806" lon="8.833837537094951">
        <ele>1043.8099999999999</ele>
        <time>2020-01-06T09:12:15Z</time>
      </trkpt>
      <trkpt lat="46.070070387795568" lon="8.833840722218156">
        <ele>1043.8699999999999</ele>
        <time>2020-01-06T09:12:40Z</time>
      </trkpt>
      <trkpt lat="46.07007097452879" lon="8.833852289244533">
        <ele>1044.05</ele>
        <time>2020-01-06T09:12:54Z</time>
      </trkpt>
      <trkpt lat="46.070056641474366" lon="8.833910711109638">
        <ele>1043.6300000000001</ele>
        <time>2020-01-06T09:13:01Z</time>
      </trkpt>
      <trkpt lat="46.070008026435971" lon="8.834059406071901">
        <ele>1043.78</ele>
        <time>2020-01-06T09:13:12Z</time>
      </trkpt>
      <trkpt lat="46.069961506873369" lon="8.834182033315301">
        <ele>1044.21</ele>
        <time>2020-01-06T09:13:22Z</time>
      </trkpt>
      <trkpt lat="46.069954046979547" lon="8.83419225923717">
        <ele>1044.1900000000001</ele>
        <time>2020-01-06T09:13:23Z</time>
      </trkpt>
      <trkpt lat="46.069865114986897" lon="8.834347994998097">
        <ele>1044.3099999999999</ele>
        <time>2020-01-06T09:13:36Z</time>
      </trkpt>
      <trkpt lat="46.069788420572877" lon="8.834417900070548">
        <ele>1043.74</ele>
        <time>2020-01-06T09:13:46Z</time>
      </trkpt>
      <trkpt lat="46.069723460823298" lon="8.834449667483568">
        <ele>1043.6099999999999</ele>
        <time>2020-01-06T09:13:52Z</time>
      </trkpt>
      <trkpt lat="46.069542076438665" lon="8.834450589492917">
        <ele>1043.71</ele>
        <time>2020-01-06T09:14:07Z</time>
      </trkpt>
      <trkpt lat="46.069390531629324" lon="8.834479423239827">
        <ele>1044.52</ele>
        <time>2020-01-06T09:14:21Z</time>
      </trkpt>
      <trkpt lat="46.069365385919809" lon="8.834509011358023">
        <ele>1045.0699999999999</ele>
        <time>2020-01-06T09:14:33Z</time>
      </trkpt>
      <trkpt lat="46.069342503324151" lon="8.834552094340324">
        <ele>1045.21</ele>
        <time>2020-01-06T09:14:38Z</time>
      </trkpt>
      <trkpt lat="46.06932582333684" lon="8.834601296111941">
        <ele>1045.3099999999999</ele>
        <time>2020-01-06T09:14:42Z</time>
      </trkpt>
      <trkpt lat="46.069336049258709" lon="8.834789134562016">
        <ele>1045.9400000000001</ele>
        <time>2020-01-06T09:14:55Z</time>
      </trkpt>
      <trkpt lat="46.069376030936837" lon="8.835038244724274">
        <ele>1047.03</ele>
        <time>2020-01-06T09:15:13Z</time>
      </trkpt>
      <trkpt lat="46.069408217445016" lon="8.835202362388372">
        <ele>1047.1600000000001</ele>
        <time>2020-01-06T09:15:23Z</time>
      </trkpt>
      <trkpt lat="46.069440152496099" lon="8.835400929674506">
        <ele>1046.8800000000001</ele>
        <time>2020-01-06T09:15:37Z</time>
      </trkpt>
      <trkpt lat="46.069348705932498" lon="8.835499668493867">
        <ele>1048.8199999999999</ele>
        <time>2020-01-06T09:15:51Z</time>
      </trkpt>
      <trkpt lat="46.069250889122486" lon="8.835569992661476">
        <ele>1051.48</ele>
        <time>2020-01-06T09:16:06Z</time>
      </trkpt>
      <trkpt lat="46.069173775613308" lon="8.83567032404244">
        <ele>1054.0699999999999</ele>
        <time>2020-01-06T09:16:21Z</time>
      </trkpt>
      <trkpt lat="46.069156089797616" lon="8.835764201357961">
        <ele>1055.6900000000001</ele>
        <time>2020-01-06T09:16:33Z</time>
      </trkpt>
      <trkpt lat="46.069130357354879" lon="8.835848104208708">
        <ele>1058.49</ele>
        <time>2020-01-06T09:16:45Z</time>
      </trkpt>
      <trkpt lat="46.069090543314815" lon="8.83592002093792">
        <ele>1059.45</ele>
        <time>2020-01-06T09:16:56Z</time>
      </trkpt>
      <trkpt lat="46.068960959091783" lon="8.835899736732245">
        <ele>1060.98</ele>
        <time>2020-01-06T09:17:11Z</time>
      </trkpt>
      <trkpt lat="46.068846378475428" lon="8.835922116413713">
        <ele>1063.1800000000001</ele>
        <time>2020-01-06T09:17:26Z</time>
      </trkpt>
      <trkpt lat="46.068723080679774" lon="8.836004510521889">
        <ele>1066.0599999999999</ele>
        <time>2020-01-06T09:17:44Z</time>
      </trkpt>
      <trkpt lat="46.068679494783282" lon="8.836110038682818">
        <ele>1067.75</ele>
        <time>2020-01-06T09:17:57Z</time>
      </trkpt>
      <trkpt lat="46.068683601915836" lon="8.836284466087818">
        <ele>1069.4100000000001</ele>
        <time>2020-01-06T09:18:13Z</time>
      </trkpt>
      <trkpt lat="46.068719895556569" lon="8.836389491334558">
        <ele>1070.73</ele>
        <time>2020-01-06T09:18:25Z</time>
      </trkpt>
      <trkpt lat="46.068693911656737" lon="8.83651421405375">
        <ele>1072.3099999999999</ele>
        <time>2020-01-06T09:18:38Z</time>
      </trkpt>
      <trkpt lat="46.06864420697093" lon="8.836633739992976">
        <ele>1074.24</ele>
        <time>2020-01-06T09:18:50Z</time>
      </trkpt>
      <trkpt lat="46.068593412637711" lon="8.836728036403656">
        <ele>1075.52</ele>
        <time>2020-01-06T09:19:02Z</time>
      </trkpt>
      <trkpt lat="46.068598106503487" lon="8.836862901225686">
        <ele>1076.4000000000001</ele>
        <time>2020-01-06T09:19:15Z</time>
      </trkpt>
      <trkpt lat="46.068632388487458" lon="8.836994748562574">
        <ele>1076.97</ele>
        <time>2020-01-06T09:19:27Z</time>
      </trkpt>
      <trkpt lat="46.068699108436704" lon="8.837135564535856">
        <ele>1078.1800000000001</ele>
        <time>2020-01-06T09:19:44Z</time>
      </trkpt>
      <trkpt lat="46.068773875012994" lon="8.837241511791945">
        <ele>1079.95</ele>
        <time>2020-01-06T09:19:59Z</time>
      </trkpt>
      <trkpt lat="46.068901447579265" lon="8.837306722998619">
        <ele>1082.0599999999999</ele>
        <time>2020-01-06T09:20:16Z</time>
      </trkpt>
      <trkpt lat="46.068981913849711" lon="8.837380735203624">
        <ele>1083.5699999999999</ele>
        <time>2020-01-06T09:20:30Z</time>
      </trkpt>
      <trkpt lat="46.06908543035388" lon="8.837463548406959">
        <ele>1085.9300000000001</ele>
        <time>2020-01-06T09:20:48Z</time>
      </trkpt>
      <trkpt lat="46.069136895239353" lon="8.837564382702112">
        <ele>1088.3</ele>
        <time>2020-01-06T09:21:01Z</time>
      </trkpt>
      <trkpt lat="46.069204118102789" lon="8.837656751275063">
        <ele>1090.9400000000001</ele>
        <time>2020-01-06T09:21:19Z</time>
      </trkpt>
      <trkpt lat="46.069273771718144" lon="8.837740402668715">
        <ele>1093.21</ele>
        <time>2020-01-06T09:21:35Z</time>
      </trkpt>
      <trkpt lat="46.069311322644353" lon="8.837856827303767">
        <ele>1095.6700000000001</ele>
        <time>2020-01-06T09:21:51Z</time>
      </trkpt>
      <trkpt lat="46.069328086450696" lon="8.837982974946499">
        <ele>1096.8800000000001</ele>
        <time>2020-01-06T09:22:03Z</time>
      </trkpt>
      <trkpt lat="46.069293050095439" lon="8.838123707100749">
        <ele>1098.8199999999999</ele>
        <time>2020-01-06T09:22:18Z</time>
      </trkpt>
      <trkpt lat="46.069295648485422" lon="8.838254967704415">
        <ele>1101.51</ele>
        <time>2020-01-06T09:22:34Z</time>
      </trkpt>
      <trkpt lat="46.06930922716856" lon="8.838318921625614">
        <ele>1103.52</ele>
        <time>2020-01-06T09:22:45Z</time>
      </trkpt>
      <trkpt lat="46.069269245490432" lon="8.838396621868014">
        <ele>1105.6900000000001</ele>
        <time>2020-01-06T09:22:57Z</time>
      </trkpt>
      <trkpt lat="46.06924912892282" lon="8.83849460631609">
        <ele>1107.4300000000001</ele>
        <time>2020-01-06T09:23:11Z</time>
      </trkpt>
      <trkpt lat="46.069226833060384" lon="8.838577754795551">
        <ele>1108.75</ele>
        <time>2020-01-06T09:23:23Z</time>
      </trkpt>
      <trkpt lat="46.069230269640684" lon="8.838637601584196">
        <ele>1111.0899999999999</ele>
        <time>2020-01-06T09:23:39Z</time>
      </trkpt>
      <trkpt lat="46.069244686514139" lon="8.838686300441623">
        <ele>1113.1300000000001</ele>
        <time>2020-01-06T09:23:50Z</time>
      </trkpt>
      <trkpt lat="46.069182408973575" lon="8.838745476678014">
        <ele>1114.53</ele>
        <time>2020-01-06T09:24:01Z</time>
      </trkpt>
      <trkpt lat="46.069159358739853" lon="8.838897105306387">
        <ele>1115.8599999999999</ele>
        <time>2020-01-06T09:24:15Z</time>
      </trkpt>
      <trkpt lat="46.069117113947868" lon="8.839041776955128">
        <ele>1117.25</ele>
        <time>2020-01-06T09:24:28Z</time>
      </trkpt>
      <trkpt lat="46.069073947146535" lon="8.839183179661632">
        <ele>1119.1099999999999</ele>
        <time>2020-01-06T09:24:42Z</time>
      </trkpt>
      <trkpt lat="46.069029774516821" lon="8.839302370324731">
        <ele>1120.47</ele>
        <time>2020-01-06T09:24:54Z</time>
      </trkpt>
      <trkpt lat="46.06898576952517" lon="8.839387027546763">
        <ele>1121.95</ele>
        <time>2020-01-06T09:25:05Z</time>
      </trkpt>
      <trkpt lat="46.068917289376259" lon="8.839483084157109">
        <ele>1124.3299999999999</ele>
        <time>2020-01-06T09:25:21Z</time>
      </trkpt>
      <trkpt lat="46.068881079554558" lon="8.839568244293332">
        <ele>1126.8599999999999</ele>
        <time>2020-01-06T09:25:36Z</time>
      </trkpt>
      <trkpt lat="46.068849647417665" lon="8.839669078588486">
        <ele>1128.6900000000001</ele>
        <time>2020-01-06T09:25:52Z</time>
      </trkpt>
      <trkpt lat="46.068819975480437" lon="8.839771840721369">
        <ele>1130.72</ele>
        <time>2020-01-06T09:26:07Z</time>
      </trkpt>
      <trkpt lat="46.068787956610322" lon="8.839870076626539">
        <ele>1132.8199999999999</ele>
        <time>2020-01-06T09:26:21Z</time>
      </trkpt>
      <trkpt lat="46.06877856887877" lon="8.839978035539389">
        <ele>1134.0999999999999</ele>
        <time>2020-01-06T09:26:35Z</time>
      </trkpt>
      <trkpt lat="46.068805223330855" lon="8.840056071057916">
        <ele>1135.96</ele>
        <time>2020-01-06T09:26:46Z</time>
      </trkpt>
      <trkpt lat="46.06883816421032" lon="8.840147517621517">
        <ele>1137.9400000000001</ele>
        <time>2020-01-06T09:27:03Z</time>
      </trkpt>
      <trkpt lat="46.068880073726177" lon="8.840237874537706">
        <ele>1139.9000000000001</ele>
        <time>2020-01-06T09:27:16Z</time>
      </trkpt>
      <trkpt lat="46.068935226649046" lon="8.840327225625515">
        <ele>1141.8299999999999</ele>
        <time>2020-01-06T09:27:29Z</time>
      </trkpt>
      <trkpt lat="46.068992894142866" lon="8.84043350815773">
        <ele>1143.8599999999999</ele>
        <time>2020-01-06T09:27:43Z</time>
      </trkpt>
      <trkpt lat="46.069049220532179" lon="8.840465191751719">
        <ele>1146.27</ele>
        <time>2020-01-06T09:27:56Z</time>
      </trkpt>
      <trkpt lat="46.069101691246033" lon="8.840515315532684">
        <ele>1148.23</ele>
        <time>2020-01-06T09:28:08Z</time>
      </trkpt>
      <trkpt lat="46.06917385943234" lon="8.840578012168407">
        <ele>1149.74</ele>
        <time>2020-01-06T09:28:22Z</time>
      </trkpt>
      <trkpt lat="46.069254074245691" lon="8.840616317465901">
        <ele>1151.96</ele>
        <time>2020-01-06T09:28:36Z</time>
      </trkpt>
      <trkpt lat="46.069338396191597" lon="8.840628387406468">
        <ele>1154.1600000000001</ele>
        <time>2020-01-06T09:28:52Z</time>
      </trkpt>
      <trkpt lat="46.069399667903781" lon="8.840658646076918">
        <ele>1155.6199999999999</ele>
        <time>2020-01-06T09:29:03Z</time>
      </trkpt>
      <trkpt lat="46.069469572976232" lon="8.840693514794111">
        <ele>1157.5599999999999</ele>
        <time>2020-01-06T09:29:18Z</time>
      </trkpt>
      <trkpt lat="46.069556241855025" lon="8.84073450230062">
        <ele>1159.1199999999999</ele>
        <time>2020-01-06T09:29:33Z</time>
      </trkpt>
      <trkpt lat="46.069658836349845" lon="8.840796025469899">
        <ele>1161.26</ele>
        <time>2020-01-06T09:29:48Z</time>
      </trkpt>
      <trkpt lat="46.069731842726469" lon="8.840835001319647">
        <ele>1163.1400000000001</ele>
        <time>2020-01-06T09:30:01Z</time>
      </trkpt>
      <trkpt lat="46.06981155462563" lon="8.84085419587791">
        <ele>1164.9200000000001</ele>
        <time>2020-01-06T09:30:15Z</time>
      </trkpt>
      <trkpt lat="46.069879783317447" lon="8.840885125100613">
        <ele>1166.78</ele>
        <time>2020-01-06T09:30:29Z</time>
      </trkpt>
      <trkpt lat="46.069928482174873" lon="8.840888813138008">
        <ele>1168.52</ele>
        <time>2020-01-06T09:30:41Z</time>
      </trkpt>
      <trkpt lat="46.069987742230296" lon="8.840926950797439">
        <ele>1170.73</ele>
        <time>2020-01-06T09:30:55Z</time>
      </trkpt>
      <trkpt lat="46.070034597069025" lon="8.840975733473897">
        <ele>1173.3199999999999</ele>
        <time>2020-01-06T09:31:10Z</time>
      </trkpt>
      <trkpt lat="46.070069968700409" lon="8.841031556949019">
        <ele>1175.3299999999999</ele>
        <time>2020-01-06T09:31:23Z</time>
      </trkpt>
      <trkpt lat="46.070104502141476" lon="8.841117806732655">
        <ele>1177.9100000000001</ele>
        <time>2020-01-06T09:31:40Z</time>
      </trkpt>
      <trkpt lat="46.07012621127069" lon="8.841217383742333">
        <ele>1180.22</ele>
        <time>2020-01-06T09:31:55Z</time>
      </trkpt>
      <trkpt lat="46.070167031139135" lon="8.841301538050175">
        <ele>1182.48</ele>
        <time>2020-01-06T09:32:08Z</time>
      </trkpt>
      <trkpt lat="46.070194104686379" lon="8.841429864987731">
        <ele>1184.6400000000001</ele>
        <time>2020-01-06T09:32:24Z</time>
      </trkpt>
      <trkpt lat="46.070237271487713" lon="8.841509157791734">
        <ele>1186.52</ele>
        <time>2020-01-06T09:32:38Z</time>
      </trkpt>
      <trkpt lat="46.070253280922771" lon="8.841598257422447">
        <ele>1188.1199999999999</ele>
        <time>2020-01-06T09:32:50Z</time>
      </trkpt>
      <trkpt lat="46.070250179618597" lon="8.841700349003077">
        <ele>1190.3199999999999</ele>
        <time>2020-01-06T09:33:03Z</time>
      </trkpt>
      <trkpt lat="46.070282617583871" lon="8.841736977919936">
        <ele>1191.45</ele>
        <time>2020-01-06T09:33:17Z</time>
      </trkpt>
      <trkpt lat="46.070288233458996" lon="8.841800093650818">
        <ele>1192.03</ele>
        <time>2020-01-06T09:33:31Z</time>
      </trkpt>
      <trkpt lat="46.070310277864337" lon="8.841870333999395">
        <ele>1193.98</ele>
        <time>2020-01-06T09:33:43Z</time>
      </trkpt>
      <trkpt lat="46.070303656160831" lon="8.841959433630109">
        <ele>1196.05</ele>
        <time>2020-01-06T09:33:57Z</time>
      </trkpt>
      <trkpt lat="46.070293262600899" lon="8.84205624461174">
        <ele>1197.71</ele>
        <time>2020-01-06T09:34:13Z</time>
      </trkpt>
      <trkpt lat="46.070299046114087" lon="8.842186499387026">
        <ele>1200.03</ele>
        <time>2020-01-06T09:34:27Z</time>
      </trkpt>
      <trkpt lat="46.070309104397893" lon="8.842234946787357">
        <ele>1201.0699999999999</ele>
        <time>2020-01-06T09:34:39Z</time>
      </trkpt>
      <trkpt lat="46.070314720273018" lon="8.842320777475834">
        <ele>1202.8399999999999</ele>
        <time>2020-01-06T09:34:52Z</time>
      </trkpt>
      <trkpt lat="46.070331232622266" lon="8.842383390292525">
        <ele>1205.5899999999999</ele>
        <time>2020-01-06T09:35:07Z</time>
      </trkpt>
      <trkpt lat="46.070359814912081" lon="8.842381127178669">
        <ele>1207.24</ele>
        <time>2020-01-06T09:35:18Z</time>
      </trkpt>
      <trkpt lat="46.070388397201896" lon="8.842383557930589">
        <ele>1209.51</ele>
        <time>2020-01-06T09:35:31Z</time>
      </trkpt>
      <trkpt lat="46.070386134088039" lon="8.842445584014058">
        <ele>1211.76</ele>
        <time>2020-01-06T09:35:46Z</time>
      </trkpt>
      <trkpt lat="46.070371130481362" lon="8.842530660331249">
        <ele>1213.8499999999999</ele>
        <time>2020-01-06T09:35:59Z</time>
      </trkpt>
      <trkpt lat="46.070365011692047" lon="8.842643396928906">
        <ele>1214.27</ele>
        <time>2020-01-06T09:36:10Z</time>
      </trkpt>
      <trkpt lat="46.070401640608907" lon="8.842767030000687">
        <ele>1215.6099999999999</ele>
        <time>2020-01-06T09:36:23Z</time>
      </trkpt>
      <trkpt lat="46.070433491840959" lon="8.842861829325557">
        <ele>1217.25</ele>
        <time>2020-01-06T09:36:38Z</time>
      </trkpt>
      <trkpt lat="46.070448160171509" lon="8.842937601730228">
        <ele>1218.99</ele>
        <time>2020-01-06T09:36:51Z</time>
      </trkpt>
      <trkpt lat="46.070483112707734" lon="8.843015553429723">
        <ele>1220.27</ele>
        <time>2020-01-06T09:37:04Z</time>
      </trkpt>
      <trkpt lat="46.070530889555812" lon="8.843098701909185">
        <ele>1222.5</ele>
        <time>2020-01-06T09:37:21Z</time>
      </trkpt>
      <trkpt lat="46.07058160007" lon="8.843205571174622">
        <ele>1224.1800000000001</ele>
        <time>2020-01-06T09:37:34Z</time>
      </trkpt>
      <trkpt lat="46.070633651688695" lon="8.843289474025369">
        <ele>1225.97</ele>
        <time>2020-01-06T09:37:49Z</time>
      </trkpt>
      <trkpt lat="46.070672627538443" lon="8.843396008014679">
        <ele>1227.3</ele>
        <time>2020-01-06T09:38:03Z</time>
      </trkpt>
      <trkpt lat="46.070647649466991" lon="8.843520563095808">
        <ele>1228.3399999999999</ele>
        <time>2020-01-06T09:38:17Z</time>
      </trkpt>
      <trkpt lat="46.070671454071999" lon="8.843613769859076">
        <ele>1230</ele>
        <time>2020-01-06T09:38:31Z</time>
      </trkpt>
      <trkpt lat="46.070708585903049" lon="8.843627516180277">
        <ele>1232.0599999999999</ele>
        <time>2020-01-06T09:38:48Z</time>
      </trkpt>
      <trkpt lat="46.07073163613677" lon="8.843580577522516">
        <ele>1234.01</ele>
        <time>2020-01-06T09:39:00Z</time>
      </trkpt>
      <trkpt lat="46.070758542045951" lon="8.843595664948225">
        <ele>1235.71</ele>
        <time>2020-01-06T09:39:11Z</time>
      </trkpt>
      <trkpt lat="46.07079952955246" lon="8.843667078763247">
        <ele>1237.4400000000001</ele>
        <time>2020-01-06T09:39:23Z</time>
      </trkpt>
      <trkpt lat="46.07084596529603" lon="8.843729859218001">
        <ele>1239.6700000000001</ele>
        <time>2020-01-06T09:39:35Z</time>
      </trkpt>
      <trkpt lat="46.070882175117731" lon="8.843749305233359">
        <ele>1241.26</ele>
        <time>2020-01-06T09:39:49Z</time>
      </trkpt>
      <trkpt lat="46.07088259421289" lon="8.843689793720841">
        <ele>1242.51</ele>
        <time>2020-01-06T09:40:01Z</time>
      </trkpt>
      <trkpt lat="46.070892149582505" lon="8.843638999387622">
        <ele>1243.8800000000001</ele>
        <time>2020-01-06T09:40:12Z</time>
      </trkpt>
      <trkpt lat="46.070905476808548" lon="8.843581918627024">
        <ele>1245.8800000000001</ele>
        <time>2020-01-06T09:40:25Z</time>
      </trkpt>
      <trkpt lat="46.070944871753454" lon="8.843536069616675">
        <ele>1248.0899999999999</ele>
        <time>2020-01-06T09:40:39Z</time>
      </trkpt>
      <trkpt lat="46.070989798754454" lon="8.843516036868095">
        <ele>1249.3499999999999</ele>
        <time>2020-01-06T09:40:52Z</time>
      </trkpt>
      <trkpt lat="46.071018045768142" lon="8.843583427369595">
        <ele>1251.4000000000001</ele>
        <time>2020-01-06T09:41:06Z</time>
      </trkpt>
      <trkpt lat="46.07104922644794" lon="8.84356657974422">
        <ele>1252.8299999999999</ele>
        <time>2020-01-06T09:41:19Z</time>
      </trkpt>
      <trkpt lat="46.07108342461288" lon="8.843543361872435">
        <ele>1254.45</ele>
        <time>2020-01-06T09:41:31Z</time>
      </trkpt>
      <trkpt lat="46.071123573929071" lon="8.843436073511839">
        <ele>1257</ele>
        <time>2020-01-06T09:41:44Z</time>
      </trkpt>
      <trkpt lat="46.071119382977486" lon="8.843353092670441">
        <ele>1259.1600000000001</ele>
        <time>2020-01-06T09:41:59Z</time>
      </trkpt>
      <trkpt lat="46.071162633597851" lon="8.843359043821693">
        <ele>1260.78</ele>
        <time>2020-01-06T09:42:10Z</time>
      </trkpt>
      <trkpt lat="46.071233293041587" lon="8.843397181481123">
        <ele>1262.26</ele>
        <time>2020-01-06T09:42:22Z</time>
      </trkpt>
      <trkpt lat="46.071264473721385" lon="8.843468930572271">
        <ele>1264.1600000000001</ele>
        <time>2020-01-06T09:42:35Z</time>
      </trkpt>
      <trkpt lat="46.071270508691669" lon="8.84352307766676">
        <ele>1265.8599999999999</ele>
        <time>2020-01-06T09:42:47Z</time>
      </trkpt>
      <trkpt lat="46.071264557540417" lon="8.843587785959244">
        <ele>1267.23</ele>
        <time>2020-01-06T09:42:58Z</time>
      </trkpt>
      <trkpt lat="46.071279142051935" lon="8.843668000772595">
        <ele>1269.05</ele>
        <time>2020-01-06T09:43:10Z</time>
      </trkpt>
      <trkpt lat="46.071324571967125" lon="8.843624833971262">
        <ele>1270.9000000000001</ele>
        <time>2020-01-06T09:43:23Z</time>
      </trkpt>
      <trkpt lat="46.071352818980813" lon="8.843647800385952">
        <ele>1272.9400000000001</ele>
        <time>2020-01-06T09:43:36Z</time>
      </trkpt>
      <trkpt lat="46.071383664384484" lon="8.843724746257067">
        <ele>1275.2</ele>
        <time>2020-01-06T09:43:51Z</time>
      </trkpt>
      <trkpt lat="46.07143621891737" lon="8.843802781775594">
        <ele>1277.24</ele>
        <time>2020-01-06T09:44:07Z</time>
      </trkpt>
      <trkpt lat="46.071464801207185" lon="8.843791214749217">
        <ele>1278.45</ele>
        <time>2020-01-06T09:44:19Z</time>
      </trkpt>
      <trkpt lat="46.071465974673629" lon="8.843753160908818">
        <ele>1279.1700000000001</ele>
        <time>2020-01-06T09:44:31Z</time>
      </trkpt>
      <trkpt lat="46.071458263322711" lon="8.843763889744878">
        <ele>1278.99</ele>
        <time>2020-01-06T09:44:45Z</time>
      </trkpt>
      <trkpt lat="46.071461280807853" lon="8.843721393495798">
        <ele>1279.22</ele>
        <time>2020-01-06T09:44:57Z</time>
      </trkpt>
      <trkpt lat="46.071501011028886" lon="8.84361200965941">
        <ele>1281.46</ele>
        <time>2020-01-06T09:45:11Z</time>
      </trkpt>
      <trkpt lat="46.071549877524376" lon="8.843519054353237">
        <ele>1283.9000000000001</ele>
        <time>2020-01-06T09:45:26Z</time>
      </trkpt>
      <trkpt lat="46.071588769555092" lon="8.843528106808662">
        <ele>1285.99</ele>
        <time>2020-01-06T09:45:39Z</time>
      </trkpt>
      <trkpt lat="46.0716263204813" lon="8.843594323843718">
        <ele>1288.21</ele>
        <time>2020-01-06T09:45:52Z</time>
      </trkpt>
      <trkpt lat="46.071657836437225" lon="8.843685854226351">
        <ele>1290.9400000000001</ele>
        <time>2020-01-06T09:46:07Z</time>
      </trkpt>
      <trkpt lat="46.071688011288643" lon="8.843770427629352">
        <ele>1292.78</ele>
        <time>2020-01-06T09:46:21Z</time>
      </trkpt>
      <trkpt lat="46.071708463132381" lon="8.843739498406649">
        <ele>1294.22</ele>
        <time>2020-01-06T09:46:34Z</time>
      </trkpt>
      <trkpt lat="46.071705864742398" lon="8.843714185059071">
        <ele>1294.5799999999999</ele>
        <time>2020-01-06T09:46:46Z</time>
      </trkpt>
      <trkpt lat="46.071744421496987" lon="8.843663893640041">
        <ele>1295.8599999999999</ele>
        <time>2020-01-06T09:47:01Z</time>
      </trkpt>
      <trkpt lat="46.071780463680625" lon="8.843494495376945">
        <ele>1298.9300000000001</ele>
        <time>2020-01-06T09:47:17Z</time>
      </trkpt>
      <trkpt lat="46.071818517521024" lon="8.843384692445397">
        <ele>1300.47</ele>
        <time>2020-01-06T09:47:30Z</time>
      </trkpt>
      <trkpt lat="46.071819104254246" lon="8.843313362449408">
        <ele>1302.3399999999999</ele>
        <time>2020-01-06T09:47:42Z</time>
      </trkpt>
      <trkpt lat="46.071806196123362" lon="8.843244714662433">
        <ele>1303.97</ele>
        <time>2020-01-06T09:47:56Z</time>
      </trkpt>
      <trkpt lat="46.071812231093645" lon="8.843181515112519">
        <ele>1304.8499999999999</ele>
        <time>2020-01-06T09:48:08Z</time>
      </trkpt>
      <trkpt lat="46.071824133396149" lon="8.843047907575965">
        <ele>1307.0799999999999</ele>
        <time>2020-01-06T09:48:22Z</time>
      </trkpt>
      <trkpt lat="46.071804687380791" lon="8.842910695821047">
        <ele>1308.9200000000001</ele>
        <time>2020-01-06T09:48:36Z</time>
      </trkpt>
      <trkpt lat="46.071814158931375" lon="8.84284095838666">
        <ele>1310.3900000000001</ele>
        <time>2020-01-06T09:48:49Z</time>
      </trkpt>
      <trkpt lat="46.071826564148068" lon="8.842777591198683">
        <ele>1312.1700000000001</ele>
        <time>2020-01-06T09:49:00Z</time>
      </trkpt>
      <trkpt lat="46.071826396510005" lon="8.842696622014046">
        <ele>1313.98</ele>
        <time>2020-01-06T09:49:12Z</time>
      </trkpt>
      <trkpt lat="46.07183787971735" lon="8.842554464936256">
        <ele>1316.9100000000001</ele>
        <time>2020-01-06T09:49:29Z</time>
      </trkpt>
      <trkpt lat="46.071854894980788" lon="8.842462431639433">
        <ele>1319.74</ele>
        <time>2020-01-06T09:49:43Z</time>
      </trkpt>
      <trkpt lat="46.071871742606163" lon="8.84235137142241">
        <ele>1321.5699999999999</ele>
        <time>2020-01-06T09:49:57Z</time>
      </trkpt>
      <trkpt lat="46.07185740955174" lon="8.84218473918736">
        <ele>1322.98</ele>
        <time>2020-01-06T09:50:14Z</time>
      </trkpt>
      <trkpt lat="46.071880795061588" lon="8.842113073915243">
        <ele>1324.48</ele>
        <time>2020-01-06T09:50:28Z</time>
      </trkpt>
      <trkpt lat="46.071938462555408" lon="8.84213981218636">
        <ele>1326.53</ele>
        <time>2020-01-06T09:50:41Z</time>
      </trkpt>
      <trkpt lat="46.071974420920014" lon="8.842195719480515">
        <ele>1328.04</ele>
        <time>2020-01-06T09:50:54Z</time>
      </trkpt>
      <trkpt lat="46.072026556357741" lon="8.842299403622747">
        <ele>1329.9300000000001</ele>
        <time>2020-01-06T09:51:07Z</time>
      </trkpt>
      <trkpt lat="46.072092270478606" lon="8.842410296201706">
        <ele>1331.3399999999999</ele>
        <time>2020-01-06T09:51:22Z</time>
      </trkpt>
      <trkpt lat="46.072155386209488" lon="8.842501072213054">
        <ele>1333.6800000000001</ele>
        <time>2020-01-06T09:51:38Z</time>
      </trkpt>
      <trkpt lat="46.072186818346381" lon="8.842551279813051">
        <ele>1335.22</ele>
        <time>2020-01-06T09:51:51Z</time>
      </trkpt>
      <trkpt lat="46.072193859145045" lon="8.842556057497859">
        <ele>1334.9000000000001</ele>
        <time>2020-01-06T09:52:13Z</time>
      </trkpt>
      <trkpt lat="46.072203749790788" lon="8.842586986720562">
        <ele>1335.28</ele>
        <time>2020-01-06T09:52:26Z</time>
      </trkpt>
      <trkpt lat="46.072222189977765" lon="8.84262696839869">
        <ele>1336.3</ele>
        <time>2020-01-06T09:52:37Z</time>
      </trkpt>
      <trkpt lat="46.072271224111319" lon="8.842717912048101">
        <ele>1337.1800000000001</ele>
        <time>2020-01-06T09:52:55Z</time>
      </trkpt>
      <trkpt lat="46.07236317358911" lon="8.842895943671465">
        <ele>1340.1800000000001</ele>
        <time>2020-01-06T09:53:12Z</time>
      </trkpt>
      <trkpt lat="46.072434419766068" lon="8.843010943382978">
        <ele>1342.6099999999999</ele>
        <time>2020-01-06T09:53:27Z</time>
      </trkpt>
      <trkpt lat="46.072482448071241" lon="8.843038519844413">
        <ele>1345.0999999999999</ele>
        <time>2020-01-06T09:53:40Z</time>
      </trkpt>
      <trkpt lat="46.072498289868236" lon="8.842966686934233">
        <ele>1346.74</ele>
        <time>2020-01-06T09:53:52Z</time>
      </trkpt>
      <trkpt lat="46.072509773075581" lon="8.842999543994665">
        <ele>1346.73</ele>
        <time>2020-01-06T09:54:09Z</time>
      </trkpt>
      <trkpt lat="46.072531817480922" lon="8.843043968081474">
        <ele>1348.1600000000001</ele>
        <time>2020-01-06T09:54:21Z</time>
      </trkpt>
      <trkpt lat="46.072529470548034" lon="8.843054613098502">
        <ele>1348.0699999999999</ele>
        <time>2020-01-06T09:54:54Z</time>
      </trkpt>
      <trkpt lat="46.072540283203125" lon="8.843055786564946">
        <ele>1347.78</ele>
        <time>2020-01-06T09:55:23Z</time>
      </trkpt>
      <trkpt lat="46.072576828300953" lon="8.843189813196659">
        <ele>1349.4300000000001</ele>
        <time>2020-01-06T09:55:39Z</time>
      </trkpt>
      <trkpt lat="46.07260993681848" lon="8.843339765444398">
        <ele>1351.5899999999999</ele>
        <time>2020-01-06T09:55:56Z</time>
      </trkpt>
      <trkpt lat="46.072670286521316" lon="8.843497596681118">
        <ele>1354.1500000000001</ele>
        <time>2020-01-06T09:56:16Z</time>
      </trkpt>
      <trkpt lat="46.072728205472231" lon="8.843609998002648">
        <ele>1355.8599999999999</ele>
        <time>2020-01-06T09:56:32Z</time>
      </trkpt>
      <trkpt lat="46.072778329253197" lon="8.843705635517836">
        <ele>1358.51</ele>
        <time>2020-01-06T09:56:47Z</time>
      </trkpt>
      <trkpt lat="46.072810515761375" lon="8.843809235841036">
        <ele>1360.6800000000001</ele>
        <time>2020-01-06T09:57:01Z</time>
      </trkpt>
      <trkpt lat="46.072873212397099" lon="8.843891127035022">
        <ele>1362.6900000000001</ele>
        <time>2020-01-06T09:57:15Z</time>
      </trkpt>
      <trkpt lat="46.072909673675895" lon="8.843974946066737">
        <ele>1364.29</ele>
        <time>2020-01-06T09:57:27Z</time>
      </trkpt>
      <trkpt lat="46.072943788021803" lon="8.844128251075745">
        <ele>1365.5699999999999</ele>
        <time>2020-01-06T09:57:43Z</time>
      </trkpt>
      <trkpt lat="46.072963988408446" lon="8.844171166419983">
        <ele>1366.6700000000001</ele>
        <time>2020-01-06T09:57:55Z</time>
      </trkpt>
      <trkpt lat="46.072961892932653" lon="8.844165802001953">
        <ele>1365.8399999999999</ele>
        <time>2020-01-06T09:58:08Z</time>
      </trkpt>
      <trkpt lat="46.072959210723639" lon="8.844169657677412">
        <ele>1364.75</ele>
        <time>2020-01-06T09:58:28Z</time>
      </trkpt>
      <trkpt lat="46.072954852133989" lon="8.844167310744524">
        <ele>1365.2</ele>
        <time>2020-01-06T09:59:21Z</time>
      </trkpt>
      <trkpt lat="46.072951080277562" lon="8.844170831143856">
        <ele>1365.3099999999999</ele>
        <time>2020-01-06T09:59:58Z</time>
      </trkpt>
      <trkpt lat="46.072952086105943" lon="8.844172675162554">
        <ele>1365.3599999999999</ele>
        <time>2020-01-06T10:00:46Z</time>
      </trkpt>
      <trkpt lat="46.072942782193422" lon="8.844187008216977">
        <ele>1365.5599999999999</ele>
        <time>2020-01-06T10:01:10Z</time>
      </trkpt>
      <trkpt lat="46.072950242087245" lon="8.844192707911134">
        <ele>1366.1800000000001</ele>
        <time>2020-01-06T10:01:26Z</time>
      </trkpt>
      <trkpt lat="46.07295342721045" lon="8.844189438968897">
        <ele>1366.45</ele>
        <time>2020-01-06T10:01:48Z</time>
      </trkpt>
      <trkpt lat="46.07295292429626" lon="8.844183990731835">
        <ele>1366.3099999999999</ele>
        <time>2020-01-06T10:02:03Z</time>
      </trkpt>
      <trkpt lat="46.072958875447512" lon="8.844191450625658">
        <ele>1366.26</ele>
        <time>2020-01-06T10:02:20Z</time>
      </trkpt>
      <trkpt lat="46.072967257350683" lon="8.844190193340182">
        <ele>1366.05</ele>
        <time>2020-01-06T10:03:17Z</time>
      </trkpt>
      <trkpt lat="46.072959797456861" lon="8.844187846407294">
        <ele>1366.27</ele>
        <time>2020-01-06T10:04:07Z</time>
      </trkpt>
      <trkpt lat="46.072971532121301" lon="8.844187930226326">
        <ele>1366.7</ele>
        <time>2020-01-06T10:05:02Z</time>
      </trkpt>
      <trkpt lat="46.072953511029482" lon="8.844181224703789">
        <ele>1367.1300000000001</ele>
        <time>2020-01-06T10:05:58Z</time>
      </trkpt>
      <trkpt lat="46.072958204895258" lon="8.844191702082753">
        <ele>1367.5799999999999</ele>
        <time>2020-01-06T10:06:47Z</time>
      </trkpt>
      <trkpt lat="46.072951499372721" lon="8.844175944104791">
        <ele>1368.1500000000001</ele>
        <time>2020-01-06T10:07:09Z</time>
      </trkpt>
      <trkpt lat="46.072955187410116" lon="8.844175692647696">
        <ele>1368.55</ele>
        <time>2020-01-06T10:07:28Z</time>
      </trkpt>
      <trkpt lat="46.073000198230147" lon="8.844224391505122">
        <ele>1369.6700000000001</ele>
        <time>2020-01-06T10:07:39Z</time>
      </trkpt>
      <trkpt lat="46.073052501305938" lon="8.844321956858039">
        <ele>1372.1099999999999</ele>
        <time>2020-01-06T10:07:51Z</time>
      </trkpt>
      <trkpt lat="46.073055267333984" lon="8.844357328489423">
        <ele>1372.76</ele>
        <time>2020-01-06T10:07:54Z</time>
      </trkpt>
      <trkpt lat="46.073032971471548" lon="8.844463275745511">
        <ele>1373.53</ele>
        <time>2020-01-06T10:08:04Z</time>
      </trkpt>
      <trkpt lat="46.073025092482567" lon="8.844555141404271">
        <ele>1375.8399999999999</ele>
        <time>2020-01-06T10:08:13Z</time>
      </trkpt>
      <trkpt lat="46.072988295927644" lon="8.844623537734151">
        <ele>1375.5</ele>
        <time>2020-01-06T10:08:19Z</time>
      </trkpt>
      <trkpt lat="46.072957953438163" lon="8.844739878550172">
        <ele>1378.51</ele>
        <time>2020-01-06T10:08:32Z</time>
      </trkpt>
      <trkpt lat="46.072922078892589" lon="8.844821266829968">
        <ele>1381.3900000000001</ele>
        <time>2020-01-06T10:08:44Z</time>
      </trkpt>
      <trkpt lat="46.072857705876231" lon="8.844890501350164">
        <ele>1383.1199999999999</ele>
        <time>2020-01-06T10:08:56Z</time>
      </trkpt>
      <trkpt lat="46.07281906530261" lon="8.845067778602243">
        <ele>1384.95</ele>
        <time>2020-01-06T10:09:11Z</time>
      </trkpt>
      <trkpt lat="46.072816802188754" lon="8.845078507438302">
        <ele>1385.27</ele>
        <time>2020-01-06T10:09:12Z</time>
      </trkpt>
      <trkpt lat="46.072768187150359" lon="8.845282606780529">
        <ele>1386</ele>
        <time>2020-01-06T10:09:26Z</time>
      </trkpt>
      <trkpt lat="46.072748070582747" lon="8.845467092469335">
        <ele>1389.1400000000001</ele>
        <time>2020-01-06T10:09:42Z</time>
      </trkpt>
      <trkpt lat="46.072740443050861" lon="8.845586953684688">
        <ele>1391.3800000000001</ele>
        <time>2020-01-06T10:09:55Z</time>
      </trkpt>
      <trkpt lat="46.072748405858874" lon="8.845689548179507">
        <ele>1392.55</ele>
        <time>2020-01-06T10:10:08Z</time>
      </trkpt>
      <trkpt lat="46.072772545740008" lon="8.845810666680336">
        <ele>1393.53</ele>
        <time>2020-01-06T10:10:19Z</time>
      </trkpt>
      <trkpt lat="46.072766426950693" lon="8.845849223434925">
        <ele>1394.6700000000001</ele>
        <time>2020-01-06T10:10:31Z</time>
      </trkpt>
      <trkpt lat="46.072753351181746" lon="8.845905214548111">
        <ele>1395.4000000000001</ele>
        <time>2020-01-06T10:10:47Z</time>
      </trkpt>
      <trkpt lat="46.072718063369393" lon="8.845954835414887">
        <ele>1397.6600000000001</ele>
        <time>2020-01-06T10:10:59Z</time>
      </trkpt>
      <trkpt lat="46.072681602090597" lon="8.846014849841595">
        <ele>1400.4200000000001</ele>
        <time>2020-01-06T10:11:10Z</time>
      </trkpt>
      <trkpt lat="46.072652097791433" lon="8.8460698351264">
        <ele>1402.7</ele>
        <time>2020-01-06T10:11:22Z</time>
      </trkpt>
      <trkpt lat="46.072614630684257" lon="8.846123144030571">
        <ele>1405.8800000000001</ele>
        <time>2020-01-06T10:11:34Z</time>
      </trkpt>
      <trkpt lat="46.072556544095278" lon="8.846153486520052">
        <ele>1408.3800000000001</ele>
        <time>2020-01-06T10:11:48Z</time>
      </trkpt>
      <trkpt lat="46.072514383122325" lon="8.846132783219218">
        <ele>1409.3199999999999</ele>
        <time>2020-01-06T10:11:54Z</time>
      </trkpt>
      <trkpt lat="46.072491500526667" lon="8.846198916435242">
        <ele>1408.77</ele>
        <time>2020-01-06T10:12:06Z</time>
      </trkpt>
      <trkpt lat="46.072481945157051" lon="8.846209393814206">
        <ele>1408.4000000000001</ele>
        <time>2020-01-06T10:12:21Z</time>
      </trkpt>
      <trkpt lat="46.072463588789105" lon="8.846258595585823">
        <ele>1408.24</ele>
        <time>2020-01-06T10:12:25Z</time>
      </trkpt>
      <trkpt lat="46.072420170530677" lon="8.846452971920371">
        <ele>1405.0999999999999</ele>
        <time>2020-01-06T10:12:40Z</time>
      </trkpt>
      <trkpt lat="46.072415560483932" lon="8.846462862566114">
        <ele>1404.75</ele>
        <time>2020-01-06T10:12:41Z</time>
      </trkpt>
      <trkpt lat="46.072354121133685" lon="8.846661848947406">
        <ele>1402.45</ele>
        <time>2020-01-06T10:12:56Z</time>
      </trkpt>
      <trkpt lat="46.072342554107308" lon="8.846764108166099">
        <ele>1402.3299999999999</ele>
        <time>2020-01-06T10:13:09Z</time>
      </trkpt>
      <trkpt lat="46.072305925190449" lon="8.846852034330368">
        <ele>1403.3800000000001</ele>
        <time>2020-01-06T10:13:19Z</time>
      </trkpt>
      <trkpt lat="46.072234427556396" lon="8.84692688472569">
        <ele>1405.5799999999999</ele>
        <time>2020-01-06T10:13:33Z</time>
      </trkpt>
      <trkpt lat="46.072167456150055" lon="8.846943648532033">
        <ele>1407.54</ele>
        <time>2020-01-06T10:13:48Z</time>
      </trkpt>
      <trkpt lat="46.072139795869589" lon="8.846943648532033">
        <ele>1406.78</ele>
        <time>2020-01-06T10:13:55Z</time>
      </trkpt>
      <trkpt lat="46.07207827270031" lon="8.846987737342715">
        <ele>1406.4000000000001</ele>
        <time>2020-01-06T10:14:01Z</time>
      </trkpt>
      <trkpt lat="46.071969894692302" lon="8.84712528437376">
        <ele>1408.27</ele>
        <time>2020-01-06T10:14:18Z</time>
      </trkpt>
      <trkpt lat="46.071899067610502" lon="8.847231650725007">
        <ele>1410.2</ele>
        <time>2020-01-06T10:14:33Z</time>
      </trkpt>
      <trkpt lat="46.07186327688396" lon="8.847272051498294">
        <ele>1412</ele>
        <time>2020-01-06T10:14:42Z</time>
      </trkpt>
      <trkpt lat="46.071783062070608" lon="8.847295520827174">
        <ele>1413.5799999999999</ele>
        <time>2020-01-06T10:14:54Z</time>
      </trkpt>
      <trkpt lat="46.071677366271615" lon="8.847314044833183">
        <ele>1416.4100000000001</ele>
        <time>2020-01-06T10:15:09Z</time>
      </trkpt>
      <trkpt lat="46.071583740413189" lon="8.847311614081264">
        <ele>1418.6700000000001</ele>
        <time>2020-01-06T10:15:24Z</time>
      </trkpt>
      <trkpt lat="46.071511656045914" lon="8.847277415916324">
        <ele>1420.24</ele>
        <time>2020-01-06T10:15:35Z</time>
      </trkpt>
      <trkpt lat="46.071433452889323" lon="8.84725327603519">
        <ele>1422.0899999999999</ele>
        <time>2020-01-06T10:15:48Z</time>
      </trkpt>
      <trkpt lat="46.071390537545085" lon="8.84734220802784">
        <ele>1423.97</ele>
        <time>2020-01-06T10:16:02Z</time>
      </trkpt>
      <trkpt lat="46.071427166461945" lon="8.847371460869908">
        <ele>1426.55</ele>
        <time>2020-01-06T10:16:15Z</time>
      </trkpt>
      <trkpt lat="46.071457173675299" lon="8.84740624576807">
        <ele>1426.6800000000001</ele>
        <time>2020-01-06T10:16:26Z</time>
      </trkpt>
      <trkpt lat="46.071520540863276" lon="8.847447065636516">
        <ele>1429.3199999999999</ele>
        <time>2020-01-06T10:16:38Z</time>
      </trkpt>
      <trkpt lat="46.07153738848865" lon="8.847536835819483">
        <ele>1431.8499999999999</ele>
        <time>2020-01-06T10:16:51Z</time>
      </trkpt>
      <trkpt lat="46.071577118709683" lon="8.847549073398113">
        <ele>1433.73</ele>
        <time>2020-01-06T10:17:03Z</time>
      </trkpt>
      <trkpt lat="46.071603018790483" lon="8.847585618495941">
        <ele>1436.03</ele>
        <time>2020-01-06T10:17:14Z</time>
      </trkpt>
      <trkpt lat="46.071640904992819" lon="8.847646471112967">
        <ele>1438.79</ele>
        <time>2020-01-06T10:17:28Z</time>
      </trkpt>
      <trkpt lat="46.071684826165438" lon="8.847660385072231">
        <ele>1440.46</ele>
        <time>2020-01-06T10:17:40Z</time>
      </trkpt>
      <trkpt lat="46.07169178314507" lon="8.847709503024817">
        <ele>1442.46</ele>
        <time>2020-01-06T10:17:53Z</time>
      </trkpt>
      <trkpt lat="46.071720700711012" lon="8.847740348428488">
        <ele>1444.5599999999999</ele>
        <time>2020-01-06T10:18:04Z</time>
      </trkpt>
      <trkpt lat="46.071739392355084" lon="8.847780330106616">
        <ele>1446.73</ele>
        <time>2020-01-06T10:18:14Z</time>
      </trkpt>
      <trkpt lat="46.071778703480959" lon="8.847798770293593">
        <ele>1449.21</ele>
        <time>2020-01-06T10:18:26Z</time>
      </trkpt>
      <trkpt lat="46.071847770363092" lon="8.847866076976061">
        <ele>1451.9000000000001</ele>
        <time>2020-01-06T10:18:44Z</time>
      </trkpt>
      <trkpt lat="46.071899989619851" lon="8.847941011190414">
        <ele>1454.6600000000001</ele>
        <time>2020-01-06T10:18:56Z</time>
      </trkpt>
      <trkpt lat="46.071948856115341" lon="8.848053244873881">
        <ele>1456.6700000000001</ele>
        <time>2020-01-06T10:19:11Z</time>
      </trkpt>
      <trkpt lat="46.071994118392467" lon="8.848169753327966">
        <ele>1459.1300000000001</ele>
        <time>2020-01-06T10:19:26Z</time>
      </trkpt>
      <trkpt lat="46.072026137262583" lon="8.848166735842824">
        <ele>1460.6199999999999</ele>
        <time>2020-01-06T10:19:38Z</time>
      </trkpt>
      <trkpt lat="46.072073578834534" lon="8.848083755001426">
        <ele>1463.45</ele>
        <time>2020-01-06T10:19:53Z</time>
      </trkpt>
      <trkpt lat="46.072112722322345" lon="8.848156174644828">
        <ele>1465.3599999999999</ele>
        <time>2020-01-06T10:20:04Z</time>
      </trkpt>
      <trkpt lat="46.07216720469296" lon="8.848242005333304">
        <ele>1467.1700000000001</ele>
        <time>2020-01-06T10:20:17Z</time>
      </trkpt>
      <trkpt lat="46.072186315432191" lon="8.84816262871027">
        <ele>1469.3499999999999</ele>
        <time>2020-01-06T10:20:29Z</time>
      </trkpt>
      <trkpt lat="46.072222944349051" lon="8.848069924861193">
        <ele>1471.76</ele>
        <time>2020-01-06T10:20:43Z</time>
      </trkpt>
      <trkpt lat="46.072270050644875" lon="8.847995577380061">
        <ele>1474.3</ele>
        <time>2020-01-06T10:20:58Z</time>
      </trkpt>
      <trkpt lat="46.072314977645874" lon="8.847973197698593">
        <ele>1476.73</ele>
        <time>2020-01-06T10:21:10Z</time>
      </trkpt>
      <trkpt lat="46.07237046584487" lon="8.847977723926306">
        <ele>1479.0599999999999</ele>
        <time>2020-01-06T10:21:23Z</time>
      </trkpt>
      <trkpt lat="46.072414135560393" lon="8.848023489117622">
        <ele>1481.1199999999999</ele>
        <time>2020-01-06T10:21:36Z</time>
      </trkpt>
      <trkpt lat="46.072483789175749" lon="8.848056178539991">
        <ele>1484.1900000000001</ele>
        <time>2020-01-06T10:21:51Z</time>
      </trkpt>
      <trkpt lat="46.072548162192106" lon="8.848102111369371">
        <ele>1486.8800000000001</ele>
        <time>2020-01-06T10:22:05Z</time>
      </trkpt>
      <trkpt lat="46.072618486359715" lon="8.848167741671205">
        <ele>1488.9400000000001</ele>
        <time>2020-01-06T10:22:20Z</time>
      </trkpt>
      <trkpt lat="46.072695851325989" lon="8.848261116072536">
        <ele>1490.5</ele>
        <time>2020-01-06T10:22:35Z</time>
      </trkpt>
      <trkpt lat="46.072779251262546" lon="8.848362453281879">
        <ele>1493.3900000000001</ele>
        <time>2020-01-06T10:22:51Z</time>
      </trkpt>
      <trkpt lat="46.072855945676565" lon="8.848423473536968">
        <ele>1495.4100000000001</ele>
        <time>2020-01-06T10:23:05Z</time>
      </trkpt>
      <trkpt lat="46.072928113862872" lon="8.848512321710587">
        <ele>1498.21</ele>
        <time>2020-01-06T10:23:19Z</time>
      </trkpt>
      <trkpt lat="46.073021739721298" lon="8.848593374714255">
        <ele>1501.1300000000001</ele>
        <time>2020-01-06T10:23:35Z</time>
      </trkpt>
      <trkpt lat="46.073070438578725" lon="8.848613658919931">
        <ele>1502.79</ele>
        <time>2020-01-06T10:23:46Z</time>
      </trkpt>
      <trkpt lat="46.073152916505933" lon="8.848687000572681">
        <ele>1505.49</ele>
        <time>2020-01-06T10:24:02Z</time>
      </trkpt>
      <trkpt lat="46.073222234845161" lon="8.848722372204065">
        <ele>1508.2</ele>
        <time>2020-01-06T10:24:17Z</time>
      </trkpt>
      <trkpt lat="46.073246458545327" lon="8.848742404952645">
        <ele>1508.4200000000001</ele>
        <time>2020-01-06T10:24:28Z</time>
      </trkpt>
      <trkpt lat="46.073276465758681" lon="8.848771909251809">
        <ele>1508.1700000000001</ele>
        <time>2020-01-06T10:24:47Z</time>
      </trkpt>
      <trkpt lat="46.073307814076543" lon="8.848804514855146">
        <ele>1507.99</ele>
        <time>2020-01-06T10:24:59Z</time>
      </trkpt>
      <trkpt lat="46.073295911774039" lon="8.848798731341958">
        <ele>1507.5999999999999</ele>
        <time>2020-01-06T10:25:09Z</time>
      </trkpt>
      <trkpt lat="46.073312591761351" lon="8.848822200670838">
        <ele>1507.6900000000001</ele>
        <time>2020-01-06T10:25:19Z</time>
      </trkpt>
      <trkpt lat="46.073331534862518" lon="8.848852459341288">
        <ele>1507.8499999999999</ele>
        <time>2020-01-06T10:25:31Z</time>
      </trkpt>
      <trkpt lat="46.073332875967026" lon="8.848855644464493">
        <ele>1507.5899999999999</ele>
        <time>2020-01-06T10:25:56Z</time>
      </trkpt>
      <trkpt lat="46.07336581684649" lon="8.848844077438116">
        <ele>1507.95</ele>
        <time>2020-01-06T10:26:07Z</time>
      </trkpt>
      <trkpt lat="46.073363302275538" lon="8.848845334723592">
        <ele>1507.0699999999999</ele>
        <time>2020-01-06T10:26:15Z</time>
      </trkpt>
      <trkpt lat="46.073354249820113" lon="8.848843239247799">
        <ele>1506.74</ele>
        <time>2020-01-06T10:26:40Z</time>
      </trkpt>
      <trkpt lat="46.073353411629796" lon="8.848837120458484">
        <ele>1506.9100000000001</ele>
        <time>2020-01-06T10:27:03Z</time>
      </trkpt>
      <trkpt lat="46.073353495448828" lon="8.848838293924928">
        <ele>1506.75</ele>
        <time>2020-01-06T10:27:40Z</time>
      </trkpt>
      <trkpt lat="46.073353663086891" lon="8.848851369693875">
        <ele>1506.79</ele>
        <time>2020-01-06T10:28:33Z</time>
      </trkpt>
      <trkpt lat="46.073345448821783" lon="8.848864194005728">
        <ele>1506.8900000000001</ele>
        <time>2020-01-06T10:28:56Z</time>
      </trkpt>
      <trkpt lat="46.073361458256841" lon="8.848839132115245">
        <ele>1506.5</ele>
        <time>2020-01-06T10:29:51Z</time>
      </trkpt>
      <trkpt lat="46.073365230113268" lon="8.848842401057482">
        <ele>1506.6600000000001</ele>
        <time>2020-01-06T10:30:31Z</time>
      </trkpt>
      <trkpt lat="46.07336045242846" lon="8.848842652514577">
        <ele>1506.54</ele>
        <time>2020-01-06T10:31:09Z</time>
      </trkpt>
      <trkpt lat="46.073358943685889" lon="8.848847514018416">
        <ele>1506.3</ele>
        <time>2020-01-06T10:31:54Z</time>
      </trkpt>
      <trkpt lat="46.073352489620447" lon="8.848846759647131">
        <ele>1506</ele>
        <time>2020-01-06T10:32:26Z</time>
      </trkpt>
      <trkpt lat="46.073348801583052" lon="8.848840557038784">
        <ele>1506.1400000000001</ele>
        <time>2020-01-06T10:32:51Z</time>
      </trkpt>
      <trkpt lat="46.073359027504921" lon="8.848849106580019">
        <ele>1505.9100000000001</ele>
        <time>2020-01-06T10:33:17Z</time>
      </trkpt>
      <trkpt lat="46.073355758562684" lon="8.848860338330269">
        <ele>1505.74</ele>
        <time>2020-01-06T10:33:55Z</time>
      </trkpt>
      <trkpt lat="46.073346706107259" lon="8.848850363865495">
        <ele>1505.75</ele>
        <time>2020-01-06T10:34:22Z</time>
      </trkpt>
      <trkpt lat="46.073349723592401" lon="8.84885648265481">
        <ele>1505.48</ele>
        <time>2020-01-06T10:34:44Z</time>
      </trkpt>
      <trkpt lat="46.073348801583052" lon="8.848845167085528">
        <ele>1505.95</ele>
        <time>2020-01-06T10:35:07Z</time>
      </trkpt>
      <trkpt lat="46.073343520984054" lon="8.848836030811071">
        <ele>1505.8399999999999</ele>
        <time>2020-01-06T10:35:29Z</time>
      </trkpt>
      <trkpt lat="46.073339246213436" lon="8.848844077438116">
        <ele>1505.8699999999999</ele>
        <time>2020-01-06T10:35:54Z</time>
      </trkpt>
      <trkpt lat="46.073352573439479" lon="8.848840221762657">
        <ele>1505.5899999999999</ele>
        <time>2020-01-06T10:36:17Z</time>
      </trkpt>
      <trkpt lat="46.073353411629796" lon="8.848849190399051">
        <ele>1505.4100000000001</ele>
        <time>2020-01-06T10:36:47Z</time>
      </trkpt>
      <trkpt lat="46.073361290618777" lon="8.84885941632092">
        <ele>1505.24</ele>
        <time>2020-01-06T10:37:10Z</time>
      </trkpt>
      <trkpt lat="46.073362966999412" lon="8.848855560645461">
        <ele>1505.24</ele>
        <time>2020-01-06T10:37:51Z</time>
      </trkpt>
      <trkpt lat="46.073357770219445" lon="8.848850363865495">
        <ele>1505.1400000000001</ele>
        <time>2020-01-06T10:38:19Z</time>
      </trkpt>
      <trkpt lat="46.073354668915272" lon="8.84883695282042">
        <ele>1505.3299999999999</ele>
        <time>2020-01-06T10:38:42Z</time>
      </trkpt>
      <trkpt lat="46.073350897058845" lon="8.848844664171338">
        <ele>1504.98</ele>
        <time>2020-01-06T10:39:07Z</time>
      </trkpt>
      <trkpt lat="46.073345700278878" lon="8.848844077438116">
        <ele>1505.04</ele>
        <time>2020-01-06T10:39:51Z</time>
      </trkpt>
      <trkpt lat="46.073344275355339" lon="8.848833600059152">
        <ele>1504.51</ele>
        <time>2020-01-06T10:40:38Z</time>
      </trkpt>
      <trkpt lat="46.073341676965356" lon="8.848830834031105">
        <ele>1504.6300000000001</ele>
        <time>2020-01-06T10:41:13Z</time>
      </trkpt>
      <trkpt lat="46.073339078575373" lon="8.84882178157568">
        <ele>1504.3599999999999</ele>
        <time>2020-01-06T10:41:57Z</time>
      </trkpt>
      <trkpt lat="46.073339162394404" lon="8.848818177357316">
        <ele>1504.28</ele>
        <time>2020-01-06T10:42:20Z</time>
      </trkpt>
      <trkpt lat="46.073321476578712" lon="8.848820189014077">
        <ele>1503.8900000000001</ele>
        <time>2020-01-06T10:42:48Z</time>
      </trkpt>
      <trkpt lat="46.073337234556675" lon="8.848820943385363">
        <ele>1503.78</ele>
        <time>2020-01-06T10:43:11Z</time>
      </trkpt>
      <trkpt lat="46.073317620903254" lon="8.84879294782877">
        <ele>1504</ele>
        <time>2020-01-06T10:43:37Z</time>
      </trkpt>
      <trkpt lat="46.073315944522619" lon="8.848797054961324">
        <ele>1503.8199999999999</ele>
        <time>2020-01-06T10:44:00Z</time>
      </trkpt>
      <trkpt lat="46.073316698893905" lon="8.8488017488271">
        <ele>1503.76</ele>
        <time>2020-01-06T10:44:23Z</time>
      </trkpt>
      <trkpt lat="46.073319464921951" lon="8.848805520683527">
        <ele>1503.5599999999999</ele>
        <time>2020-01-06T10:44:52Z</time>
      </trkpt>
      <trkpt lat="46.073326673358679" lon="8.848813734948635">
        <ele>1503.73</ele>
        <time>2020-01-06T10:45:23Z</time>
      </trkpt>
      <trkpt lat="46.073333881795406" lon="8.848833851516247">
        <ele>1503.45</ele>
        <time>2020-01-06T10:45:57Z</time>
      </trkpt>
      <trkpt lat="46.073343018069863" lon="8.848847430199385">
        <ele>1503.3399999999999</ele>
        <time>2020-01-06T10:46:21Z</time>
      </trkpt>
      <trkpt lat="46.073344359174371" lon="8.848863271996379">
        <ele>1503.3800000000001</ele>
        <time>2020-01-06T10:46:44Z</time>
      </trkpt>
      <trkpt lat="46.073332959786057" lon="8.84885405190289">
        <ele>1503.1199999999999</ele>
        <time>2020-01-06T10:47:04Z</time>
      </trkpt>
      <trkpt lat="46.073341341689229" lon="8.84886771440506">
        <ele>1503.0599999999999</ele>
        <time>2020-01-06T10:47:24Z</time>
      </trkpt>
      <trkpt lat="46.073341006413102" lon="8.848863355815411">
        <ele>1502.8199999999999</ele>
        <time>2020-01-06T10:47:46Z</time>
      </trkpt>
      <trkpt lat="46.073346370831132" lon="8.848877102136612">
        <ele>1503.01</ele>
        <time>2020-01-06T10:48:10Z</time>
      </trkpt>
      <trkpt lat="46.07333991676569" lon="8.848857823759317">
        <ele>1502.6600000000001</ele>
        <time>2020-01-06T10:48:34Z</time>
      </trkpt>
      <trkpt lat="46.073336899280548" lon="8.848849944770336">
        <ele>1502.3599999999999</ele>
        <time>2020-01-06T10:49:05Z</time>
      </trkpt>
      <trkpt lat="46.07333748601377" lon="8.848844915628433">
        <ele>1502.3499999999999</ele>
        <time>2020-01-06T10:49:36Z</time>
      </trkpt>
      <trkpt lat="46.073342934250832" lon="8.848860673606396">
        <ele>1502.47</ele>
        <time>2020-01-06T10:50:00Z</time>
      </trkpt>
      <trkpt lat="46.073341676965356" lon="8.848855225369334">
        <ele>1502.28</ele>
        <time>2020-01-06T10:50:25Z</time>
      </trkpt>
      <trkpt lat="46.073347376659513" lon="8.848864948377013">
        <ele>1501.9200000000001</ele>
        <time>2020-01-06T10:50:48Z</time>
      </trkpt>
      <trkpt lat="46.073351735249162" lon="8.848856315016747">
        <ele>1501.6199999999999</ele>
        <time>2020-01-06T10:51:14Z</time>
      </trkpt>
      <trkpt lat="46.073358105495572" lon="8.848842987790704">
        <ele>1501.6800000000001</ele>
        <time>2020-01-06T10:52:03Z</time>
      </trkpt>
      <trkpt lat="46.073357267305255" lon="8.848846843466163">
        <ele>1501.3399999999999</ele>
        <time>2020-01-06T10:52:57Z</time>
      </trkpt>
      <trkpt lat="46.073355926200747" lon="8.84884525090456">
        <ele>1501.04</ele>
        <time>2020-01-06T10:53:31Z</time>
      </trkpt>
      <trkpt lat="46.073359614238143" lon="8.848846759647131">
        <ele>1500.98</ele>
        <time>2020-01-06T10:54:15Z</time>
      </trkpt>
      <trkpt lat="46.073351986706257" lon="8.848846172913909">
        <ele>1500.74</ele>
        <time>2020-01-06T10:54:48Z</time>
      </trkpt>
      <trkpt lat="46.07334922067821" lon="8.848871402442455">
        <ele>1500.76</ele>
        <time>2020-01-06T10:55:21Z</time>
      </trkpt>
      <trkpt lat="46.073348382487893" lon="8.848852710798383">
        <ele>1500.74</ele>
        <time>2020-01-06T10:55:51Z</time>
      </trkpt>
      <trkpt lat="46.073354920372367" lon="8.848848771303892">
        <ele>1500.5999999999999</ele>
        <time>2020-01-06T10:56:40Z</time>
      </trkpt>
      <trkpt lat="46.073353998363018" lon="8.848855644464493">
        <ele>1500.5999999999999</ele>
        <time>2020-01-06T10:57:09Z</time>
      </trkpt>
      <trkpt lat="46.07335802167654" lon="8.848867546766996">
        <ele>1500.3599999999999</ele>
        <time>2020-01-06T10:57:32Z</time>
      </trkpt>
      <trkpt lat="46.073374198749661" lon="8.848865367472172">
        <ele>1500.29</ele>
        <time>2020-01-06T10:58:12Z</time>
      </trkpt>
      <trkpt lat="46.073376880958676" lon="8.848850196227431">
        <ele>1499.9400000000001</ele>
        <time>2020-01-06T10:58:41Z</time>
      </trkpt>
      <trkpt lat="46.073374953120947" lon="8.848853381350637">
        <ele>1499.71</ele>
        <time>2020-01-06T10:59:14Z</time>
      </trkpt>
      <trkpt lat="46.073371432721615" lon="8.848837036639452">
        <ele>1499.5899999999999</ele>
        <time>2020-01-06T10:59:44Z</time>
      </trkpt>
      <trkpt lat="46.073368331417441" lon="8.848823374137282">
        <ele>1499.53</ele>
        <time>2020-01-06T11:00:04Z</time>
      </trkpt>
      <trkpt lat="46.073366487398744" lon="8.848827732726932">
        <ele>1499.4400000000001</ele>
        <time>2020-01-06T11:00:44Z</time>
      </trkpt>
      <trkpt lat="46.073366906493902" lon="8.848836785182357">
        <ele>1499.27</ele>
        <time>2020-01-06T11:01:34Z</time>
      </trkpt>
      <trkpt lat="46.073370426893234" lon="8.848847346380353">
        <ele>1498.8699999999999</ele>
        <time>2020-01-06T11:02:26Z</time>
      </trkpt>
      <trkpt lat="46.073373025283217" lon="8.848856315016747">
        <ele>1498.5999999999999</ele>
        <time>2020-01-06T11:03:13Z</time>
      </trkpt>
      <trkpt lat="46.07336388900876" lon="8.848848016932607">
        <ele>1498.45</ele>
        <time>2020-01-06T11:03:42Z</time>
      </trkpt>
      <trkpt lat="46.07335701584816" lon="8.848828990012407">
        <ele>1498.53</ele>
        <time>2020-01-06T11:04:06Z</time>
      </trkpt>
      <trkpt lat="46.073367325589061" lon="8.848839467391372">
        <ele>1498.3599999999999</ele>
        <time>2020-01-06T11:04:46Z</time>
      </trkpt>
      <trkpt lat="46.073365062475204" lon="8.848825804889202">
        <ele>1498.0899999999999</ele>
        <time>2020-01-06T11:05:27Z</time>
      </trkpt>
      <trkpt lat="46.073361458256841" lon="8.848815998062491">
        <ele>1497.96</ele>
        <time>2020-01-06T11:06:05Z</time>
      </trkpt>
      <trkpt lat="46.073378724977374" lon="8.848813232034445">
        <ele>1498</ele>
        <time>2020-01-06T11:06:29Z</time>
      </trkpt>
      <trkpt lat="46.073371265083551" lon="8.848810298368335">
        <ele>1497.9300000000001</ele>
        <time>2020-01-06T11:06:49Z</time>
      </trkpt>
      <trkpt lat="46.073365565389395" lon="8.848823290318251">
        <ele>1497.9200000000001</ele>
        <time>2020-01-06T11:07:09Z</time>
      </trkpt>
      <trkpt lat="46.073367325589061" lon="8.848845334723592">
        <ele>1497.8</ele>
        <time>2020-01-06T11:07:49Z</time>
      </trkpt>
      <trkpt lat="46.073365481570363" lon="8.84884717874229">
        <ele>1497.9000000000001</ele>
        <time>2020-01-06T11:08:19Z</time>
      </trkpt>
      <trkpt lat="46.073366068303585" lon="8.84883058257401">
        <ele>1497.6199999999999</ele>
        <time>2020-01-06T11:08:44Z</time>
      </trkpt>
      <trkpt lat="46.073364475741982" lon="8.848847430199385">
        <ele>1497.49</ele>
        <time>2020-01-06T11:09:30Z</time>
      </trkpt>
      <trkpt lat="46.073372522369027" lon="8.848861427977681">
        <ele>1497.6700000000001</ele>
        <time>2020-01-06T11:10:09Z</time>
      </trkpt>
      <trkpt lat="46.07337947934866" lon="8.848855895921588">
        <ele>1497.6600000000001</ele>
        <time>2020-01-06T11:10:47Z</time>
      </trkpt>
      <trkpt lat="46.073372522369027" lon="8.848869642242789">
        <ele>1497.48</ele>
        <time>2020-01-06T11:11:07Z</time>
      </trkpt>
      <trkpt lat="46.073369085788727" lon="8.84886427782476">
        <ele>1497.5699999999999</ele>
        <time>2020-01-06T11:11:30Z</time>
      </trkpt>
      <trkpt lat="46.073347963392735" lon="8.848840557038784">
        <ele>1497.3800000000001</ele>
        <time>2020-01-06T11:11:55Z</time>
      </trkpt>
      <trkpt lat="46.0733238235116" lon="8.848806275054812">
        <ele>1497.1600000000001</ele>
        <time>2020-01-06T11:12:16Z</time>
      </trkpt>
      <trkpt lat="46.073328349739313" lon="8.848814992234111">
        <ele>1497.3800000000001</ele>
        <time>2020-01-06T11:12:35Z</time>
      </trkpt>
      <trkpt lat="46.073304126039147" lon="8.848836785182357">
        <ele>1497.45</ele>
        <time>2020-01-06T11:12:58Z</time>
      </trkpt>
      <trkpt lat="46.073313932865858" lon="8.848835108801723">
        <ele>1497.4300000000001</ele>
        <time>2020-01-06T11:13:19Z</time>
      </trkpt>
      <trkpt lat="46.073335222899914" lon="8.848821194842458">
        <ele>1497.21</ele>
        <time>2020-01-06T11:13:41Z</time>
      </trkpt>
      <trkpt lat="46.073360368609428" lon="8.848802503198385">
        <ele>1497.1099999999999</ele>
        <time>2020-01-06T11:14:05Z</time>
      </trkpt>
      <trkpt lat="46.07336338609457" lon="8.848810968920589">
        <ele>1497.1900000000001</ele>
        <time>2020-01-06T11:14:26Z</time>
      </trkpt>
      <trkpt lat="46.073353327810764" lon="8.848851453512907">
        <ele>1496.97</ele>
        <time>2020-01-06T11:14:52Z</time>
      </trkpt>
      <trkpt lat="46.07336238026619" lon="8.848855728283525">
        <ele>1497.1199999999999</ele>
        <time>2020-01-06T11:15:14Z</time>
      </trkpt>
      <trkpt lat="46.073362631723285" lon="8.848850280046463">
        <ele>1497.26</ele>
        <time>2020-01-06T11:15:43Z</time>
      </trkpt>
      <trkpt lat="46.07335114851594" lon="8.848858075216413">
        <ele>1497.1500000000001</ele>
        <time>2020-01-06T11:16:18Z</time>
      </trkpt>
      <trkpt lat="46.073347292840481" lon="8.848857153207064">
        <ele>1497.0599999999999</ele>
        <time>2020-01-06T11:16:47Z</time>
      </trkpt>
      <trkpt lat="46.073343604803085" lon="8.848856147378683">
        <ele>1497.03</ele>
        <time>2020-01-06T11:17:08Z</time>
      </trkpt>
      <trkpt lat="46.073357099667192" lon="8.848864026367664">
        <ele>1496.98</ele>
        <time>2020-01-06T11:17:28Z</time>
      </trkpt>
      <trkpt lat="46.073358189314604" lon="8.848842903971672">
        <ele>1497.0999999999999</ele>
        <time>2020-01-06T11:18:02Z</time>
      </trkpt>
      <trkpt lat="46.073356093838811" lon="8.848847346380353">
        <ele>1496.8699999999999</ele>
        <time>2020-01-06T11:18:26Z</time>
      </trkpt>
      <trkpt lat="46.073373276740313" lon="8.848851537331939">
        <ele>1497.0799999999999</ele>
        <time>2020-01-06T11:18:50Z</time>
      </trkpt>
      <trkpt lat="46.073376461863518" lon="8.848854387179017">
        <ele>1497.04</ele>
        <time>2020-01-06T11:19:14Z</time>
      </trkpt>
      <trkpt lat="46.073373528197408" lon="8.84886427782476">
        <ele>1496.96</ele>
        <time>2020-01-06T11:19:35Z</time>
      </trkpt>
      <trkpt lat="46.07336338609457" lon="8.848863858729601">
        <ele>1497.1600000000001</ele>
        <time>2020-01-06T11:20:15Z</time>
      </trkpt>
      <trkpt lat="46.073361625894904" lon="8.848850447684526">
        <ele>1496.5999999999999</ele>
        <time>2020-01-06T11:20:40Z</time>
      </trkpt>
      <trkpt lat="46.073352573439479" lon="8.848849358037114">
        <ele>1496.8099999999999</ele>
        <time>2020-01-06T11:21:08Z</time>
      </trkpt>
      <trkpt lat="46.073351064696908" lon="8.848840808495879">
        <ele>1496.8900000000001</ele>
        <time>2020-01-06T11:21:42Z</time>
      </trkpt>
      <trkpt lat="46.073355926200747" lon="8.848868301138282">
        <ele>1496.73</ele>
        <time>2020-01-06T11:22:06Z</time>
      </trkpt>
      <trkpt lat="46.073350477963686" lon="8.848872156813741">
        <ele>1496.75</ele>
        <time>2020-01-06T11:22:46Z</time>
      </trkpt>
      <trkpt lat="46.073338324204087" lon="8.848863858729601">
        <ele>1496.98</ele>
        <time>2020-01-06T11:23:16Z</time>
      </trkpt>
      <trkpt lat="46.073341090232134" lon="8.848876347765327">
        <ele>1497.2</ele>
        <time>2020-01-06T11:23:38Z</time>
      </trkpt>
      <trkpt lat="46.073319800198078" lon="8.848876431584358">
        <ele>1496.9000000000001</ele>
        <time>2020-01-06T11:24:13Z</time>
      </trkpt>
      <trkpt lat="46.073325332254171" lon="8.848877353593707">
        <ele>1497.25</ele>
        <time>2020-01-06T11:24:48Z</time>
      </trkpt>
      <trkpt lat="46.073333378881216" lon="8.848861008882523">
        <ele>1497.04</ele>
        <time>2020-01-06T11:25:09Z</time>
      </trkpt>
      <trkpt lat="46.073340252041817" lon="8.848865618929267">
        <ele>1497.1400000000001</ele>
        <time>2020-01-06T11:25:41Z</time>
      </trkpt>
      <trkpt lat="46.073338072746992" lon="8.848857991397381">
        <ele>1497.04</ele>
        <time>2020-01-06T11:26:27Z</time>
      </trkpt>
      <trkpt lat="46.073338994756341" lon="8.848863439634442">
        <ele>1497.4000000000001</ele>
        <time>2020-01-06T11:27:20Z</time>
      </trkpt>
      <trkpt lat="46.073344275355339" lon="8.848847933113575">
        <ele>1497.3900000000001</ele>
        <time>2020-01-06T11:28:04Z</time>
      </trkpt>
      <trkpt lat="46.073356345295906" lon="8.848804850131273">
        <ele>1497.6400000000001</ele>
        <time>2020-01-06T11:28:26Z</time>
      </trkpt>
      <trkpt lat="46.073352741077542" lon="8.848799904808402">
        <ele>1497.46</ele>
        <time>2020-01-06T11:28:53Z</time>
      </trkpt>
      <trkpt lat="46.073364978656173" lon="8.848808621987701">
        <ele>1497.4100000000001</ele>
        <time>2020-01-06T11:29:15Z</time>
      </trkpt>
      <trkpt lat="46.073361039161682" lon="8.848814824596047">
        <ele>1497.49</ele>
        <time>2020-01-06T11:30:00Z</time>
      </trkpt>
      <trkpt lat="46.073353914543986" lon="8.848815998062491">
        <ele>1497.77</ele>
        <time>2020-01-06T11:30:45Z</time>
      </trkpt>
      <trkpt lat="46.073353243991733" lon="8.848820440471172">
        <ele>1497.7</ele>
        <time>2020-01-06T11:31:28Z</time>
      </trkpt>
      <trkpt lat="46.073341509327292" lon="8.84881398640573">
        <ele>1497.4300000000001</ele>
        <time>2020-01-06T11:32:21Z</time>
      </trkpt>
      <trkpt lat="46.073345700278878" lon="8.848830666393042">
        <ele>1497.3</ele>
        <time>2020-01-06T11:33:12Z</time>
      </trkpt>
      <trkpt lat="46.073346203193069" lon="8.848841898143292">
        <ele>1497.1600000000001</ele>
        <time>2020-01-06T11:34:04Z</time>
      </trkpt>
      <trkpt lat="46.073347628116608" lon="8.848858410492539">
        <ele>1497.1099999999999</ele>
        <time>2020-01-06T11:34:31Z</time>
      </trkpt>
      <trkpt lat="46.073342096060514" lon="8.84885941632092">
        <ele>1497.1500000000001</ele>
        <time>2020-01-06T11:35:03Z</time>
      </trkpt>
      <trkpt lat="46.073347963392735" lon="8.848847597837448">
        <ele>1497.21</ele>
        <time>2020-01-06T11:35:33Z</time>
      </trkpt>
      <trkpt lat="46.073355758562684" lon="8.8488535489887">
        <ele>1497.3800000000001</ele>
        <time>2020-01-06T11:35:55Z</time>
      </trkpt>
      <trkpt lat="46.073343604803085" lon="8.848850363865495">
        <ele>1497.3599999999999</ele>
        <time>2020-01-06T11:36:17Z</time>
      </trkpt>
      <trkpt lat="46.073327679187059" lon="8.84884717874229">
        <ele>1497.3800000000001</ele>
        <time>2020-01-06T11:36:44Z</time>
      </trkpt>
      <trkpt lat="46.073324326425791" lon="8.84882278740406">
        <ele>1497.55</ele>
        <time>2020-01-06T11:37:04Z</time>
      </trkpt>
      <trkpt lat="46.073339665308595" lon="8.848823206499219">
        <ele>1497.28</ele>
        <time>2020-01-06T11:37:26Z</time>
      </trkpt>
      <trkpt lat="46.073332875967026" lon="8.848823709413409">
        <ele>1497.3900000000001</ele>
        <time>2020-01-06T11:37:48Z</time>
      </trkpt>
      <trkpt lat="46.073308316990733" lon="8.848823457956314">
        <ele>1497.3900000000001</ele>
        <time>2020-01-06T11:38:09Z</time>
      </trkpt>
      <trkpt lat="46.073292391374707" lon="8.848823122680187">
        <ele>1497.3</ele>
        <time>2020-01-06T11:38:33Z</time>
      </trkpt>
      <trkpt lat="46.07328224927187" lon="8.848816668614745">
        <ele>1497.3699999999999</ele>
        <time>2020-01-06T11:38:54Z</time>
      </trkpt>
      <trkpt lat="46.073292642831802" lon="8.848824379965663">
        <ele>1497.22</ele>
        <time>2020-01-06T11:39:18Z</time>
      </trkpt>
      <trkpt lat="46.073290463536978" lon="8.848822955042124">
        <ele>1497.21</ele>
        <time>2020-01-06T11:39:48Z</time>
      </trkpt>
      <trkpt lat="46.07331108301878" lon="8.848830498754978">
        <ele>1497.21</ele>
        <time>2020-01-06T11:40:27Z</time>
      </trkpt>
      <trkpt lat="46.073310580104589" lon="8.848818428814411">
        <ele>1497.1900000000001</ele>
        <time>2020-01-06T11:40:58Z</time>
      </trkpt>
      <trkpt lat="46.073317034170032" lon="8.848812310025096">
        <ele>1497.4100000000001</ele>
        <time>2020-01-06T11:41:41Z</time>
      </trkpt>
      <trkpt lat="46.073299096897244" lon="8.848811555653811">
        <ele>1497.22</ele>
        <time>2020-01-06T11:42:36Z</time>
      </trkpt>
      <trkpt lat="46.073300940915942" lon="8.848829828202725">
        <ele>1497.2</ele>
        <time>2020-01-06T11:43:19Z</time>
      </trkpt>
      <trkpt lat="46.073304293677211" lon="8.848842401057482">
        <ele>1497.4100000000001</ele>
        <time>2020-01-06T11:44:03Z</time>
      </trkpt>
      <trkpt lat="46.073303623124957" lon="8.848849944770336">
        <ele>1497.25</ele>
        <time>2020-01-06T11:44:54Z</time>
      </trkpt>
      <trkpt lat="46.07330035418272" lon="8.848842736333609">
        <ele>1496.97</ele>
        <time>2020-01-06T11:45:36Z</time>
      </trkpt>
      <trkpt lat="46.073301276192069" lon="8.848837791010737">
        <ele>1496.9000000000001</ele>
        <time>2020-01-06T11:46:19Z</time>
      </trkpt>
      <trkpt lat="46.073296079412103" lon="8.848837288096547">
        <ele>1496.8099999999999</ele>
        <time>2020-01-06T11:46:46Z</time>
      </trkpt>
      <trkpt lat="46.073299432173371" lon="8.848824882879853">
        <ele>1496.74</ele>
        <time>2020-01-06T11:47:08Z</time>
      </trkpt>
      <trkpt lat="46.07328325510025" lon="8.848823457956314">
        <ele>1496.8499999999999</ele>
        <time>2020-01-06T11:47:48Z</time>
      </trkpt>
      <trkpt lat="46.073284177109599" lon="8.848827481269836">
        <ele>1496.8099999999999</ele>
        <time>2020-01-06T11:48:09Z</time>
      </trkpt>
      <trkpt lat="46.073298426344991" lon="8.848822955042124">
        <ele>1496.75</ele>
        <time>2020-01-06T11:48:35Z</time>
      </trkpt>
      <trkpt lat="46.073300689458847" lon="8.848820859566331">
        <ele>1497.0599999999999</ele>
        <time>2020-01-06T11:48:57Z</time>
      </trkpt>
      <trkpt lat="46.073302449658513" lon="8.84883351624012">
        <ele>1496.9100000000001</ele>
        <time>2020-01-06T11:49:37Z</time>
      </trkpt>
      <trkpt lat="46.073309658095241" lon="8.84882865473628">
        <ele>1496.77</ele>
        <time>2020-01-06T11:50:04Z</time>
      </trkpt>
      <trkpt lat="46.073311166837811" lon="8.848823541775346">
        <ele>1497.1500000000001</ele>
        <time>2020-01-06T11:50:50Z</time>
      </trkpt>
      <trkpt lat="46.07330278493464" lon="8.848822871223092">
        <ele>1497</ele>
        <time>2020-01-06T11:51:30Z</time>
      </trkpt>
      <trkpt lat="46.073302533477545" lon="8.848835108801723">
        <ele>1496.8299999999999</ele>
        <time>2020-01-06T11:52:09Z</time>
      </trkpt>
      <trkpt lat="46.073297252878547" lon="8.848831504583359">
        <ele>1496.8699999999999</ele>
        <time>2020-01-06T11:52:54Z</time>
      </trkpt>
      <trkpt lat="46.073298258706927" lon="8.848833348602057">
        <ele>1496.6500000000001</ele>
        <time>2020-01-06T11:53:38Z</time>
      </trkpt>
      <trkpt lat="46.07328912243247" lon="8.84883351624012">
        <ele>1496.9100000000001</ele>
        <time>2020-01-06T11:54:23Z</time>
      </trkpt>
      <trkpt lat="46.073282584547997" lon="8.84882865473628">
        <ele>1497.0599999999999</ele>
        <time>2020-01-06T11:55:13Z</time>
      </trkpt>
      <trkpt lat="46.073290212079883" lon="8.848825469613075">
        <ele>1497.1199999999999</ele>
        <time>2020-01-06T11:56:03Z</time>
      </trkpt>
      <trkpt lat="46.073291134089231" lon="8.848829576745629">
        <ele>1497.05</ele>
        <time>2020-01-06T11:56:35Z</time>
      </trkpt>
      <trkpt lat="46.073300521820784" lon="8.848825637251139">
        <ele>1496.97</ele>
        <time>2020-01-06T11:56:54Z</time>
      </trkpt>
      <trkpt lat="46.073300521820784" lon="8.848838964477181">
        <ele>1497.0799999999999</ele>
        <time>2020-01-06T11:57:13Z</time>
      </trkpt>
      <trkpt lat="46.073286440223455" lon="8.848826475441456">
        <ele>1497.1700000000001</ele>
        <time>2020-01-06T11:57:34Z</time>
      </trkpt>
      <trkpt lat="46.073288200423121" lon="8.848817925900221">
        <ele>1496.9000000000001</ele>
        <time>2020-01-06T11:58:10Z</time>
      </trkpt>
      <trkpt lat="46.073279650881886" lon="8.848797809332609">
        <ele>1497.1400000000001</ele>
        <time>2020-01-06T11:58:31Z</time>
      </trkpt>
      <trkpt lat="46.073281075805426" lon="8.848792612552643">
        <ele>1496.8800000000001</ele>
        <time>2020-01-06T11:58:52Z</time>
      </trkpt>
      <trkpt lat="46.073294151574373" lon="8.848790936172009">
        <ele>1497.03</ele>
        <time>2020-01-06T11:59:14Z</time>
      </trkpt>
      <trkpt lat="46.0732910502702" lon="8.848792361095548">
        <ele>1497.1099999999999</ele>
        <time>2020-01-06T11:59:34Z</time>
      </trkpt>
      <trkpt lat="46.073295073583722" lon="8.848808202892542">
        <ele>1497.1700000000001</ele>
        <time>2020-01-06T11:59:55Z</time>
      </trkpt>
      <trkpt lat="46.073285434395075" lon="8.848802587017417">
        <ele>1497.22</ele>
        <time>2020-01-06T12:00:16Z</time>
      </trkpt>
      <trkpt lat="46.073297504335642" lon="8.848825637251139">
        <ele>1497.04</ele>
        <time>2020-01-06T12:00:38Z</time>
      </trkpt>
      <trkpt lat="46.073299013078213" lon="8.848829828202725">
        <ele>1497.1600000000001</ele>
        <time>2020-01-06T12:01:00Z</time>
      </trkpt>
      <trkpt lat="46.073288535699248" lon="8.848820272833109">
        <ele>1497.5799999999999</ele>
        <time>2020-01-06T12:01:22Z</time>
      </trkpt>
      <trkpt lat="46.073283087462187" lon="8.848802922293544">
        <ele>1497.27</ele>
        <time>2020-01-06T12:01:42Z</time>
      </trkpt>
      <trkpt lat="46.073296247050166" lon="8.848802670836449">
        <ele>1497.1700000000001</ele>
        <time>2020-01-06T12:02:04Z</time>
      </trkpt>
      <trkpt lat="46.07329155318439" lon="8.848803089931607">
        <ele>1497.4400000000001</ele>
        <time>2020-01-06T12:02:23Z</time>
      </trkpt>
      <trkpt lat="46.073299599811435" lon="8.848807867616415">
        <ele>1497.27</ele>
        <time>2020-01-06T12:02:56Z</time>
      </trkpt>
      <trkpt lat="46.073294570669532" lon="8.848805604502559">
        <ele>1497.76</ele>
        <time>2020-01-06T12:03:19Z</time>
      </trkpt>
      <trkpt lat="46.073284260928631" lon="8.848797725513578">
        <ele>1497.7</ele>
        <time>2020-01-06T12:03:41Z</time>
      </trkpt>
      <trkpt lat="46.073280489072204" lon="8.848808286711574">
        <ele>1497.73</ele>
        <time>2020-01-06T12:04:12Z</time>
      </trkpt>
      <trkpt lat="46.073291804641485" lon="8.848815243691206">
        <ele>1497.8800000000001</ele>
        <time>2020-01-06T12:04:40Z</time>
      </trkpt>
      <trkpt lat="46.07329691760242" lon="8.848818931728602">
        <ele>1497.95</ele>
        <time>2020-01-06T12:05:03Z</time>
      </trkpt>
      <trkpt lat="46.073297169059515" lon="8.848831672221422">
        <ele>1497.8099999999999</ele>
        <time>2020-01-06T12:05:27Z</time>
      </trkpt>
      <trkpt lat="46.073310496285558" lon="8.848802838474512">
        <ele>1497.95</ele>
        <time>2020-01-06T12:06:09Z</time>
      </trkpt>
      <trkpt lat="46.073315860703588" lon="8.848804598674178">
        <ele>1498.02</ele>
        <time>2020-01-06T12:07:03Z</time>
      </trkpt>
      <trkpt lat="46.073314351961017" lon="8.848807867616415">
        <ele>1498.1300000000001</ele>
        <time>2020-01-06T12:07:48Z</time>
      </trkpt>
      <trkpt lat="46.073302952572703" lon="8.848804095759988">
        <ele>1498.3900000000001</ele>
        <time>2020-01-06T12:08:09Z</time>
      </trkpt>
      <trkpt lat="46.07329934835434" lon="8.848789092153311">
        <ele>1498.1700000000001</ele>
        <time>2020-01-06T12:08:29Z</time>
      </trkpt>
      <trkpt lat="46.073283506557345" lon="8.848801162093878">
        <ele>1498.25</ele>
        <time>2020-01-06T12:08:50Z</time>
      </trkpt>
      <trkpt lat="46.07327202335" lon="8.848819434642792">
        <ele>1498.3299999999999</ele>
        <time>2020-01-06T12:09:11Z</time>
      </trkpt>
      <trkpt lat="46.073267664760351" lon="8.848814154043794">
        <ele>1498.3599999999999</ele>
        <time>2020-01-06T12:09:34Z</time>
      </trkpt>
      <trkpt lat="46.073288368061185" lon="8.848797641694546">
        <ele>1498.3599999999999</ele>
        <time>2020-01-06T12:09:55Z</time>
      </trkpt>
      <trkpt lat="46.073300605639815" lon="8.848782386630774">
        <ele>1498.47</ele>
        <time>2020-01-06T12:10:16Z</time>
      </trkpt>
      <trkpt lat="46.073298091068864" lon="8.848777860403061">
        <ele>1498.6400000000001</ele>
        <time>2020-01-06T12:10:36Z</time>
      </trkpt>
      <trkpt lat="46.073297671973705" lon="8.848812058568001">
        <ele>1498.6600000000001</ele>
        <time>2020-01-06T12:10:55Z</time>
      </trkpt>
      <trkpt lat="46.073287110775709" lon="8.848827313631773">
        <ele>1498.6300000000001</ele>
        <time>2020-01-06T12:11:17Z</time>
      </trkpt>
      <trkpt lat="46.073289206251502" lon="8.8488310854882">
        <ele>1498.6600000000001</ele>
        <time>2020-01-06T12:11:39Z</time>
      </trkpt>
      <trkpt lat="46.073295073583722" lon="8.848830163478851">
        <ele>1498.77</ele>
        <time>2020-01-06T12:12:02Z</time>
      </trkpt>
      <trkpt lat="46.073299264535308" lon="8.848826056346297">
        <ele>1498.9100000000001</ele>
        <time>2020-01-06T12:12:23Z</time>
      </trkpt>
      <trkpt lat="46.073295492678881" lon="8.848834270611405">
        <ele>1498.9000000000001</ele>
        <time>2020-01-06T12:12:44Z</time>
      </trkpt>
      <trkpt lat="46.073285266757011" lon="8.848825553432107">
        <ele>1498.8599999999999</ele>
        <time>2020-01-06T12:13:05Z</time>
      </trkpt>
      <trkpt lat="46.073281075805426" lon="8.848831756040454">
        <ele>1499.02</ele>
        <time>2020-01-06T12:13:26Z</time>
      </trkpt>
      <trkpt lat="46.07327051460743" lon="8.848837958648801">
        <ele>1498.99</ele>
        <time>2020-01-06T12:13:48Z</time>
      </trkpt>
      <trkpt lat="46.073273699730635" lon="8.848833683878183">
        <ele>1499.1400000000001</ele>
        <time>2020-01-06T12:14:11Z</time>
      </trkpt>
      <trkpt lat="46.073274370282888" lon="8.848828319460154">
        <ele>1498.8</ele>
        <time>2020-01-06T12:14:31Z</time>
      </trkpt>
      <trkpt lat="46.073270095512271" lon="8.848834438249469">
        <ele>1499.05</ele>
        <time>2020-01-06T12:14:54Z</time>
      </trkpt>
      <trkpt lat="46.073273280635476" lon="8.848830414935947">
        <ele>1499.1199999999999</ele>
        <time>2020-01-06T12:15:16Z</time>
      </trkpt>
      <trkpt lat="46.073275543749332" lon="8.848836030811071">
        <ele>1498.96</ele>
        <time>2020-01-06T12:15:36Z</time>
      </trkpt>
      <trkpt lat="46.073274873197079" lon="8.84885648265481">
        <ele>1499.2</ele>
        <time>2020-01-06T12:15:56Z</time>
      </trkpt>
      <trkpt lat="46.07326322235167" lon="8.848883304744959">
        <ele>1499.1400000000001</ele>
        <time>2020-01-06T12:16:17Z</time>
      </trkpt>
      <trkpt lat="46.073257019743323" lon="8.848885064944625">
        <ele>1499.0599999999999</ele>
        <time>2020-01-06T12:16:43Z</time>
      </trkpt>
      <trkpt lat="46.073268754407763" lon="8.848855644464493">
        <ele>1499.23</ele>
        <time>2020-01-06T12:17:04Z</time>
      </trkpt>
      <trkpt lat="46.073290882632136" lon="8.848841227591038">
        <ele>1499.1500000000001</ele>
        <time>2020-01-06T12:17:25Z</time>
      </trkpt>
      <trkpt lat="46.073303539305925" lon="8.848855895921588">
        <ele>1499.1300000000001</ele>
        <time>2020-01-06T12:17:45Z</time>
      </trkpt>
      <trkpt lat="46.07330228202045" lon="8.848845083266497">
        <ele>1499.4100000000001</ele>
        <time>2020-01-06T12:18:06Z</time>
      </trkpt>
      <trkpt lat="46.073282836005092" lon="8.848838377743959">
        <ele>1499.5899999999999</ele>
        <time>2020-01-06T12:18:28Z</time>
      </trkpt>
      <trkpt lat="46.073265485465527" lon="8.84884575381875">
        <ele>1499.4400000000001</ele>
        <time>2020-01-06T12:19:10Z</time>
      </trkpt>
      <trkpt lat="46.073267413303256" lon="8.848845083266497">
        <ele>1499.3399999999999</ele>
        <time>2020-01-06T12:19:59Z</time>
      </trkpt>
      <trkpt lat="46.073277555406094" lon="8.848839970305562">
        <ele>1499.24</ele>
        <time>2020-01-06T12:20:37Z</time>
      </trkpt>
      <trkpt lat="46.073282165452838" lon="8.848841898143292">
        <ele>1499.1900000000001</ele>
        <time>2020-01-06T12:20:59Z</time>
      </trkpt>
      <trkpt lat="46.073285266757011" lon="8.848850447684526">
        <ele>1499.3099999999999</ele>
        <time>2020-01-06T12:21:20Z</time>
      </trkpt>
      <trkpt lat="46.073274621739984" lon="8.848862685263157">
        <ele>1499.3900000000001</ele>
        <time>2020-01-06T12:21:42Z</time>
      </trkpt>
      <trkpt lat="46.07328032143414" lon="8.848834438249469">
        <ele>1499.5599999999999</ele>
        <time>2020-01-06T12:22:11Z</time>
      </trkpt>
      <trkpt lat="46.073281494900584" lon="8.848813734948635">
        <ele>1499.5699999999999</ele>
        <time>2020-01-06T12:22:32Z</time>
      </trkpt>
      <trkpt lat="46.073282165452838" lon="8.848804933950305">
        <ele>1499.55</ele>
        <time>2020-01-06T12:22:51Z</time>
      </trkpt>
      <trkpt lat="46.073287781327963" lon="8.848818596452475">
        <ele>1499.52</ele>
        <time>2020-01-06T12:23:13Z</time>
      </trkpt>
      <trkpt lat="46.073279064148664" lon="8.848832175135613">
        <ele>1499.3</ele>
        <time>2020-01-06T12:24:01Z</time>
      </trkpt>
      <trkpt lat="46.073272693902254" lon="8.84883695282042">
        <ele>1499.47</ele>
        <time>2020-01-06T12:24:44Z</time>
      </trkpt>
      <trkpt lat="46.073272190988064" lon="8.848833432421088">
        <ele>1499.73</ele>
        <time>2020-01-06T12:25:23Z</time>
      </trkpt>
      <trkpt lat="46.073276968672872" lon="8.848864696919918">
        <ele>1499.8599999999999</ele>
        <time>2020-01-06T12:25:44Z</time>
      </trkpt>
      <trkpt lat="46.073280069977045" lon="8.848866624757648">
        <ele>1499.78</ele>
        <time>2020-01-06T12:26:01Z</time>
      </trkpt>
      <trkpt lat="46.073274370282888" lon="8.848867462947965">
        <ele>1499.8099999999999</ele>
        <time>2020-01-06T12:26:21Z</time>
      </trkpt>
      <trkpt lat="46.073257271200418" lon="8.848887160420418">
        <ele>1499.5799999999999</ele>
        <time>2020-01-06T12:26:43Z</time>
      </trkpt>
      <trkpt lat="46.073246961459517" lon="8.84883938357234">
        <ele>1499.75</ele>
        <time>2020-01-06T12:27:03Z</time>
      </trkpt>
      <trkpt lat="46.073244111612439" lon="8.848803425207734">
        <ele>1499.74</ele>
        <time>2020-01-06T12:27:21Z</time>
      </trkpt>
      <trkpt lat="46.073251571506262" lon="8.848811890929937">
        <ele>1499.8900000000001</ele>
        <time>2020-01-06T12:27:42Z</time>
      </trkpt>
      <trkpt lat="46.073260707780719" lon="8.848829828202725">
        <ele>1500.21</ele>
        <time>2020-01-06T12:28:04Z</time>
      </trkpt>
      <trkpt lat="46.073263892903924" lon="8.848839718848467">
        <ele>1500.05</ele>
        <time>2020-01-06T12:28:24Z</time>
      </trkpt>
      <trkpt lat="46.073262803256512" lon="8.848842065781355">
        <ele>1500.04</ele>
        <time>2020-01-06T12:28:46Z</time>
      </trkpt>
      <trkpt lat="46.073256768286228" lon="8.848865535110235">
        <ele>1500.01</ele>
        <time>2020-01-06T12:29:09Z</time>
      </trkpt>
      <trkpt lat="46.073261545971036" lon="8.848841059952974">
        <ele>1500.27</ele>
        <time>2020-01-06T12:29:31Z</time>
      </trkpt>
      <trkpt lat="46.073269844055176" lon="8.848826391622424">
        <ele>1500.21</ele>
        <time>2020-01-06T12:29:52Z</time>
      </trkpt>
      <trkpt lat="46.07326271943748" lon="8.848795043304563">
        <ele>1500.0699999999999</ele>
        <time>2020-01-06T12:30:15Z</time>
      </trkpt>
      <trkpt lat="46.073257438838482" lon="8.848782386630774">
        <ele>1500.28</ele>
        <time>2020-01-06T12:30:38Z</time>
      </trkpt>
      <trkpt lat="46.07326565310359" lon="8.848799234256148">
        <ele>1500.4300000000001</ele>
        <time>2020-01-06T12:31:03Z</time>
      </trkpt>
      <trkpt lat="46.073268838226795" lon="8.848810214549303">
        <ele>1500.3399999999999</ele>
        <time>2020-01-06T12:31:25Z</time>
      </trkpt>
      <trkpt lat="46.073271604254842" lon="8.848781045526266">
        <ele>1500.23</ele>
        <time>2020-01-06T12:31:44Z</time>
      </trkpt>
      <trkpt lat="46.073275208473206" lon="8.848788002505899">
        <ele>1500.3900000000001</ele>
        <time>2020-01-06T12:32:06Z</time>
      </trkpt>
      <trkpt lat="46.073270095512271" lon="8.848783811554313">
        <ele>1500.3199999999999</ele>
        <time>2020-01-06T12:32:28Z</time>
      </trkpt>
      <trkpt lat="46.073270766064525" lon="8.848793366923928">
        <ele>1500.53</ele>
        <time>2020-01-06T12:32:48Z</time>
      </trkpt>
      <trkpt lat="46.07328224927187" lon="8.848837036639452">
        <ele>1500.29</ele>
        <time>2020-01-06T12:33:07Z</time>
      </trkpt>
      <trkpt lat="46.073268670588732" lon="8.848826475441456">
        <ele>1500.54</ele>
        <time>2020-01-06T12:33:28Z</time>
      </trkpt>
      <trkpt lat="46.073259701952338" lon="8.848806275054812">
        <ele>1500.8900000000001</ele>
        <time>2020-01-06T12:33:48Z</time>
      </trkpt>
      <trkpt lat="46.07325391843915" lon="8.848801078274846">
        <ele>1500.6300000000001</ele>
        <time>2020-01-06T12:34:07Z</time>
      </trkpt>
      <trkpt lat="46.073248386383057" lon="8.848784314468503">
        <ele>1500.73</ele>
        <time>2020-01-06T12:34:26Z</time>
      </trkpt>
      <trkpt lat="46.073260623961687" lon="8.848790349438787">
        <ele>1500.8399999999999</ele>
        <time>2020-01-06T12:35:00Z</time>
      </trkpt>
      <trkpt lat="46.07325735501945" lon="8.848813315853477">
        <ele>1500.5599999999999</ele>
        <time>2020-01-06T12:35:21Z</time>
      </trkpt>
      <trkpt lat="46.07325978577137" lon="8.848830917850137">
        <ele>1500.53</ele>
        <time>2020-01-06T12:35:39Z</time>
      </trkpt>
      <trkpt lat="46.073250146582723" lon="8.84884131141007">
        <ele>1500.5999999999999</ele>
        <time>2020-01-06T12:35:57Z</time>
      </trkpt>
      <trkpt lat="46.0732461232692" lon="8.848847597837448">
        <ele>1500.5899999999999</ele>
        <time>2020-01-06T12:36:19Z</time>
      </trkpt>
      <trkpt lat="46.073249643668532" lon="8.84886478073895">
        <ele>1500.71</ele>
        <time>2020-01-06T12:36:39Z</time>
      </trkpt>
      <trkpt lat="46.073262803256512" lon="8.848851202055812">
        <ele>1501.1199999999999</ele>
        <time>2020-01-06T12:36:59Z</time>
      </trkpt>
      <trkpt lat="46.073265234008431" lon="8.848875341936946">
        <ele>1501.05</ele>
        <time>2020-01-06T12:37:18Z</time>
      </trkpt>
      <trkpt lat="46.073261043056846" lon="8.848878778517246">
        <ele>1501.1199999999999</ele>
        <time>2020-01-06T12:37:37Z</time>
      </trkpt>
      <trkpt lat="46.073260875418782" lon="8.84889017790556">
        <ele>1501.1400000000001</ele>
        <time>2020-01-06T12:37:57Z</time>
      </trkpt>
      <trkpt lat="46.07325634919107" lon="8.848884059116244">
        <ele>1501.1300000000001</ele>
        <time>2020-01-06T12:38:20Z</time>
      </trkpt>
      <trkpt lat="46.073251822963357" lon="8.848864948377013">
        <ele>1501.1099999999999</ele>
        <time>2020-01-06T12:38:41Z</time>
      </trkpt>
      <trkpt lat="46.073246458545327" lon="8.848860422149301">
        <ele>1501.0799999999999</ele>
        <time>2020-01-06T12:39:01Z</time>
      </trkpt>
      <trkpt lat="46.073240926489234" lon="8.848882466554642">
        <ele>1501.0799999999999</ele>
        <time>2020-01-06T12:39:23Z</time>
      </trkpt>
      <trkpt lat="46.073250230401754" lon="8.84887014515698">
        <ele>1501.4000000000001</ele>
        <time>2020-01-06T12:39:44Z</time>
      </trkpt>
      <trkpt lat="46.073250900954008" lon="8.848901828750968">
        <ele>1501.3800000000001</ele>
        <time>2020-01-06T12:40:04Z</time>
      </trkpt>
      <trkpt lat="46.073260037228465" lon="8.848891854286194">
        <ele>1501.3499999999999</ele>
        <time>2020-01-06T12:40:28Z</time>
      </trkpt>
      <trkpt lat="46.073265988379717" lon="8.848869642242789">
        <ele>1501.45</ele>
        <time>2020-01-06T12:40:51Z</time>
      </trkpt>
      <trkpt lat="46.073254086077213" lon="8.848880957812071">
        <ele>1501.3800000000001</ele>
        <time>2020-01-06T12:41:10Z</time>
      </trkpt>
      <trkpt lat="46.07325492426753" lon="8.848846592009068">
        <ele>1501.51</ele>
        <time>2020-01-06T12:41:33Z</time>
      </trkpt>
      <trkpt lat="46.073244865983725" lon="8.848863607272506">
        <ele>1501.49</ele>
        <time>2020-01-06T12:41:56Z</time>
      </trkpt>
      <trkpt lat="46.073248805478215" lon="8.848858829587698">
        <ele>1501.9400000000001</ele>
        <time>2020-01-06T12:42:19Z</time>
      </trkpt>
      <trkpt lat="46.07325928285718" lon="8.848856566473842">
        <ele>1501.96</ele>
        <time>2020-01-06T12:43:00Z</time>
      </trkpt>
      <trkpt lat="46.073260121047497" lon="8.848851369693875">
        <ele>1501.78</ele>
        <time>2020-01-06T12:43:22Z</time>
      </trkpt>
      <trkpt lat="46.073249811306596" lon="8.848868971690536">
        <ele>1502.0599999999999</ele>
        <time>2020-01-06T12:43:42Z</time>
      </trkpt>
      <trkpt lat="46.073252912610769" lon="8.848882047459483">
        <ele>1502.26</ele>
        <time>2020-01-06T12:44:14Z</time>
      </trkpt>
      <trkpt lat="46.073248805478215" lon="8.84889311157167">
        <ele>1502.1600000000001</ele>
        <time>2020-01-06T12:44:38Z</time>
      </trkpt>
      <trkpt lat="46.073257774114609" lon="8.848866876214743">
        <ele>1501.99</ele>
        <time>2020-01-06T12:45:02Z</time>
      </trkpt>
      <trkpt lat="46.073256768286228" lon="8.848865199834108">
        <ele>1502.1400000000001</ele>
        <time>2020-01-06T12:45:37Z</time>
      </trkpt>
      <trkpt lat="46.073256433010101" lon="8.848858159035444">
        <ele>1502.02</ele>
        <time>2020-01-06T12:46:09Z</time>
      </trkpt>
      <trkpt lat="46.073264060541987" lon="8.848845921456814">
        <ele>1502.22</ele>
        <time>2020-01-06T12:46:35Z</time>
      </trkpt>
      <trkpt lat="46.073268000036478" lon="8.848832761868835">
        <ele>1502.49</ele>
        <time>2020-01-06T12:47:17Z</time>
      </trkpt>
      <trkpt lat="46.073269005864859" lon="8.848835276439786">
        <ele>1502.8599999999999</ele>
        <time>2020-01-06T12:48:09Z</time>
      </trkpt>
      <trkpt lat="46.07327738776803" lon="8.848833097144961">
        <ele>1502.7</ele>
        <time>2020-01-06T12:48:28Z</time>
      </trkpt>
      <trkpt lat="46.073304880410433" lon="8.848816081881523">
        <ele>1502.76</ele>
        <time>2020-01-06T12:48:51Z</time>
      </trkpt>
      <trkpt lat="46.073307562619448" lon="8.848802503198385">
        <ele>1502.9100000000001</ele>
        <time>2020-01-06T12:49:13Z</time>
      </trkpt>
      <trkpt lat="46.07330915518105" lon="8.848817422986031">
        <ele>1502.72</ele>
        <time>2020-01-06T12:49:36Z</time>
      </trkpt>
      <trkpt lat="46.073317788541317" lon="8.848823793232441">
        <ele>1503.0999999999999</ele>
        <time>2020-01-06T12:49:59Z</time>
      </trkpt>
      <trkpt lat="46.073318962007761" lon="8.84879395365715">
        <ele>1503.3399999999999</ele>
        <time>2020-01-06T12:50:23Z</time>
      </trkpt>
      <trkpt lat="46.073315190151334" lon="8.848791187629104">
        <ele>1503.55</ele>
        <time>2020-01-06T12:50:45Z</time>
      </trkpt>
      <trkpt lat="46.073300773277879" lon="8.848800156265497">
        <ele>1503.21</ele>
        <time>2020-01-06T12:51:10Z</time>
      </trkpt>
      <trkpt lat="46.073290463536978" lon="8.848819602280855">
        <ele>1503.3800000000001</ele>
        <time>2020-01-06T12:51:31Z</time>
      </trkpt>
      <trkpt lat="46.073304209858179" lon="8.848837036639452">
        <ele>1503.77</ele>
        <time>2020-01-06T12:52:12Z</time>
      </trkpt>
      <trkpt lat="46.073299599811435" lon="8.848838126286864">
        <ele>1503.6500000000001</ele>
        <time>2020-01-06T12:52:35Z</time>
      </trkpt>
      <trkpt lat="46.073284260928631" lon="8.848833264783025">
        <ele>1503.6800000000001</ele>
        <time>2020-01-06T12:52:58Z</time>
      </trkpt>
      <trkpt lat="46.073284344747663" lon="8.84883301332593">
        <ele>1503.6900000000001</ele>
        <time>2020-01-06T12:53:17Z</time>
      </trkpt>
      <trkpt lat="46.073288284242153" lon="8.84881105273962">
        <ele>1503.8499999999999</ele>
        <time>2020-01-06T12:53:49Z</time>
      </trkpt>
      <trkpt lat="46.07329498976469" lon="8.848822452127934">
        <ele>1503.9200000000001</ele>
        <time>2020-01-06T12:54:37Z</time>
      </trkpt>
      <trkpt lat="46.073295157402754" lon="8.848839551210403">
        <ele>1503.8299999999999</ele>
        <time>2020-01-06T12:55:28Z</time>
      </trkpt>
      <trkpt lat="46.073298761621118" lon="8.848841395229101">
        <ele>1504.02</ele>
        <time>2020-01-06T12:56:26Z</time>
      </trkpt>
      <trkpt lat="46.073294403031468" lon="8.848843155428767">
        <ele>1504.1900000000001</ele>
        <time>2020-01-06T12:57:10Z</time>
      </trkpt>
      <trkpt lat="46.073292726650834" lon="8.848832929506898">
        <ele>1504.0899999999999</ele>
        <time>2020-01-06T12:57:53Z</time>
      </trkpt>
      <trkpt lat="46.07328861951828" lon="8.848815076053143">
        <ele>1504.3499999999999</ele>
        <time>2020-01-06T12:58:20Z</time>
      </trkpt>
      <trkpt lat="46.073278058320284" lon="8.848767215386033">
        <ele>1504.0899999999999</ele>
        <time>2020-01-06T12:58:48Z</time>
      </trkpt>
      <trkpt lat="46.073287613689899" lon="8.848787499591708">
        <ele>1504.3</ele>
        <time>2020-01-06T12:59:17Z</time>
      </trkpt>
      <trkpt lat="46.073287781327963" lon="8.848789930343628">
        <ele>1504.3599999999999</ele>
        <time>2020-01-06T12:59:37Z</time>
      </trkpt>
      <trkpt lat="46.073276298120618" lon="8.848789092153311">
        <ele>1504.45</ele>
        <time>2020-01-06T13:00:01Z</time>
      </trkpt>
      <trkpt lat="46.073273532092571" lon="8.848817590624094">
        <ele>1504.51</ele>
        <time>2020-01-06T13:00:23Z</time>
      </trkpt>
      <trkpt lat="46.073281830176711" lon="8.848818764090538">
        <ele>1504.6700000000001</ele>
        <time>2020-01-06T13:00:49Z</time>
      </trkpt>
      <trkpt lat="46.073284680023789" lon="8.84879982098937">
        <ele>1504.6400000000001</ele>
        <time>2020-01-06T13:01:09Z</time>
      </trkpt>
      <trkpt lat="46.073271185159683" lon="8.848825553432107">
        <ele>1504.8</ele>
        <time>2020-01-06T13:01:29Z</time>
      </trkpt>
      <trkpt lat="46.073269257321954" lon="8.848819267004728">
        <ele>1504.3699999999999</ele>
        <time>2020-01-06T13:01:50Z</time>
      </trkpt>
      <trkpt lat="46.073280237615108" lon="8.848815578967333">
        <ele>1504.72</ele>
        <time>2020-01-06T13:02:12Z</time>
      </trkpt>
      <trkpt lat="46.073262635618448" lon="8.848815076053143">
        <ele>1505.51</ele>
        <time>2020-01-06T13:02:29Z</time>
      </trkpt>
      <trkpt lat="46.073244949802756" lon="8.848842065781355">
        <ele>1505.8900000000001</ele>
        <time>2020-01-06T13:02:41Z</time>
      </trkpt>
      <trkpt lat="46.073252242058516" lon="8.848829912021756">
        <ele>1505.9300000000001</ele>
        <time>2020-01-06T13:02:58Z</time>
      </trkpt>
      <trkpt lat="46.073249392211437" lon="8.848832761868835">
        <ele>1505.76</ele>
        <time>2020-01-06T13:03:16Z</time>
      </trkpt>
      <trkpt lat="46.073244698345661" lon="8.848832091316581">
        <ele>1505.72</ele>
        <time>2020-01-06T13:03:31Z</time>
      </trkpt>
      <trkpt lat="46.073252577334642" lon="8.848842149600387">
        <ele>1505.3099999999999</ele>
        <time>2020-01-06T13:03:47Z</time>
      </trkpt>
      <trkpt lat="46.073252074420452" lon="8.848843323066831">
        <ele>1505.25</ele>
        <time>2020-01-06T13:04:03Z</time>
      </trkpt>
      <trkpt lat="46.073247632011771" lon="8.848839802667499">
        <ele>1505.3399999999999</ele>
        <time>2020-01-06T13:04:24Z</time>
      </trkpt>
      <trkpt lat="46.073247715830803" lon="8.848839802667499">
        <ele>1505.1199999999999</ele>
        <time>2020-01-06T13:04:25Z</time>
      </trkpt>
      <trkpt lat="46.073246710002422" lon="8.848837539553642">
        <ele>1505.1800000000001</ele>
        <time>2020-01-06T13:04:45Z</time>
      </trkpt>
      <trkpt lat="46.073248889297247" lon="8.848836869001389">
        <ele>1505.23</ele>
        <time>2020-01-06T13:05:10Z</time>
      </trkpt>
      <trkpt lat="46.073248386383057" lon="8.848843658342958">
        <ele>1505.3800000000001</ele>
        <time>2020-01-06T13:05:32Z</time>
      </trkpt>
      <trkpt lat="46.073243273422122" lon="8.848838629201055">
        <ele>1505.6099999999999</ele>
        <time>2020-01-06T13:05:49Z</time>
      </trkpt>
      <trkpt lat="46.073246039450169" lon="8.848835192620754">
        <ele>1507.5999999999999</ele>
        <time>2020-01-06T13:06:01Z</time>
      </trkpt>
      <trkpt lat="46.073244865983725" lon="8.848837371915579">
        <ele>1505.6400000000001</ele>
        <time>2020-01-06T13:06:04Z</time>
      </trkpt>
      <trkpt lat="46.073242351412773" lon="8.848847514018416">
        <ele>1505.5999999999999</ele>
        <time>2020-01-06T13:06:22Z</time>
      </trkpt>
      <trkpt lat="46.073234220966697" lon="8.848837204277515">
        <ele>1505.4400000000001</ele>
        <time>2020-01-06T13:06:39Z</time>
      </trkpt>
      <trkpt lat="46.07318895868957" lon="8.848750786855817">
        <ele>1505.54</ele>
        <time>2020-01-06T13:06:50Z</time>
      </trkpt>
      <trkpt lat="46.073165908455849" lon="8.848720025271177">
        <ele>1506.2</ele>
        <time>2020-01-06T13:07:01Z</time>
      </trkpt>
      <trkpt lat="46.0731649864465" lon="8.848718432709575">
        <ele>1506.24</ele>
        <time>2020-01-06T13:07:15Z</time>
      </trkpt>
      <trkpt lat="46.073162136599422" lon="8.848714744672179">
        <ele>1505.96</ele>
        <time>2020-01-06T13:07:26Z</time>
      </trkpt>
      <trkpt lat="46.073163561522961" lon="8.848722372204065">
        <ele>1505.9200000000001</ele>
        <time>2020-01-06T13:07:39Z</time>
      </trkpt>
      <trkpt lat="46.073169596493244" lon="8.848725473508239">
        <ele>1506.1700000000001</ele>
        <time>2020-01-06T13:07:57Z</time>
      </trkpt>
      <trkpt lat="46.073169428855181" lon="8.848712062463164">
        <ele>1505.8900000000001</ele>
        <time>2020-01-06T13:08:16Z</time>
      </trkpt>
      <trkpt lat="46.073172949254513" lon="8.848719857633114">
        <ele>1505.22</ele>
        <time>2020-01-06T13:08:37Z</time>
      </trkpt>
      <trkpt lat="46.073176972568035" lon="8.848726144060493">
        <ele>1505.75</ele>
        <time>2020-01-06T13:08:57Z</time>
      </trkpt>
      <trkpt lat="46.073175547644496" lon="8.848731424659491">
        <ele>1505.5999999999999</ele>
        <time>2020-01-06T13:09:12Z</time>
      </trkpt>
      <trkpt lat="46.073168758302927" lon="8.848731508478522">
        <ele>1505.4400000000001</ele>
        <time>2020-01-06T13:09:29Z</time>
      </trkpt>
      <trkpt lat="46.073168590664864" lon="8.848724970594049">
        <ele>1505.3199999999999</ele>
        <time>2020-01-06T13:09:46Z</time>
      </trkpt>
      <trkpt lat="46.07316892594099" lon="8.84872798807919">
        <ele>1505.8199999999999</ele>
        <time>2020-01-06T13:10:06Z</time>
      </trkpt>
      <trkpt lat="46.073167081922293" lon="8.848731173202395">
        <ele>1505.21</ele>
        <time>2020-01-06T13:10:25Z</time>
      </trkpt>
      <trkpt lat="46.073166411370039" lon="8.848721366375685">
        <ele>1505.0899999999999</ele>
        <time>2020-01-06T13:10:40Z</time>
      </trkpt>
      <trkpt lat="46.073167584836483" lon="8.848729748278856">
        <ele>1505.3</ele>
        <time>2020-01-06T13:10:56Z</time>
      </trkpt>
      <trkpt lat="46.073164315894246" lon="8.848727736622095">
        <ele>1504.8699999999999</ele>
        <time>2020-01-06T13:11:07Z</time>
      </trkpt>
      <trkpt lat="46.073161968961358" lon="8.848725305870175">
        <ele>1504.8599999999999</ele>
        <time>2020-01-06T13:11:22Z</time>
      </trkpt>
      <trkpt lat="46.073160041123629" lon="8.848716588690877">
        <ele>1504.8699999999999</ele>
        <time>2020-01-06T13:11:40Z</time>
      </trkpt>
      <trkpt lat="46.073159370571375" lon="8.848715079948306">
        <ele>1504.95</ele>
        <time>2020-01-06T13:11:56Z</time>
      </trkpt>
      <trkpt lat="46.073158532381058" lon="8.848713487386704">
        <ele>1505.01</ele>
        <time>2020-01-06T13:12:05Z</time>
      </trkpt>
      <trkpt lat="46.073159202933311" lon="8.848714241757989">
        <ele>1504.71</ele>
        <time>2020-01-06T13:12:32Z</time>
      </trkpt>
      <trkpt lat="46.073157107457519" lon="8.848713403567672">
        <ele>1505.0999999999999</ele>
        <time>2020-01-06T13:12:47Z</time>
      </trkpt>
      <trkpt lat="46.073154425248504" lon="8.848707620054483">
        <ele>1505.1700000000001</ele>
        <time>2020-01-06T13:13:08Z</time>
      </trkpt>
      <trkpt lat="46.073161046952009" lon="8.848707703873515">
        <ele>1505.24</ele>
        <time>2020-01-06T13:13:25Z</time>
      </trkpt>
      <trkpt lat="46.073165740817785" lon="8.84870745241642">
        <ele>1505.1600000000001</ele>
        <time>2020-01-06T13:13:49Z</time>
      </trkpt>
      <trkpt lat="46.073164232075214" lon="8.848701417446137">
        <ele>1505.3299999999999</ele>
        <time>2020-01-06T13:14:12Z</time>
      </trkpt>
      <trkpt lat="46.073160879313946" lon="8.848708709701896">
        <ele>1505.4100000000001</ele>
        <time>2020-01-06T13:14:29Z</time>
      </trkpt>
      <trkpt lat="46.073129950091243" lon="8.848720947280526">
        <ele>1504.8099999999999</ele>
        <time>2020-01-06T13:14:46Z</time>
      </trkpt>
      <trkpt lat="46.073063733056188" lon="8.848712230101228">
        <ele>1501.4100000000001</ele>
        <time>2020-01-06T13:14:56Z</time>
      </trkpt>
      <trkpt lat="46.073056608438492" lon="8.848707620054483">
        <ele>1501.25</ele>
        <time>2020-01-06T13:14:57Z</time>
      </trkpt>
      <trkpt lat="46.072985529899597" lon="8.848647605627775">
        <ele>1499.0999999999999</ele>
        <time>2020-01-06T13:15:09Z</time>
      </trkpt>
      <trkpt lat="46.072941441088915" lon="8.848619107156992">
        <ele>1496.8800000000001</ele>
        <time>2020-01-06T13:15:16Z</time>
      </trkpt>
      <trkpt lat="46.072839517146349" lon="8.848529336974025">
        <ele>1493.77</ele>
        <time>2020-01-06T13:15:30Z</time>
      </trkpt>
      <trkpt lat="46.072806576266885" lon="8.848481979221106">
        <ele>1492.5599999999999</ele>
        <time>2020-01-06T13:15:36Z</time>
      </trkpt>
      <trkpt lat="46.072747735306621" lon="8.848410565406084">
        <ele>1491.02</ele>
        <time>2020-01-06T13:15:45Z</time>
      </trkpt>
      <trkpt lat="46.072649750858545" lon="8.84831459261477">
        <ele>1487.8199999999999</ele>
        <time>2020-01-06T13:15:59Z</time>
      </trkpt>
      <trkpt lat="46.072636088356376" lon="8.848289363086224">
        <ele>1487.27</ele>
        <time>2020-01-06T13:16:02Z</time>
      </trkpt>
      <trkpt lat="46.072565261274576" lon="8.848211411386728">
        <ele>1485.28</ele>
        <time>2020-01-06T13:16:12Z</time>
      </trkpt>
      <trkpt lat="46.072501810267568" lon="8.848108816891909">
        <ele>1484.73</ele>
        <time>2020-01-06T13:16:26Z</time>
      </trkpt>
      <trkpt lat="46.072493847459555" lon="8.848113846033812">
        <ele>1484.4200000000001</ele>
        <time>2020-01-06T13:16:27Z</time>
      </trkpt>
      <trkpt lat="46.072415979579091" lon="8.848087275400758">
        <ele>1481.0599999999999</ele>
        <time>2020-01-06T13:16:35Z</time>
      </trkpt>
      <trkpt lat="46.072409776970744" lon="8.848084509372711">
        <ele>1480.76</ele>
        <time>2020-01-06T13:16:36Z</time>
      </trkpt>
      <trkpt lat="46.072322521358728" lon="8.848052071407437">
        <ele>1477.4100000000001</ele>
        <time>2020-01-06T13:16:46Z</time>
      </trkpt>
      <trkpt lat="46.072297375649214" lon="8.848043689504266">
        <ele>1476.0599999999999</ele>
        <time>2020-01-06T13:16:49Z</time>
      </trkpt>
      <trkpt lat="46.072288909927011" lon="8.848047880455852">
        <ele>1475.8099999999999</ele>
        <time>2020-01-06T13:16:50Z</time>
      </trkpt>
      <trkpt lat="46.072232583537698" lon="8.84813429787755">
        <ele>1472.5799999999999</ele>
        <time>2020-01-06T13:16:59Z</time>
      </trkpt>
      <trkpt lat="46.072174832224846" lon="8.848157599568367">
        <ele>1469.01</ele>
        <time>2020-01-06T13:17:05Z</time>
      </trkpt>
      <trkpt lat="46.072114398702979" lon="8.8481489662081">
        <ele>1465.72</ele>
        <time>2020-01-06T13:17:12Z</time>
      </trkpt>
      <trkpt lat="46.072054049000144" lon="8.848129436373711">
        <ele>1462.6600000000001</ele>
        <time>2020-01-06T13:17:18Z</time>
      </trkpt>
      <trkpt lat="46.072039380669594" lon="8.848137902095914">
        <ele>1462.04</ele>
        <time>2020-01-06T13:17:20Z</time>
      </trkpt>
      <trkpt lat="46.071973834186792" lon="8.848182410001755">
        <ele>1457.99</ele>
        <time>2020-01-06T13:17:27Z</time>
      </trkpt>
      <trkpt lat="46.071953549981117" lon="8.848223146051168">
        <ele>1457.0899999999999</ele>
        <time>2020-01-06T13:17:31Z</time>
      </trkpt>
      <trkpt lat="46.071890518069267" lon="8.848136812448502">
        <ele>1453.51</ele>
        <time>2020-01-06T13:17:40Z</time>
      </trkpt>
      <trkpt lat="46.071848105639219" lon="8.847994739189744">
        <ele>1451.4300000000001</ele>
        <time>2020-01-06T13:17:53Z</time>
      </trkpt>
      <trkpt lat="46.071798484772444" lon="8.847930198535323">
        <ele>1449.75</ele>
        <time>2020-01-06T13:18:00Z</time>
      </trkpt>
      <trkpt lat="46.071725729852915" lon="8.847828945145011">
        <ele>1446.1300000000001</ele>
        <time>2020-01-06T13:18:13Z</time>
      </trkpt>
      <trkpt lat="46.071673594415188" lon="8.847799943760037">
        <ele>1443.46</ele>
        <time>2020-01-06T13:18:23Z</time>
      </trkpt>
      <trkpt lat="46.071656076237559" lon="8.847791980952025">
        <ele>1442.1300000000001</ele>
        <time>2020-01-06T13:18:26Z</time>
      </trkpt>
      <trkpt lat="46.071608383208513" lon="8.847762476652861">
        <ele>1438.77</ele>
        <time>2020-01-06T13:18:33Z</time>
      </trkpt>
      <trkpt lat="46.07157745398581" lon="8.847704390063882">
        <ele>1435.72</ele>
        <time>2020-01-06T13:18:40Z</time>
      </trkpt>
      <trkpt lat="46.071546524763107" lon="8.847667425870895">
        <ele>1433.6600000000001</ele>
        <time>2020-01-06T13:18:44Z</time>
      </trkpt>
      <trkpt lat="46.071518110111356" lon="8.847612272948027">
        <ele>1431.0899999999999</ele>
        <time>2020-01-06T13:18:56Z</time>
      </trkpt>
      <trkpt lat="46.071498161181808" lon="8.847566675394774">
        <ele>1428.8499999999999</ele>
        <time>2020-01-06T13:19:01Z</time>
      </trkpt>
      <trkpt lat="46.071480391547084" lon="8.847567262127996">
        <ele>1428.51</ele>
        <time>2020-01-06T13:19:03Z</time>
      </trkpt>
      <trkpt lat="46.071437895298004" lon="8.847485454753041">
        <ele>1424.7</ele>
        <time>2020-01-06T13:19:12Z</time>
      </trkpt>
      <trkpt lat="46.07139715924859" lon="8.847433151677251">
        <ele>1423.05</ele>
        <time>2020-01-06T13:19:23Z</time>
      </trkpt>
      <trkpt lat="46.071358853951097" lon="8.847415549680591">
        <ele>1421.48</ele>
        <time>2020-01-06T13:19:34Z</time>
      </trkpt>
      <trkpt lat="46.071337647736073" lon="8.84738520719111">
        <ele>1420.51</ele>
        <time>2020-01-06T13:19:37Z</time>
      </trkpt>
      <trkpt lat="46.071312837302685" lon="8.847345812246203">
        <ele>1419.03</ele>
        <time>2020-01-06T13:19:41Z</time>
      </trkpt>
      <trkpt lat="46.071330774575472" lon="8.847274901345372">
        <ele>1418.04</ele>
        <time>2020-01-06T13:19:46Z</time>
      </trkpt>
      <trkpt lat="46.07146555557847" lon="8.847275990992785">
        <ele>1415.5899999999999</ele>
        <time>2020-01-06T13:20:00Z</time>
      </trkpt>
      <trkpt lat="46.071482570841908" lon="8.847284875810146">
        <ele>1415.74</ele>
        <time>2020-01-06T13:20:13Z</time>
      </trkpt>
      <trkpt lat="46.071562198922038" lon="8.847284875810146">
        <ele>1412.9300000000001</ele>
        <time>2020-01-06T13:20:21Z</time>
      </trkpt>
      <trkpt lat="46.071697734296322" lon="8.84728848002851">
        <ele>1409.8299999999999</ele>
        <time>2020-01-06T13:20:34Z</time>
      </trkpt>
      <trkpt lat="46.071817763149738" lon="8.847274649888277">
        <ele>1407.6199999999999</ele>
        <time>2020-01-06T13:20:47Z</time>
      </trkpt>
      <trkpt lat="46.071823295205832" lon="8.84726794436574">
        <ele>1407.3199999999999</ele>
        <time>2020-01-06T13:20:48Z</time>
      </trkpt>
      <trkpt lat="46.07191214337945" lon="8.847131822258234">
        <ele>1404.29</ele>
        <time>2020-01-06T13:21:00Z</time>
      </trkpt>
      <trkpt lat="46.072064945474267" lon="8.846958735957742">
        <ele>1402.4200000000001</ele>
        <time>2020-01-06T13:21:17Z</time>
      </trkpt>
      <trkpt lat="46.072239121422172" lon="8.846891177818179">
        <ele>1400.48</ele>
        <time>2020-01-06T13:21:33Z</time>
      </trkpt>
      <trkpt lat="46.072312127798796" lon="8.846755642443895">
        <ele>1397.79</ele>
        <time>2020-01-06T13:21:44Z</time>
      </trkpt>
      <trkpt lat="46.07231380417943" lon="8.846686072647572">
        <ele>1398.4100000000001</ele>
        <time>2020-01-06T13:21:56Z</time>
      </trkpt>
      <trkpt lat="46.072321012616158" lon="8.846598900854588">
        <ele>1398.1400000000001</ele>
        <time>2020-01-06T13:22:06Z</time>
      </trkpt>
      <trkpt lat="46.072328807786107" lon="8.846572414040566">
        <ele>1398.02</ele>
        <time>2020-01-06T13:22:08Z</time>
      </trkpt>
      <trkpt lat="46.072349091991782" lon="8.846511309966445">
        <ele>1399.26</ele>
        <time>2020-01-06T13:22:13Z</time>
      </trkpt>
      <trkpt lat="46.072393599897623" lon="8.846410224214196">
        <ele>1401.5</ele>
        <time>2020-01-06T13:22:24Z</time>
      </trkpt>
      <trkpt lat="46.072396449744701" lon="8.846369571983814">
        <ele>1401.8900000000001</ele>
        <time>2020-01-06T13:22:27Z</time>
      </trkpt>
      <trkpt lat="46.072439448907971" lon="8.846158012747765">
        <ele>1403.55</ele>
        <time>2020-01-06T13:22:43Z</time>
      </trkpt>
      <trkpt lat="46.072472305968404" lon="8.846112582832575">
        <ele>1404.45</ele>
        <time>2020-01-06T13:22:52Z</time>
      </trkpt>
      <trkpt lat="46.072535337880254" lon="8.846101518720388">
        <ele>1401.6199999999999</ele>
        <time>2020-01-06T13:23:03Z</time>
      </trkpt>
      <trkpt lat="46.072584791108966" lon="8.846084671095014">
        <ele>1398.6700000000001</ele>
        <time>2020-01-06T13:23:12Z</time>
      </trkpt>
      <trkpt lat="46.072605159133673" lon="8.846029099076986">
        <ele>1396.71</ele>
        <time>2020-01-06T13:23:20Z</time>
      </trkpt>
      <trkpt lat="46.072606919333339" lon="8.846020130440593">
        <ele>1396.3199999999999</ele>
        <time>2020-01-06T13:23:21Z</time>
      </trkpt>
      <trkpt lat="46.072643799707294" lon="8.845971431583166">
        <ele>1393.3499999999999</ele>
        <time>2020-01-06T13:23:30Z</time>
      </trkpt>
      <trkpt lat="46.072641620412469" lon="8.845961876213551">
        <ele>1392.96</ele>
        <time>2020-01-06T13:23:31Z</time>
      </trkpt>
      <trkpt lat="46.072650924324989" lon="8.845909154042602">
        <ele>1391.51</ele>
        <time>2020-01-06T13:23:36Z</time>
      </trkpt>
      <trkpt lat="46.072699204087257" lon="8.845820305868983">
        <ele>1388.23</ele>
        <time>2020-01-06T13:23:45Z</time>
      </trkpt>
      <trkpt lat="46.072664670646191" lon="8.845659457147121">
        <ele>1387</ele>
        <time>2020-01-06T13:23:57Z</time>
      </trkpt>
      <trkpt lat="46.07267003506422" lon="8.845598353073001">
        <ele>1386.04</ele>
        <time>2020-01-06T13:24:01Z</time>
      </trkpt>
      <trkpt lat="46.072684619575739" lon="8.845444796606898">
        <ele>1382.3800000000001</ele>
        <time>2020-01-06T13:24:11Z</time>
      </trkpt>
      <trkpt lat="46.072705490514636" lon="8.845262909308076">
        <ele>1380.3499999999999</ele>
        <time>2020-01-06T13:24:23Z</time>
      </trkpt>
      <trkpt lat="46.072754608467221" lon="8.845067694783211">
        <ele>1379.54</ele>
        <time>2020-01-06T13:24:36Z</time>
      </trkpt>
      <trkpt lat="46.072806157171726" lon="8.844883376732469">
        <ele>1377.6600000000001</ele>
        <time>2020-01-06T13:24:48Z</time>
      </trkpt>
      <trkpt lat="46.072890982031822" lon="8.844795366749167">
        <ele>1374.9400000000001</ele>
        <time>2020-01-06T13:25:00Z</time>
      </trkpt>
      <trkpt lat="46.072901040315628" lon="8.844760414212942">
        <ele>1374.0899999999999</ele>
        <time>2020-01-06T13:25:03Z</time>
      </trkpt>
      <trkpt lat="46.072945212945342" lon="8.844654550775886">
        <ele>1370.3099999999999</ele>
        <time>2020-01-06T13:25:11Z</time>
      </trkpt>
      <trkpt lat="46.072964491322637" lon="8.844620268791914">
        <ele>1369.45</ele>
        <time>2020-01-06T13:25:13Z</time>
      </trkpt>
      <trkpt lat="46.072989637032151" lon="8.844449864700437">
        <ele>1367.8599999999999</ele>
        <time>2020-01-06T13:25:23Z</time>
      </trkpt>
      <trkpt lat="46.072985110804439" lon="8.844233024865389">
        <ele>1364.8599999999999</ele>
        <time>2020-01-06T13:25:35Z</time>
      </trkpt>
      <trkpt lat="46.072986368089914" lon="8.84421450085938">
        <ele>1364.8800000000001</ele>
        <time>2020-01-06T13:25:36Z</time>
      </trkpt>
      <trkpt lat="46.07294412329793" lon="8.844008557498455">
        <ele>1362.8399999999999</ele>
        <time>2020-01-06T13:25:48Z</time>
      </trkpt>
      <trkpt lat="46.072923336178064" lon="8.843999169766903">
        <ele>1362.3</ele>
        <time>2020-01-06T13:26:00Z</time>
      </trkpt>
      <trkpt lat="46.072897687554359" lon="8.844013754278421">
        <ele>1362.52</ele>
        <time>2020-01-06T13:26:30Z</time>
      </trkpt>
      <trkpt lat="46.072815377265215" lon="8.844025069847703">
        <ele>1360.1400000000001</ele>
        <time>2020-01-06T13:26:42Z</time>
      </trkpt>
      <trkpt lat="46.072828369215131" lon="8.84398341178894">
        <ele>1359.3499999999999</ele>
        <time>2020-01-06T13:27:06Z</time>
      </trkpt>
      <trkpt lat="46.072746813297272" lon="8.843870675191283">
        <ele>1356.6300000000001</ele>
        <time>2020-01-06T13:27:19Z</time>
      </trkpt>
      <trkpt lat="46.072721919044852" lon="8.843816109001637">
        <ele>1355.24</ele>
        <time>2020-01-06T13:27:27Z</time>
      </trkpt>
      <trkpt lat="46.072682272642851" lon="8.843712424859405">
        <ele>1352.77</ele>
        <time>2020-01-06T13:27:37Z</time>
      </trkpt>
      <trkpt lat="46.07258697040379" lon="8.843514360487461">
        <ele>1349.26</ele>
        <time>2020-01-06T13:27:53Z</time>
      </trkpt>
      <trkpt lat="46.072529051452875" lon="8.843360049650073">
        <ele>1347.04</ele>
        <time>2020-01-06T13:28:05Z</time>
      </trkpt>
      <trkpt lat="46.072504241019487" lon="8.843254521489143">
        <ele>1345.3199999999999</ele>
        <time>2020-01-06T13:28:11Z</time>
      </trkpt>
      <trkpt lat="46.072432156652212" lon="8.842995436862111">
        <ele>1342.1900000000001</ele>
        <time>2020-01-06T13:28:27Z</time>
      </trkpt>
      <trkpt lat="46.07242570258677" lon="8.842992167919874">
        <ele>1342.28</ele>
        <time>2020-01-06T13:28:28Z</time>
      </trkpt>
      <trkpt lat="46.072402568534017" lon="8.843075484037399">
        <ele>1340.8399999999999</ele>
        <time>2020-01-06T13:28:34Z</time>
      </trkpt>
      <trkpt lat="46.072373315691948" lon="8.843045979738236">
        <ele>1338.75</ele>
        <time>2020-01-06T13:28:38Z</time>
      </trkpt>
      <trkpt lat="46.07229033485055" lon="8.842911031097174">
        <ele>1335.6099999999999</ele>
        <time>2020-01-06T13:28:50Z</time>
      </trkpt>
      <trkpt lat="46.072194026783109" lon="8.842725371941924">
        <ele>1332.5899999999999</ele>
        <time>2020-01-06T13:29:04Z</time>
      </trkpt>
      <trkpt lat="46.072166115045547" lon="8.842676840722561">
        <ele>1331.6099999999999</ele>
        <time>2020-01-06T13:29:14Z</time>
      </trkpt>
      <trkpt lat="46.072156811133027" lon="8.842658987268806">
        <ele>1331.29</ele>
        <time>2020-01-06T13:29:17Z</time>
      </trkpt>
      <trkpt lat="46.072065280750394" lon="8.842490008100867">
        <ele>1328.27</ele>
        <time>2020-01-06T13:29:31Z</time>
      </trkpt>
      <trkpt lat="46.071965368464589" lon="8.842338379472494">
        <ele>1325.1700000000001</ele>
        <time>2020-01-06T13:29:45Z</time>
      </trkpt>
      <trkpt lat="46.071888590231538" lon="8.84219060651958">
        <ele>1323.0799999999999</ele>
        <time>2020-01-06T13:29:58Z</time>
      </trkpt>
      <trkpt lat="46.07186914421618" lon="8.842167891561985">
        <ele>1321.77</ele>
        <time>2020-01-06T13:30:01Z</time>
      </trkpt>
      <trkpt lat="46.071796808391809" lon="8.842142410576344">
        <ele>1319.0899999999999</ele>
        <time>2020-01-06T13:30:14Z</time>
      </trkpt>
      <trkpt lat="46.071797395125031" lon="8.842169400304556">
        <ele>1318.8199999999999</ele>
        <time>2020-01-06T13:30:16Z</time>
      </trkpt>
      <trkpt lat="46.071811225265265" lon="8.842378444969654">
        <ele>1316.6199999999999</ele>
        <time>2020-01-06T13:30:30Z</time>
      </trkpt>
      <trkpt lat="46.071783397346735" lon="8.842533929273486">
        <ele>1313.5899999999999</ele>
        <time>2020-01-06T13:30:43Z</time>
      </trkpt>
      <trkpt lat="46.071770153939724" lon="8.842650773003697">
        <ele>1310.9400000000001</ele>
        <time>2020-01-06T13:30:54Z</time>
      </trkpt>
      <trkpt lat="46.071770992130041" lon="8.842806508764625">
        <ele>1307.8199999999999</ele>
        <time>2020-01-06T13:31:08Z</time>
      </trkpt>
      <trkpt lat="46.071766801178455" lon="8.84284196421504">
        <ele>1306.6400000000001</ele>
        <time>2020-01-06T13:31:12Z</time>
      </trkpt>
      <trkpt lat="46.071757581084967" lon="8.842863840982318">
        <ele>1306.0799999999999</ele>
        <time>2020-01-06T13:31:14Z</time>
      </trkpt>
      <trkpt lat="46.071750875562429" lon="8.842906840145588">
        <ele>1305.3699999999999</ele>
        <time>2020-01-06T13:31:17Z</time>
      </trkpt>
      <trkpt lat="46.071765879169106" lon="8.84311018511653">
        <ele>1302.74</ele>
        <time>2020-01-06T13:31:31Z</time>
      </trkpt>
      <trkpt lat="46.071769148111343" lon="8.843303471803665">
        <ele>1300</ele>
        <time>2020-01-06T13:31:45Z</time>
      </trkpt>
      <trkpt lat="46.071775769814849" lon="8.843407826498151">
        <ele>1297.76</ele>
        <time>2020-01-06T13:31:54Z</time>
      </trkpt>
      <trkpt lat="46.071749953553081" lon="8.843505140393972">
        <ele>1295.5599999999999</ele>
        <time>2020-01-06T13:32:04Z</time>
      </trkpt>
      <trkpt lat="46.071709888055921" lon="8.843615110963583">
        <ele>1294.1099999999999</ele>
        <time>2020-01-06T13:32:15Z</time>
      </trkpt>
      <trkpt lat="46.07169521972537" lon="8.843716364353895">
        <ele>1292.3800000000001</ele>
        <time>2020-01-06T13:32:27Z</time>
      </trkpt>
      <trkpt lat="46.071661105379462" lon="8.843799848109484">
        <ele>1290.3299999999999</ele>
        <time>2020-01-06T13:32:37Z</time>
      </trkpt>
      <trkpt lat="46.071605533361435" lon="8.843772523105145">
        <ele>1287.4400000000001</ele>
        <time>2020-01-06T13:32:47Z</time>
      </trkpt>
      <trkpt lat="46.071560941636562" lon="8.843648135662079">
        <ele>1284.54</ele>
        <time>2020-01-06T13:32:59Z</time>
      </trkpt>
      <trkpt lat="46.07151341624558" lon="8.843561047688127">
        <ele>1281.54</ele>
        <time>2020-01-06T13:33:10Z</time>
      </trkpt>
      <trkpt lat="46.071463292464614" lon="8.843604465946555">
        <ele>1279.3599999999999</ele>
        <time>2020-01-06T13:33:20Z</time>
      </trkpt>
      <trkpt lat="46.071436135098338" lon="8.843701276928186">
        <ele>1277.1099999999999</ele>
        <time>2020-01-06T13:33:31Z</time>
      </trkpt>
      <trkpt lat="46.071420293301344" lon="8.843739749863744">
        <ele>1276.4100000000001</ele>
        <time>2020-01-06T13:33:34Z</time>
      </trkpt>
      <trkpt lat="46.071398919448256" lon="8.843839159235358">
        <ele>1274.6199999999999</ele>
        <time>2020-01-06T13:33:42Z</time>
      </trkpt>
      <trkpt lat="46.071379138156772" lon="8.843840667977929">
        <ele>1273.6099999999999</ele>
        <time>2020-01-06T13:33:45Z</time>
      </trkpt>
      <trkpt lat="46.071349801495671" lon="8.843798339366913">
        <ele>1273.02</ele>
        <time>2020-01-06T13:33:49Z</time>
      </trkpt>
      <trkpt lat="46.071321973577142" lon="8.843731870874763">
        <ele>1271.03</ele>
        <time>2020-01-06T13:33:55Z</time>
      </trkpt>
      <trkpt lat="46.071252906695008" lon="8.843665905296803">
        <ele>1267.52</ele>
        <time>2020-01-06T13:34:07Z</time>
      </trkpt>
      <trkpt lat="46.071233125403523" lon="8.8436936493963">
        <ele>1266.79</ele>
        <time>2020-01-06T13:34:10Z</time>
      </trkpt>
      <trkpt lat="46.071215271949768" lon="8.843703456223011">
        <ele>1265.98</ele>
        <time>2020-01-06T13:34:12Z</time>
      </trkpt>
      <trkpt lat="46.071198927238584" lon="8.843691218644381">
        <ele>1265.22</ele>
        <time>2020-01-06T13:34:14Z</time>
      </trkpt>
      <trkpt lat="46.071190042421222" lon="8.843544786795974">
        <ele>1262.52</ele>
        <time>2020-01-06T13:34:26Z</time>
      </trkpt>
      <trkpt lat="46.071190629154444" lon="8.843518132343888">
        <ele>1261.6099999999999</ele>
        <time>2020-01-06T13:34:29Z</time>
      </trkpt>
      <trkpt lat="46.071183672174811" lon="8.843470187857747">
        <ele>1260.1900000000001</ele>
        <time>2020-01-06T13:34:32Z</time>
      </trkpt>
      <trkpt lat="46.07107269577682" lon="8.843374634161592">
        <ele>1257.1300000000001</ele>
        <time>2020-01-06T13:34:46Z</time>
      </trkpt>
      <trkpt lat="46.071057859808207" lon="8.843435738235712">
        <ele>1255.3099999999999</ele>
        <time>2020-01-06T13:34:54Z</time>
      </trkpt>
      <trkpt lat="46.071015112102032" lon="8.843585606664419">
        <ele>1252.46</ele>
        <time>2020-01-06T13:35:06Z</time>
      </trkpt>
      <trkpt lat="46.070993486791849" lon="8.843604968860745">
        <ele>1250.96</ele>
        <time>2020-01-06T13:35:10Z</time>
      </trkpt>
      <trkpt lat="46.07098619453609" lon="8.843624414876103">
        <ele>1250.24</ele>
        <time>2020-01-06T13:35:13Z</time>
      </trkpt>
      <trkpt lat="46.070934729650617" lon="8.843579739332199">
        <ele>1247.5599999999999</ele>
        <time>2020-01-06T13:35:22Z</time>
      </trkpt>
      <trkpt lat="46.070905225351453" lon="8.843568172305822">
        <ele>1245.6900000000001</ele>
        <time>2020-01-06T13:35:31Z</time>
      </trkpt>
      <trkpt lat="46.070855436846614" lon="8.843651153147221">
        <ele>1243.1500000000001</ele>
        <time>2020-01-06T13:35:42Z</time>
      </trkpt>
      <trkpt lat="46.070831213146448" lon="8.843733966350555">
        <ele>1240.46</ele>
        <time>2020-01-06T13:35:51Z</time>
      </trkpt>
      <trkpt lat="46.070819813758135" lon="8.84380797855556">
        <ele>1238.28</ele>
        <time>2020-01-06T13:35:59Z</time>
      </trkpt>
      <trkpt lat="46.070797517895699" lon="8.84378400631249">
        <ele>1237.3</ele>
        <time>2020-01-06T13:36:02Z</time>
      </trkpt>
      <trkpt lat="46.070738090202212" lon="8.843717454001308">
        <ele>1235.1300000000001</ele>
        <time>2020-01-06T13:36:10Z</time>
      </trkpt>
      <trkpt lat="46.070697270333767" lon="8.843638747930527">
        <ele>1232.98</ele>
        <time>2020-01-06T13:36:18Z</time>
      </trkpt>
      <trkpt lat="46.070658043026924" lon="8.843655930832028">
        <ele>1230.9000000000001</ele>
        <time>2020-01-06T13:36:29Z</time>
      </trkpt>
      <trkpt lat="46.070617809891701" lon="8.843671604990959">
        <ele>1228.52</ele>
        <time>2020-01-06T13:36:37Z</time>
      </trkpt>
      <trkpt lat="46.070601381361485" lon="8.843642687425017">
        <ele>1227.6500000000001</ele>
        <time>2020-01-06T13:36:40Z</time>
      </trkpt>
      <trkpt lat="46.070611858740449" lon="8.843429870903492">
        <ele>1225.3399999999999</ele>
        <time>2020-01-06T13:36:54Z</time>
      </trkpt>
      <trkpt lat="46.070609344169497" lon="8.843416124582291">
        <ele>1225.1199999999999</ele>
        <time>2020-01-06T13:36:55Z</time>
      </trkpt>
      <trkpt lat="46.070581264793873" lon="8.843369437381625">
        <ele>1224.48</ele>
        <time>2020-01-06T13:36:59Z</time>
      </trkpt>
      <trkpt lat="46.070523848757148" lon="8.843248318880796">
        <ele>1222.75</ele>
        <time>2020-01-06T13:37:08Z</time>
      </trkpt>
      <trkpt lat="46.070434246212244" lon="8.843069029971957">
        <ele>1220.05</ele>
        <time>2020-01-06T13:37:22Z</time>
      </trkpt>
      <trkpt lat="46.070428127422929" lon="8.843061905354261">
        <ele>1219.71</ele>
        <time>2020-01-06T13:37:23Z</time>
      </trkpt>
      <trkpt lat="46.070413878187537" lon="8.843041202053428">
        <ele>1219.1500000000001</ele>
        <time>2020-01-06T13:37:25Z</time>
      </trkpt>
      <trkpt lat="46.070353025570512" lon="8.84287272579968">
        <ele>1215.49</ele>
        <time>2020-01-06T13:37:38Z</time>
      </trkpt>
      <trkpt lat="46.070347744971514" lon="8.842846490442753">
        <ele>1214.73</ele>
        <time>2020-01-06T13:37:40Z</time>
      </trkpt>
      <trkpt lat="46.070343470200896" lon="8.84283215738833">
        <ele>1214.4300000000001</ele>
        <time>2020-01-06T13:37:41Z</time>
      </trkpt>
      <trkpt lat="46.070303153246641" lon="8.842676756903529">
        <ele>1212.3699999999999</ele>
        <time>2020-01-06T13:37:51Z</time>
      </trkpt>
      <trkpt lat="46.070313462987542" lon="8.842510208487511">
        <ele>1211.22</ele>
        <time>2020-01-06T13:38:04Z</time>
      </trkpt>
      <trkpt lat="46.070315642282367" lon="8.842415157705545">
        <ele>1208.1800000000001</ele>
        <time>2020-01-06T13:38:15Z</time>
      </trkpt>
      <trkpt lat="46.070274822413921" lon="8.842405350878835">
        <ele>1205.3199999999999</ele>
        <time>2020-01-06T13:38:26Z</time>
      </trkpt>
      <trkpt lat="46.070257555693388" lon="8.84233083575964">
        <ele>1202.8</ele>
        <time>2020-01-06T13:38:37Z</time>
      </trkpt>
      <trkpt lat="46.070242887362838" lon="8.842211477458477">
        <ele>1199.6900000000001</ele>
        <time>2020-01-06T13:38:49Z</time>
      </trkpt>
      <trkpt lat="46.070222854614258" lon="8.842078875750303">
        <ele>1197.25</ele>
        <time>2020-01-06T13:38:59Z</time>
      </trkpt>
      <trkpt lat="46.070215981453657" lon="8.84200637228787">
        <ele>1195.5699999999999</ele>
        <time>2020-01-06T13:39:06Z</time>
      </trkpt>
      <trkpt lat="46.070218998938799" lon="8.841978460550308">
        <ele>1194.99</ele>
        <time>2020-01-06T13:39:08Z</time>
      </trkpt>
      <trkpt lat="46.070224698632956" lon="8.841872178018093">
        <ele>1192.4300000000001</ele>
        <time>2020-01-06T13:39:18Z</time>
      </trkpt>
      <trkpt lat="46.070216232910752" lon="8.841781904920936">
        <ele>1190.8699999999999</ele>
        <time>2020-01-06T13:39:25Z</time>
      </trkpt>
      <trkpt lat="46.070193853229284" lon="8.841702779754996">
        <ele>1189.52</ele>
        <time>2020-01-06T13:39:32Z</time>
      </trkpt>
      <trkpt lat="46.070156637579203" lon="8.841574620455504">
        <ele>1186.03</ele>
        <time>2020-01-06T13:39:43Z</time>
      </trkpt>
      <trkpt lat="46.070150267332792" lon="8.841454926878214">
        <ele>1183.01</ele>
        <time>2020-01-06T13:39:54Z</time>
      </trkpt>
      <trkpt lat="46.07014674693346" lon="8.841446125879884">
        <ele>1182.75</ele>
        <time>2020-01-06T13:39:55Z</time>
      </trkpt>
      <trkpt lat="46.070123612880707" lon="8.84131595492363">
        <ele>1179.8499999999999</ele>
        <time>2020-01-06T13:40:07Z</time>
      </trkpt>
      <trkpt lat="46.070099472999573" lon="8.841209504753351">
        <ele>1176.96</ele>
        <time>2020-01-06T13:40:18Z</time>
      </trkpt>
      <trkpt lat="46.07003535144031" lon="8.841102216392756">
        <ele>1173.76</ele>
        <time>2020-01-06T13:40:30Z</time>
      </trkpt>
      <trkpt lat="46.069996543228626" lon="8.841063575819135">
        <ele>1171.8099999999999</ele>
        <time>2020-01-06T13:40:36Z</time>
      </trkpt>
      <trkpt lat="46.069939043372869" lon="8.840988390147686">
        <ele>1169.3499999999999</ele>
        <time>2020-01-06T13:40:45Z</time>
      </trkpt>
      <trkpt lat="46.069853380322456" lon="8.840920329093933">
        <ele>1165.78</ele>
        <time>2020-01-06T13:40:58Z</time>
      </trkpt>
      <trkpt lat="46.069823708385229" lon="8.840917646884918">
        <ele>1164.9100000000001</ele>
        <time>2020-01-06T13:41:01Z</time>
      </trkpt>
      <trkpt lat="46.069691525772214" lon="8.840872049331665">
        <ele>1161.9200000000001</ele>
        <time>2020-01-06T13:41:14Z</time>
      </trkpt>
      <trkpt lat="46.069528162479401" lon="8.840771466493607">
        <ele>1158.3900000000001</ele>
        <time>2020-01-06T13:41:29Z</time>
      </trkpt>
      <trkpt lat="46.069500418379903" lon="8.840747326612473">
        <ele>1157.6400000000001</ele>
        <time>2020-01-06T13:41:32Z</time>
      </trkpt>
      <trkpt lat="46.069377120584249" lon="8.840682450681925">
        <ele>1154.3599999999999</ele>
        <time>2020-01-06T13:41:44Z</time>
      </trkpt>
      <trkpt lat="46.069339402019978" lon="8.840670296922326">
        <ele>1153.6500000000001</ele>
        <time>2020-01-06T13:41:55Z</time>
      </trkpt>
      <trkpt lat="46.069267317652702" lon="8.840644983574748">
        <ele>1152.0699999999999</ele>
        <time>2020-01-06T13:42:05Z</time>
      </trkpt>
      <trkpt lat="46.069219205528498" lon="8.840641379356384">
        <ele>1150.72</ele>
        <time>2020-01-06T13:42:12Z</time>
      </trkpt>
      <trkpt lat="46.069196071475744" lon="8.840633668005467">
        <ele>1149.8900000000001</ele>
        <time>2020-01-06T13:42:14Z</time>
      </trkpt>
      <trkpt lat="46.069080485031009" lon="8.840567534789443">
        <ele>1147.52</ele>
        <time>2020-01-06T13:42:26Z</time>
      </trkpt>
      <trkpt lat="46.06901410035789" lon="8.84049947373569">
        <ele>1145.6600000000001</ele>
        <time>2020-01-06T13:42:37Z</time>
      </trkpt>
      <trkpt lat="46.06897403486073" lon="8.840467873960733">
        <ele>1144.96</ele>
        <time>2020-01-06T13:42:43Z</time>
      </trkpt>
      <trkpt lat="46.068903794512153" lon="8.840410206466913">
        <ele>1141.26</ele>
        <time>2020-01-06T13:42:51Z</time>
      </trkpt>
      <trkpt lat="46.06880153529346" lon="8.840234437957406">
        <ele>1137.8599999999999</ele>
        <time>2020-01-06T13:43:06Z</time>
      </trkpt>
      <trkpt lat="46.068731965497136" lon="8.840069230645895">
        <ele>1134.76</ele>
        <time>2020-01-06T13:43:19Z</time>
      </trkpt>
      <trkpt lat="46.068714698776603" lon="8.840000918135047">
        <ele>1133.3399999999999</ele>
        <time>2020-01-06T13:43:26Z</time>
      </trkpt>
      <trkpt lat="46.068706987425685" lon="8.839947273954749">
        <ele>1132.21</ele>
        <time>2020-01-06T13:43:30Z</time>
      </trkpt>
      <trkpt lat="46.06875367462635" lon="8.839798159897327">
        <ele>1129.9100000000001</ele>
        <time>2020-01-06T13:43:41Z</time>
      </trkpt>
      <trkpt lat="46.068774294108152" lon="8.839733200147748">
        <ele>1128.21</ele>
        <time>2020-01-06T13:43:46Z</time>
      </trkpt>
      <trkpt lat="46.06880446895957" lon="8.839688440784812">
        <ele>1127.45</ele>
        <time>2020-01-06T13:43:50Z</time>
      </trkpt>
      <trkpt lat="46.068892730399966" lon="8.839510241523385">
        <ele>1123.79</ele>
        <time>2020-01-06T13:44:03Z</time>
      </trkpt>
      <trkpt lat="46.068947045132518" lon="8.839418878778815">
        <ele>1121.3399999999999</ele>
        <time>2020-01-06T13:44:11Z</time>
      </trkpt>
      <trkpt lat="46.068987613543868" lon="8.839359953999519">
        <ele>1120.01</ele>
        <time>2020-01-06T13:44:17Z</time>
      </trkpt>
      <trkpt lat="46.06907662935555" lon="8.839139845222235">
        <ele>1116.49</ele>
        <time>2020-01-06T13:44:32Z</time>
      </trkpt>
      <trkpt lat="46.069093057885766" lon="8.839076142758131">
        <ele>1115.8800000000001</ele>
        <time>2020-01-06T13:44:36Z</time>
      </trkpt>
      <trkpt lat="46.069113677367568" lon="8.838902805000544">
        <ele>1114.4200000000001</ele>
        <time>2020-01-06T13:44:46Z</time>
      </trkpt>
      <trkpt lat="46.069138320162892" lon="8.838729886338115">
        <ele>1112.79</ele>
        <time>2020-01-06T13:44:57Z</time>
      </trkpt>
      <trkpt lat="46.069159274920821" lon="8.838698538020253">
        <ele>1111.77</ele>
        <time>2020-01-06T13:45:06Z</time>
      </trkpt>
      <trkpt lat="46.069145612418652" lon="8.838610947132111">
        <ele>1108.5</ele>
        <time>2020-01-06T13:45:15Z</time>
      </trkpt>
      <trkpt lat="46.069151312112808" lon="8.838579682633281">
        <ele>1107.6500000000001</ele>
        <time>2020-01-06T13:45:18Z</time>
      </trkpt>
      <trkpt lat="46.069217948243022" lon="8.838402908295393">
        <ele>1105.2</ele>
        <time>2020-01-06T13:45:32Z</time>
      </trkpt>
      <trkpt lat="46.069251140579581" lon="8.838302157819271">
        <ele>1102.6400000000001</ele>
        <time>2020-01-06T13:45:45Z</time>
      </trkpt>
      <trkpt lat="46.06925792992115" lon="8.838222194463015">
        <ele>1100.1900000000001</ele>
        <time>2020-01-06T13:45:53Z</time>
      </trkpt>
      <trkpt lat="46.069255582988262" lon="8.838053215295076">
        <ele>1096.95</ele>
        <time>2020-01-06T13:46:05Z</time>
      </trkpt>
      <trkpt lat="46.069288356229663" lon="8.837910303846002">
        <ele>1094.9200000000001</ele>
        <time>2020-01-06T13:46:15Z</time>
      </trkpt>
      <trkpt lat="46.069260193035007" lon="8.837832184508443">
        <ele>1093.6199999999999</ele>
        <time>2020-01-06T13:46:24Z</time>
      </trkpt>
      <trkpt lat="46.069243345409632" lon="8.837796561419964">
        <ele>1092.77</ele>
        <time>2020-01-06T13:46:27Z</time>
      </trkpt>
      <trkpt lat="46.06917092576623" lon="8.837622972205281">
        <ele>1089.2</ele>
        <time>2020-01-06T13:46:41Z</time>
      </trkpt>
      <trkpt lat="46.069123232737184" lon="8.837560694664717">
        <ele>1087.3699999999999</ele>
        <time>2020-01-06T13:46:51Z</time>
      </trkpt>
      <trkpt lat="46.069027008488774" lon="8.837462877854705">
        <ele>1084.5999999999999</ele>
        <time>2020-01-06T13:47:03Z</time>
      </trkpt>
      <trkpt lat="46.068953415378928" lon="8.837351817637682">
        <ele>1082.4400000000001</ele>
        <time>2020-01-06T13:47:14Z</time>
      </trkpt>
      <trkpt lat="46.068883426487446" lon="8.83729993365705">
        <ele>1081.0699999999999</ele>
        <time>2020-01-06T13:47:22Z</time>
      </trkpt>
      <trkpt lat="46.068744538351893" lon="8.837172361090779">
        <ele>1077.7</ele>
        <time>2020-01-06T13:47:37Z</time>
      </trkpt>
      <trkpt lat="46.068644290789962" lon="8.837108071893454">
        <ele>1075.98</ele>
        <time>2020-01-06T13:47:48Z</time>
      </trkpt>
      <trkpt lat="46.068578660488129" lon="8.836954599246383">
        <ele>1074.29</ele>
        <time>2020-01-06T13:48:00Z</time>
      </trkpt>
      <trkpt lat="46.06856307014823" lon="8.836747566238046">
        <ele>1072.8699999999999</ele>
        <time>2020-01-06T13:48:13Z</time>
      </trkpt>
      <trkpt lat="46.068621994927526" lon="8.83658847771585">
        <ele>1070.74</ele>
        <time>2020-01-06T13:48:25Z</time>
      </trkpt>
      <trkpt lat="46.068685781210661" lon="8.836431065574288">
        <ele>1069.0699999999999</ele>
        <time>2020-01-06T13:48:37Z</time>
      </trkpt>
      <trkpt lat="46.068679494783282" lon="8.836384546011686">
        <ele>1067.9200000000001</ele>
        <time>2020-01-06T13:48:41Z</time>
      </trkpt>
      <trkpt lat="46.068646553903818" lon="8.836172567680478">
        <ele>1065.6099999999999</ele>
        <time>2020-01-06T13:48:54Z</time>
      </trkpt>
      <trkpt lat="46.068712854757905" lon="8.835977353155613">
        <ele>1063.5699999999999</ele>
        <time>2020-01-06T13:49:08Z</time>
      </trkpt>
      <trkpt lat="46.068834057077765" lon="8.835893617942929">
        <ele>1061.4300000000001</ele>
        <time>2020-01-06T13:49:20Z</time>
      </trkpt>
      <trkpt lat="46.068974118679762" lon="8.835893115028739">
        <ele>1058.55</ele>
        <time>2020-01-06T13:49:33Z</time>
      </trkpt>
      <trkpt lat="46.068995073437691" lon="8.835899401456118">
        <ele>1058.1700000000001</ele>
        <time>2020-01-06T13:49:36Z</time>
      </trkpt>
      <trkpt lat="46.069047544151545" lon="8.835903005674481">
        <ele>1057.28</ele>
        <time>2020-01-06T13:49:41Z</time>
      </trkpt>
      <trkpt lat="46.069104121997952" lon="8.835783898830414">
        <ele>1055.0999999999999</ele>
        <time>2020-01-06T13:49:52Z</time>
      </trkpt>
      <trkpt lat="46.069121137261391" lon="8.835749197751284">
        <ele>1053.78</ele>
        <time>2020-01-06T13:49:55Z</time>
      </trkpt>
      <trkpt lat="46.069204872474074" lon="8.835549373179674">
        <ele>1050.21</ele>
        <time>2020-01-06T13:50:10Z</time>
      </trkpt>
      <trkpt lat="46.069285003468394" lon="8.835486928001046">
        <ele>1047.05</ele>
        <time>2020-01-06T13:50:20Z</time>
      </trkpt>
      <trkpt lat="46.069359183311462" lon="8.835441330447793">
        <ele>1045.26</ele>
        <time>2020-01-06T13:50:28Z</time>
      </trkpt>
      <trkpt lat="46.069375863298774" lon="8.835425488650799">
        <ele>1044.8399999999999</ele>
        <time>2020-01-06T13:50:30Z</time>
      </trkpt>
      <trkpt lat="46.069387933239341" lon="8.835364133119583">
        <ele>1044.8399999999999</ele>
        <time>2020-01-06T13:50:35Z</time>
      </trkpt>
      <trkpt lat="46.069349460303783" lon="8.835167912766337">
        <ele>1044.9300000000001</ele>
        <time>2020-01-06T13:50:48Z</time>
      </trkpt>
      <trkpt lat="46.069322554394603" lon="8.83492031134665">
        <ele>1044.99</ele>
        <time>2020-01-06T13:51:03Z</time>
      </trkpt>
      <trkpt lat="46.069275867193937" lon="8.834692658856511">
        <ele>1043.6600000000001</ele>
        <time>2020-01-06T13:51:17Z</time>
      </trkpt>
      <trkpt lat="46.069287769496441" lon="8.834553183987737">
        <ele>1043.0699999999999</ele>
        <time>2020-01-06T13:51:27Z</time>
      </trkpt>
      <trkpt lat="46.069401428103447" lon="8.834430808201432">
        <ele>1042.1500000000001</ele>
        <time>2020-01-06T13:51:40Z</time>
      </trkpt>
      <trkpt lat="46.069518942385912" lon="8.83444924838841">
        <ele>1041.5799999999999</ele>
        <time>2020-01-06T13:51:52Z</time>
      </trkpt>
      <trkpt lat="46.069675013422966" lon="8.834453020244837">
        <ele>1041.5999999999999</ele>
        <time>2020-01-06T13:52:05Z</time>
      </trkpt>
      <trkpt lat="46.069771153852344" lon="8.834438351914287">
        <ele>1042.0699999999999</ele>
        <time>2020-01-06T13:52:13Z</time>
      </trkpt>
      <trkpt lat="46.06990048661828" lon="8.834335086867213">
        <ele>1042.3499999999999</ele>
        <time>2020-01-06T13:52:25Z</time>
      </trkpt>
      <trkpt lat="46.06997667811811" lon="8.83420935831964">
        <ele>1041.9000000000001</ele>
        <time>2020-01-06T13:52:36Z</time>
      </trkpt>
      <trkpt lat="46.070016575977206" lon="8.834143979474902">
        <ele>1041.6300000000001</ele>
        <time>2020-01-06T13:52:42Z</time>
      </trkpt>
      <trkpt lat="46.07004658319056" lon="8.834050353616476">
        <ele>1040.99</ele>
        <time>2020-01-06T13:52:54Z</time>
      </trkpt>
      <trkpt lat="46.070050187408924" lon="8.834038032218814">
        <ele>1040.4300000000001</ele>
        <time>2020-01-06T13:53:08Z</time>
      </trkpt>
      <trkpt lat="46.070062424987555" lon="8.833989668637514">
        <ele>1040.0999999999999</ele>
        <time>2020-01-06T13:53:20Z</time>
      </trkpt>
      <trkpt lat="46.070106932893395" lon="8.833935689181089">
        <ele>1038.54</ele>
        <time>2020-01-06T13:53:33Z</time>
      </trkpt>
      <trkpt lat="46.070105843245983" lon="8.833926720544696">
        <ele>1038.5799999999999</ele>
        <time>2020-01-06T13:53:36Z</time>
      </trkpt>
      <trkpt lat="46.070128977298737" lon="8.833872154355049">
        <ele>1037.8699999999999</ele>
        <time>2020-01-06T13:53:41Z</time>
      </trkpt>
      <trkpt lat="46.070165438577533" lon="8.83383016102016">
        <ele>1036.0799999999999</ele>
        <time>2020-01-06T13:53:46Z</time>
      </trkpt>
      <trkpt lat="46.070198882371187" lon="8.83381649851799">
        <ele>1035.24</ele>
        <time>2020-01-06T13:53:49Z</time>
      </trkpt>
      <trkpt lat="46.070254538208246" lon="8.833739887923002">
        <ele>1032.77</ele>
        <time>2020-01-06T13:53:58Z</time>
      </trkpt>
      <trkpt lat="46.070301560685039" lon="8.833701834082604">
        <ele>1030.54</ele>
        <time>2020-01-06T13:54:06Z</time>
      </trkpt>
      <trkpt lat="46.070305667817593" lon="8.833659505471587">
        <ele>1029.52</ele>
        <time>2020-01-06T13:54:09Z</time>
      </trkpt>
      <trkpt lat="46.070345146581531" lon="8.833545846864581">
        <ele>1027.4400000000001</ele>
        <time>2020-01-06T13:54:18Z</time>
      </trkpt>
      <trkpt lat="46.07040080241859" lon="8.833432858809829">
        <ele>1024.6300000000001</ele>
        <time>2020-01-06T13:54:30Z</time>
      </trkpt>
      <trkpt lat="46.070410860702395" lon="8.8334084674716">
        <ele>1024.04</ele>
        <time>2020-01-06T13:54:32Z</time>
      </trkpt>
      <trkpt lat="46.070468444377184" lon="8.833282487466931">
        <ele>1020.4400000000001</ele>
        <time>2020-01-06T13:54:44Z</time>
      </trkpt>
      <trkpt lat="46.070524519309402" lon="8.833259101957083">
        <ele>1018.62</ele>
        <time>2020-01-06T13:54:56Z</time>
      </trkpt>
      <trkpt lat="46.070581683889031" lon="8.833176288753748">
        <ele>1015.97</ele>
        <time>2020-01-06T13:55:06Z</time>
      </trkpt>
      <trkpt lat="46.070602303370833" lon="8.833108227699995">
        <ele>1015.16</ele>
        <time>2020-01-06T13:55:11Z</time>
      </trkpt>
      <trkpt lat="46.070603393018246" lon="8.83292181417346">
        <ele>1012.1799999999999</ele>
        <time>2020-01-06T13:55:23Z</time>
      </trkpt>
      <trkpt lat="46.070594005286694" lon="8.832839420065284">
        <ele>1011.14</ele>
        <time>2020-01-06T13:55:28Z</time>
      </trkpt>
      <trkpt lat="46.070607751607895" lon="8.832631045952439">
        <ele>1008.13</ele>
        <time>2020-01-06T13:55:40Z</time>
      </trkpt>
      <trkpt lat="46.07066173106432" lon="8.832543455064297">
        <ele>1007</ele>
        <time>2020-01-06T13:55:46Z</time>
      </trkpt>
      <trkpt lat="46.070663491263986" lon="8.832458378747106">
        <ele>1006.15</ele>
        <time>2020-01-06T13:55:51Z</time>
      </trkpt>
      <trkpt lat="46.070554861798882" lon="8.832267438992858">
        <ele>1004.78</ele>
        <time>2020-01-06T13:56:04Z</time>
      </trkpt>
      <trkpt lat="46.070526530966163" lon="8.83223676122725">
        <ele>1003.98</ele>
        <time>2020-01-06T13:56:07Z</time>
      </trkpt>
      <trkpt lat="46.070480514317751" lon="8.832157636061311">
        <ele>1002.58</ele>
        <time>2020-01-06T13:56:14Z</time>
      </trkpt>
      <trkpt lat="46.070392839610577" lon="8.831964852288365">
        <ele>999.74000000000001</ele>
        <time>2020-01-06T13:56:28Z</time>
      </trkpt>
      <trkpt lat="46.070370459929109" lon="8.831712221726775">
        <ele>998.42999999999995</ele>
        <time>2020-01-06T13:56:41Z</time>
      </trkpt>
      <trkpt lat="46.070359814912081" lon="8.831431427970529">
        <ele>996.97000000000003</ele>
        <time>2020-01-06T13:56:56Z</time>
      </trkpt>
      <trkpt lat="46.070364592596889" lon="8.831421788781881">
        <ele>996.89999999999998</ele>
        <time>2020-01-06T13:56:57Z</time>
      </trkpt>
      <trkpt lat="46.070375572890043" lon="8.831395301967859">
        <ele>996.76999999999998</ele>
        <time>2020-01-06T13:56:59Z</time>
      </trkpt>
      <trkpt lat="46.070378925651312" lon="8.83135087788105">
        <ele>996.50999999999999</ele>
        <time>2020-01-06T13:57:02Z</time>
      </trkpt>
      <trkpt lat="46.070382446050644" lon="8.831320786848664">
        <ele>996.04999999999995</ele>
        <time>2020-01-06T13:57:04Z</time>
      </trkpt>
      <trkpt lat="46.070378422737122" lon="8.831252893432975">
        <ele>995.57000000000005</ele>
        <time>2020-01-06T13:57:08Z</time>
      </trkpt>
      <trkpt lat="46.070333244279027" lon="8.831034796312451">
        <ele>992.87</ele>
        <time>2020-01-06T13:57:22Z</time>
      </trkpt>
      <trkpt lat="46.070323185995221" lon="8.830828182399273">
        <ele>990.53999999999996</ele>
        <time>2020-01-06T13:57:34Z</time>
      </trkpt>
      <trkpt lat="46.070317653939128" lon="8.830606732517481">
        <ele>987.72000000000003</ele>
        <time>2020-01-06T13:57:47Z</time>
      </trkpt>
      <trkpt lat="46.070301393046975" lon="8.83046742528677">
        <ele>984.59000000000003</ele>
        <time>2020-01-06T13:57:57Z</time>
      </trkpt>
      <trkpt lat="46.070338021963835" lon="8.830263409763575">
        <ele>981.52999999999997</ele>
        <time>2020-01-06T13:58:11Z</time>
      </trkpt>
      <trkpt lat="46.0703778360039" lon="8.830114044249058">
        <ele>978.47000000000003</ele>
        <time>2020-01-06T13:58:22Z</time>
      </trkpt>
      <trkpt lat="46.070422008633614" lon="8.829987812787294">
        <ele>975.47000000000003</ele>
        <time>2020-01-06T13:58:33Z</time>
      </trkpt>
      <trkpt lat="46.070479759946465" lon="8.829923272132874">
        <ele>972.54999999999995</ele>
        <time>2020-01-06T13:58:43Z</time>
      </trkpt>
      <trkpt lat="46.070559471845627" lon="8.829876501113176">
        <ele>969.82000000000005</ele>
        <time>2020-01-06T13:58:53Z</time>
      </trkpt>
      <trkpt lat="46.070633064955473" lon="8.829830652102828">
        <ele>966.67999999999995</ele>
        <time>2020-01-06T13:59:04Z</time>
      </trkpt>
      <trkpt lat="46.070748651400208" lon="8.829783042892814">
        <ele>963.63999999999999</ele>
        <time>2020-01-06T13:59:13Z</time>
      </trkpt>
      <trkpt lat="46.070852922275662" lon="8.829742139205337">
        <ele>960.63</ele>
        <time>2020-01-06T13:59:24Z</time>
      </trkpt>
      <trkpt lat="46.070939255878329" lon="8.829739959910512">
        <ele>958.49000000000001</ele>
        <time>2020-01-06T13:59:34Z</time>
      </trkpt>
      <trkpt lat="46.071047969162464" lon="8.829726213589311">
        <ele>956.72000000000003</ele>
        <time>2020-01-06T13:59:44Z</time>
      </trkpt>
      <trkpt lat="46.071087112650275" lon="8.829674832522869">
        <ele>956.04999999999995</ele>
        <time>2020-01-06T13:59:49Z</time>
      </trkpt>
      <trkpt lat="46.071084514260292" lon="8.829582631587982">
        <ele>954.13999999999999</ele>
        <time>2020-01-06T13:59:56Z</time>
      </trkpt>
      <trkpt lat="46.071011675521731" lon="8.829471403732896">
        <ele>950.73000000000002</ele>
        <time>2020-01-06T14:00:10Z</time>
      </trkpt>
      <trkpt lat="46.070984853431582" lon="8.829315584152937">
        <ele>947.61000000000001</ele>
        <time>2020-01-06T14:00:23Z</time>
      </trkpt>
      <trkpt lat="46.070907069370151" lon="8.829167475923896">
        <ele>945.67999999999995</ele>
        <time>2020-01-06T14:00:36Z</time>
      </trkpt>
      <trkpt lat="46.070892233401537" lon="8.829154735431075">
        <ele>945.11000000000001</ele>
        <time>2020-01-06T14:00:38Z</time>
      </trkpt>
      <trkpt lat="46.07085233554244" lon="8.829001262784004">
        <ele>944.15999999999997</ele>
        <time>2020-01-06T14:00:47Z</time>
      </trkpt>
      <trkpt lat="46.070841271430254" lon="8.828933704644442">
        <ele>943.94000000000005</ele>
        <time>2020-01-06T14:00:52Z</time>
      </trkpt>
      <trkpt lat="46.070842696353793" lon="8.828879976645112">
        <ele>943.40999999999997</ele>
        <time>2020-01-06T14:00:56Z</time>
      </trkpt>
      <trkpt lat="46.070819143205881" lon="8.828698927536607">
        <ele>941.44000000000005</ele>
        <time>2020-01-06T14:01:08Z</time>
      </trkpt>
      <trkpt lat="46.070829033851624" lon="8.828568421304226">
        <ele>940.75</ele>
        <time>2020-01-06T14:01:17Z</time>
      </trkpt>
      <trkpt lat="46.070844624191523" lon="8.828402040526271">
        <ele>939.53999999999996</ele>
        <time>2020-01-06T14:01:28Z</time>
      </trkpt>
      <trkpt lat="46.070826770737767" lon="8.828292489051819">
        <ele>938.24000000000001</ele>
        <time>2020-01-06T14:01:39Z</time>
      </trkpt>
      <trkpt lat="46.070804055780172" lon="8.828264912590385">
        <ele>938.05999999999995</ele>
        <time>2020-01-06T14:01:55Z</time>
      </trkpt>
      <trkpt lat="46.070691654458642" lon="8.828170699998736">
        <ele>937.58000000000004</ele>
        <time>2020-01-06T14:02:05Z</time>
      </trkpt>
      <trkpt lat="46.070722080767155" lon="8.828186793252826">
        <ele>937.82000000000005</ele>
        <time>2020-01-06T14:02:19Z</time>
      </trkpt>
      <trkpt lat="46.070735156536102" lon="8.828189810737968">
        <ele>937.80999999999995</ele>
        <time>2020-01-06T14:02:37Z</time>
      </trkpt>
      <trkpt lat="46.070736832916737" lon="8.82819727063179">
        <ele>937.84000000000003</ele>
        <time>2020-01-06T14:02:53Z</time>
      </trkpt>
      <trkpt lat="46.070756614208221" lon="8.828224427998066">
        <ele>937.88999999999999</ele>
        <time>2020-01-06T14:03:11Z</time>
      </trkpt>
      <trkpt lat="46.070758039131761" lon="8.828244293108583">
        <ele>938.16999999999996</ele>
        <time>2020-01-06T14:03:32Z</time>
      </trkpt>
      <trkpt lat="46.070758793503046" lon="8.828267594799399">
        <ele>937.80999999999995</ele>
        <time>2020-01-06T14:03:40Z</time>
      </trkpt>
      <trkpt lat="46.070714620873332" lon="8.828301541507244">
        <ele>937.22000000000003</ele>
        <time>2020-01-06T14:04:07Z</time>
      </trkpt>
      <trkpt lat="46.070724260061979" lon="8.828319981694222">
        <ele>933.02999999999997</ele>
        <time>2020-01-06T14:04:14Z</time>
      </trkpt>
      <trkpt lat="46.070725601166487" lon="8.828318892046809">
        <ele>929.75</ele>
        <time>2020-01-06T14:04:15Z</time>
      </trkpt>
      <trkpt lat="46.070726690813899" lon="8.828319394961">
        <ele>933.83000000000004</ele>
        <time>2020-01-06T14:04:16Z</time>
      </trkpt>
      <trkpt lat="46.070728870108724" lon="8.828314868733287">
        <ele>936.88999999999999</ele>
        <time>2020-01-06T14:04:19Z</time>
      </trkpt>
      <trkpt lat="46.070745633915067" lon="8.828368596732616">
        <ele>939.15999999999997</ele>
        <time>2020-01-06T14:04:32Z</time>
      </trkpt>
      <trkpt lat="46.07074580155313" lon="8.828373122960329">
        <ele>936.23000000000002</ele>
        <time>2020-01-06T14:04:34Z</time>
      </trkpt>
      <trkpt lat="46.070743873715401" lon="8.828373961150646">
        <ele>941.11000000000001</ele>
        <time>2020-01-06T14:04:35Z</time>
      </trkpt>
      <trkpt lat="46.070743873715401" lon="8.828373961150646">
        <ele>946.77999999999997</ele>
        <time>2020-01-06T14:04:36Z</time>
      </trkpt>
      <trkpt lat="46.070745047181845" lon="8.828371027484536">
        <ele>941.83000000000004</ele>
        <time>2020-01-06T14:04:37Z</time>
      </trkpt>
      <trkpt lat="46.070745214819908" lon="8.828367171809077">
        <ele>938.13</ele>
        <time>2020-01-06T14:04:39Z</time>
      </trkpt>
      <trkpt lat="46.070743203163147" lon="8.828365663066506">
        <ele>937.98000000000002</ele>
        <time>2020-01-06T14:04:40Z</time>
      </trkpt>
      <trkpt lat="46.070654103532434" lon="8.828254183754325">
        <ele>940.00999999999999</ele>
        <time>2020-01-06T14:12:48Z</time>
      </trkpt>
      <trkpt lat="46.070799864828587" lon="8.828186541795731">
        <ele>940.39999999999998</ele>
        <time>2020-01-06T14:13:16Z</time>
      </trkpt>
      <trkpt lat="46.070781173184514" lon="8.828171622008085">
        <ele>940.15999999999997</ele>
        <time>2020-01-06T14:13:35Z</time>
      </trkpt>
      <trkpt lat="46.070803133770823" lon="8.828179920092225">
        <ele>940.52999999999997</ele>
        <time>2020-01-06T14:13:49Z</time>
      </trkpt>
      <trkpt lat="46.070817802101374" lon="8.82818260230124">
        <ele>940.52999999999997</ele>
        <time>2020-01-06T14:14:05Z</time>
      </trkpt>
      <trkpt lat="46.070819227024913" lon="8.828200371935964">
        <ele>941.04999999999995</ele>
        <time>2020-01-06T14:14:18Z</time>
      </trkpt>
      <trkpt lat="46.070806737989187" lon="8.828198192641139">
        <ele>940.76999999999998</ele>
        <time>2020-01-06T14:14:34Z</time>
      </trkpt>
      <trkpt lat="46.070824842900038" lon="8.82823783904314">
        <ele>940.94000000000005</ele>
        <time>2020-01-06T14:14:59Z</time>
      </trkpt>
      <trkpt lat="46.070821657776833" lon="8.828223673626781">
        <ele>940.80999999999995</ele>
        <time>2020-01-06T14:15:17Z</time>
      </trkpt>
      <trkpt lat="46.070823753252625" lon="8.828237503767014">
        <ele>940.97000000000003</ele>
        <time>2020-01-06T14:15:33Z</time>
      </trkpt>
      <trkpt lat="46.070805815979838" lon="8.828232474625111">
        <ele>941.08000000000004</ele>
        <time>2020-01-06T14:15:50Z</time>
      </trkpt>
      <trkpt lat="46.070787711068988" lon="8.828213699162006">
        <ele>941.09000000000003</ele>
        <time>2020-01-06T14:16:05Z</time>
      </trkpt>
      <trkpt lat="46.070763319730759" lon="8.82818897254765">
        <ele>940.85000000000002</ele>
        <time>2020-01-06T14:16:22Z</time>
      </trkpt>
      <trkpt lat="46.070775976404548" lon="8.828187547624111">
        <ele>940.95000000000005</ele>
        <time>2020-01-06T14:16:41Z</time>
      </trkpt>
      <trkpt lat="46.070785028859973" lon="8.828197354450822">
        <ele>941.07000000000005</ele>
        <time>2020-01-06T14:17:03Z</time>
      </trkpt>
      <trkpt lat="46.070782262831926" lon="8.828198276460171">
        <ele>941.22000000000003</ele>
        <time>2020-01-06T14:17:26Z</time>
      </trkpt>
      <trkpt lat="46.070764744654298" lon="8.828189559280872">
        <ele>940.5</ele>
        <time>2020-01-06T14:17:46Z</time>
      </trkpt>
      <trkpt lat="46.070771785452962" lon="8.828206993639469">
        <ele>941.17999999999995</ele>
        <time>2020-01-06T14:18:07Z</time>
      </trkpt>
      <trkpt lat="46.070791399106383" lon="8.828210094943643">
        <ele>940.74000000000001</ele>
        <time>2020-01-06T14:18:24Z</time>
      </trkpt>
      <trkpt lat="46.070806151255965" lon="8.828205820173025">
        <ele>940.84000000000003</ele>
        <time>2020-01-06T14:18:44Z</time>
      </trkpt>
      <trkpt lat="46.070812772959471" lon="8.828211771324277">
        <ele>940.96000000000004</ele>
        <time>2020-01-06T14:18:59Z</time>
      </trkpt>
      <trkpt lat="46.070767594501376" lon="8.82819090038538">
        <ele>941.11000000000001</ele>
        <time>2020-01-06T14:19:18Z</time>
      </trkpt>
      <trkpt lat="46.070785531774163" lon="8.828196683898568">
        <ele>941.55999999999995</ele>
        <time>2020-01-06T14:19:36Z</time>
      </trkpt>
      <trkpt lat="46.070757117122412" lon="8.828177908435464">
        <ele>940.90999999999997</ele>
        <time>2020-01-06T14:19:55Z</time>
      </trkpt>
      <trkpt lat="46.070767426863313" lon="8.828131640329957">
        <ele>941.02999999999997</ele>
        <time>2020-01-06T14:20:11Z</time>
      </trkpt>
      <trkpt lat="46.070789638906717" lon="8.828015383332968">
        <ele>939.36000000000001</ele>
        <time>2020-01-06T14:20:18Z</time>
      </trkpt>
      <trkpt lat="46.07082886621356" lon="8.827883955091238">
        <ele>937.88</ele>
        <time>2020-01-06T14:20:26Z</time>
      </trkpt>
      <trkpt lat="46.070842696353793" lon="8.827739618718624">
        <ele>935.88999999999999</ele>
        <time>2020-01-06T14:20:36Z</time>
      </trkpt>
      <trkpt lat="46.070815790444613" lon="8.827708940953016">
        <ele>935.50999999999999</ele>
        <time>2020-01-06T14:20:38Z</time>
      </trkpt>
      <trkpt lat="46.070791147649288" lon="8.82750341668725">
        <ele>934.34000000000003</ele>
        <time>2020-01-06T14:20:49Z</time>
      </trkpt>
      <trkpt lat="46.070793159306049" lon="8.827413562685251">
        <ele>933.67999999999995</ele>
        <time>2020-01-06T14:20:55Z</time>
      </trkpt>
      <trkpt lat="46.070777820423245" lon="8.827312979847193">
        <ele>932.96000000000004</ele>
        <time>2020-01-06T14:21:01Z</time>
      </trkpt>
      <trkpt lat="46.070741023868322" lon="8.827204015105963">
        <ele>932.54999999999995</ele>
        <time>2020-01-06T14:21:11Z</time>
      </trkpt>
      <trkpt lat="46.070685032755136" lon="8.827137127518654">
        <ele>930.45000000000005</ele>
        <time>2020-01-06T14:21:19Z</time>
      </trkpt>
      <trkpt lat="46.070677908137441" lon="8.827143665403128">
        <ele>930.03999999999996</ele>
        <time>2020-01-06T14:21:20Z</time>
      </trkpt>
      <trkpt lat="46.070655612275004" lon="8.827021792531014">
        <ele>928.21000000000004</ele>
        <time>2020-01-06T14:21:26Z</time>
      </trkpt>
      <trkpt lat="46.070665419101715" lon="8.826895644888282">
        <ele>926.53999999999996</ele>
        <time>2020-01-06T14:21:32Z</time>
      </trkpt>
      <trkpt lat="46.070692073553801" lon="8.8267841655761">
        <ele>925.24000000000001</ele>
        <time>2020-01-06T14:21:38Z</time>
      </trkpt>
      <trkpt lat="46.070844875648618" lon="8.826665645465255">
        <ele>922.90999999999997</ele>
        <time>2020-01-06T14:21:49Z</time>
      </trkpt>
      <trkpt lat="46.070863315835595" lon="8.826652569696307">
        <ele>922.44000000000005</ele>
        <time>2020-01-06T14:21:58Z</time>
      </trkpt>
      <trkpt lat="46.070872871205211" lon="8.826625663787127">
        <ele>922.09000000000003</ele>
        <time>2020-01-06T14:22:06Z</time>
      </trkpt>
      <trkpt lat="46.070920815691352" lon="8.826557183638215">
        <ele>920.79999999999995</ele>
        <time>2020-01-06T14:22:16Z</time>
      </trkpt>
      <trkpt lat="46.070996588096023" lon="8.826533630490303">
        <ele>919.63999999999999</ele>
        <time>2020-01-06T14:22:23Z</time>
      </trkpt>
      <trkpt lat="46.071045538410544" lon="8.826510580256581">
        <ele>919.97000000000003</ele>
        <time>2020-01-06T14:22:27Z</time>
      </trkpt>
      <trkpt lat="46.071140505373478" lon="8.826463725417852">
        <ele>919.27999999999997</ele>
        <time>2020-01-06T14:22:38Z</time>
      </trkpt>
      <trkpt lat="46.071137990802526" lon="8.826574953272939">
        <ele>922.57000000000005</ele>
        <time>2020-01-06T14:22:49Z</time>
      </trkpt>
      <trkpt lat="46.071146791800857" lon="8.826593644917011">
        <ele>923.62</ele>
        <time>2020-01-06T14:22:53Z</time>
      </trkpt>
      <trkpt lat="46.071088202297688" lon="8.826582580804825">
        <ele>924.26999999999998</ele>
        <time>2020-01-06T14:22:59Z</time>
      </trkpt>
      <trkpt lat="46.071028858423233" lon="8.826580988243222">
        <ele>924.92999999999995</ele>
        <time>2020-01-06T14:23:06Z</time>
      </trkpt>
      <trkpt lat="46.071013519540429" lon="8.826621724292636">
        <ele>926.21000000000004</ele>
        <time>2020-01-06T14:23:21Z</time>
      </trkpt>
      <trkpt lat="46.07102139852941" lon="8.826692048460245">
        <ele>928.16999999999996</ele>
        <time>2020-01-06T14:23:35Z</time>
      </trkpt>
      <trkpt lat="46.071057608351111" lon="8.826709818094969">
        <ele>930.09000000000003</ele>
        <time>2020-01-06T14:23:41Z</time>
      </trkpt>
      <trkpt lat="46.071085100993514" lon="8.826709231361747">
        <ele>930.41999999999996</ele>
        <time>2020-01-06T14:23:44Z</time>
      </trkpt>
      <trkpt lat="46.071179984137416" lon="8.826709063723683">
        <ele>930.29999999999995</ele>
        <time>2020-01-06T14:23:55Z</time>
      </trkpt>
      <trkpt lat="46.071211164817214" lon="8.826733622699976">
        <ele>931.70000000000005</ele>
        <time>2020-01-06T14:24:03Z</time>
      </trkpt>
      <trkpt lat="46.071155508980155" lon="8.826728761196137">
        <ele>932.66999999999996</ele>
        <time>2020-01-06T14:24:09Z</time>
      </trkpt>
      <trkpt lat="46.07103162445128" lon="8.826739154756069">
        <ele>935.25999999999999</ele>
        <time>2020-01-06T14:24:24Z</time>
      </trkpt>
      <trkpt lat="46.070924839004874" lon="8.826807215809822">
        <ele>936.91999999999996</ele>
        <time>2020-01-06T14:24:38Z</time>
      </trkpt>
      <trkpt lat="46.070895753800869" lon="8.826951384544373">
        <ele>939.63</ele>
        <time>2020-01-06T14:24:53Z</time>
      </trkpt>
      <trkpt lat="46.070899274200201" lon="8.826965885236859">
        <ele>939.73000000000002</ele>
        <time>2020-01-06T14:24:54Z</time>
      </trkpt>
      <trkpt lat="46.070888880640268" lon="8.827086081728339">
        <ele>943.24000000000001</ele>
        <time>2020-01-06T14:25:06Z</time>
      </trkpt>
      <trkpt lat="46.070889132097363" lon="8.827153639867902">
        <ele>945.33000000000004</ele>
        <time>2020-01-06T14:25:18Z</time>
      </trkpt>
      <trkpt lat="46.070872033014894" lon="8.827156070619822">
        <ele>945.40999999999997</ele>
        <time>2020-01-06T14:25:24Z</time>
      </trkpt>
      <trkpt lat="46.070901537314057" lon="8.827173002064228">
        <ele>945.55999999999995</ele>
        <time>2020-01-06T14:25:29Z</time>
      </trkpt>
      <trkpt lat="46.070957444608212" lon="8.827172834426165">
        <ele>946.25</ele>
        <time>2020-01-06T14:25:39Z</time>
      </trkpt>
      <trkpt lat="46.070970352739096" lon="8.827181048691273">
        <ele>947.47000000000003</ele>
        <time>2020-01-06T14:25:50Z</time>
      </trkpt>
      <trkpt lat="46.07098619453609" lon="8.8271071203053">
        <ele>948.42999999999995</ele>
        <time>2020-01-06T14:26:00Z</time>
      </trkpt>
      <trkpt lat="46.07097982428968" lon="8.827049704268575">
        <ele>948.40999999999997</ele>
        <time>2020-01-06T14:26:11Z</time>
      </trkpt>
      <trkpt lat="46.070984015241265" lon="8.827066719532013">
        <ele>948.57000000000005</ele>
        <time>2020-01-06T14:26:15Z</time>
      </trkpt>
      <trkpt lat="46.071010585874319" lon="8.827038975432515">
        <ele>947.25</ele>
        <time>2020-01-06T14:26:27Z</time>
      </trkpt>
      <trkpt lat="46.071028606966138" lon="8.827035538852215">
        <ele>947.45000000000005</ele>
        <time>2020-01-06T14:26:41Z</time>
      </trkpt>
      <trkpt lat="46.071035396307707" lon="8.82702992297709">
        <ele>947.63</ele>
        <time>2020-01-06T14:26:59Z</time>
      </trkpt>
      <trkpt lat="46.070967586711049" lon="8.827090691775084">
        <ele>948.36000000000001</ele>
        <time>2020-01-06T14:27:15Z</time>
      </trkpt>
      <trkpt lat="46.070967167615891" lon="8.827104605734348">
        <ele>948.36000000000001</ele>
        <time>2020-01-06T14:27:28Z</time>
      </trkpt>
      <trkpt lat="46.070984769612551" lon="8.827139474451542">
        <ele>948.40999999999997</ele>
        <time>2020-01-06T14:27:31Z</time>
      </trkpt>
      <trkpt lat="46.071094991639256" lon="8.827132936567068">
        <ele>950.30999999999995</ele>
        <time>2020-01-06T14:27:42Z</time>
      </trkpt>
      <trkpt lat="46.071152994409204" lon="8.827144922688603">
        <ele>950.98000000000002</ele>
        <time>2020-01-06T14:27:51Z</time>
      </trkpt>
      <trkpt lat="46.071161795407534" lon="8.827144335955381">
        <ele>950.92999999999995</ele>
        <time>2020-01-06T14:27:54Z</time>
      </trkpt>
      <trkpt lat="46.071190545335412" lon="8.827140145003796">
        <ele>951.02999999999997</ele>
        <time>2020-01-06T14:27:57Z</time>
      </trkpt>
      <trkpt lat="46.071374025195837" lon="8.827157160267234">
        <ele>949.79999999999995</ele>
        <time>2020-01-06T14:28:13Z</time>
      </trkpt>
      <trkpt lat="46.071390705183148" lon="8.827154310420156">
        <ele>949.67999999999995</ele>
        <time>2020-01-06T14:28:27Z</time>
      </trkpt>
      <trkpt lat="46.0713932197541" lon="8.827161686494947">
        <ele>949.72000000000003</ele>
        <time>2020-01-06T14:28:33Z</time>
      </trkpt>
      <trkpt lat="46.071488773450255" lon="8.82722438313067">
        <ele>949.59000000000003</ele>
        <time>2020-01-06T14:28:44Z</time>
      </trkpt>
      <trkpt lat="46.071524899452925" lon="8.827266963198781">
        <ele>949.49000000000001</ele>
        <time>2020-01-06T14:28:49Z</time>
      </trkpt>
      <trkpt lat="46.071638725697994" lon="8.827354973182082">
        <ele>949.20000000000005</ele>
        <time>2020-01-06T14:29:01Z</time>
      </trkpt>
      <trkpt lat="46.071697231382132" lon="8.82737735286355">
        <ele>949.25</ele>
        <time>2020-01-06T14:29:14Z</time>
      </trkpt>
      <trkpt lat="46.071713492274284" lon="8.827410293743014">
        <ele>949.25</ele>
        <time>2020-01-06T14:29:18Z</time>
      </trkpt>
      <trkpt lat="46.071756994351745" lon="8.827524790540338">
        <ele>949.17999999999995</ele>
        <time>2020-01-06T14:29:32Z</time>
      </trkpt>
      <trkpt lat="46.071756491437554" lon="8.827517498284578">
        <ele>949.10000000000002</ele>
        <time>2020-01-06T14:29:41Z</time>
      </trkpt>
      <trkpt lat="46.071739476174116" lon="8.827483216300607">
        <ele>948.79999999999995</ele>
        <time>2020-01-06T14:29:52Z</time>
      </trkpt>
      <trkpt lat="46.071719862520695" lon="8.827440803870559">
        <ele>948.74000000000001</ele>
        <time>2020-01-06T14:30:02Z</time>
      </trkpt>
      <trkpt lat="46.071598744019866" lon="8.827356230467558">
        <ele>948.63</ele>
        <time>2020-01-06T14:30:14Z</time>
      </trkpt>
      <trkpt lat="46.071498328819871" lon="8.827278865501285">
        <ele>949.03999999999996</ele>
        <time>2020-01-06T14:30:25Z</time>
      </trkpt>
      <trkpt lat="46.071350052952766" lon="8.82716772146523">
        <ele>949.32000000000005</ele>
        <time>2020-01-06T14:30:40Z</time>
      </trkpt>
      <trkpt lat="46.071327505633235" lon="8.827150203287602">
        <ele>949.80999999999995</ele>
        <time>2020-01-06T14:30:52Z</time>
      </trkpt>
      <trkpt lat="46.071287104859948" lon="8.827128661796451">
        <ele>950.25999999999999</ele>
        <time>2020-01-06T14:31:04Z</time>
      </trkpt>
      <trkpt lat="46.071177385747433" lon="8.827128494158387">
        <ele>951.10000000000002</ele>
        <time>2020-01-06T14:31:17Z</time>
      </trkpt>
      <trkpt lat="46.071094069629908" lon="8.827175432816148">
        <ele>951.13</ele>
        <time>2020-01-06T14:31:28Z</time>
      </trkpt>
      <trkpt lat="46.071054507046938" lon="8.827168308198452">
        <ele>952.10000000000002</ele>
        <time>2020-01-06T14:31:42Z</time>
      </trkpt>
      <trkpt lat="46.071093147620559" lon="8.827144084498286">
        <ele>950.54999999999995</ele>
        <time>2020-01-06T14:31:53Z</time>
      </trkpt>
      <trkpt lat="46.071067163720727" lon="8.827159507200122">
        <ele>949.84000000000003</ele>
        <time>2020-01-06T14:31:57Z</time>
      </trkpt>
      <trkpt lat="46.071022907271981" lon="8.827096223831177">
        <ele>948.23000000000002</ele>
        <time>2020-01-06T14:32:07Z</time>
      </trkpt>
      <trkpt lat="46.071003125980496" lon="8.827078118920326">
        <ele>948.64999999999998</ele>
        <time>2020-01-06T14:32:27Z</time>
      </trkpt>
      <trkpt lat="46.070998767390847" lon="8.827069737017155">
        <ele>948.51999999999998</ele>
        <time>2020-01-06T14:32:49Z</time>
      </trkpt>
      <trkpt lat="46.070994324982166" lon="8.827063282951713">
        <ele>948.62</ele>
        <time>2020-01-06T14:33:21Z</time>
      </trkpt>
      <trkpt lat="46.070996923372149" lon="8.827059594914317">
        <ele>948.49000000000001</ele>
        <time>2020-01-06T14:33:51Z</time>
      </trkpt>
      <trkpt lat="46.070997845381498" lon="8.827062696218491">
        <ele>948.89999999999998</ele>
        <time>2020-01-06T14:34:11Z</time>
      </trkpt>
      <trkpt lat="46.070994660258293" lon="8.827060349285603">
        <ele>948.85000000000002</ele>
        <time>2020-01-06T14:34:33Z</time>
      </trkpt>
      <trkpt lat="46.071003712713718" lon="8.827059930190444">
        <ele>948.80999999999995</ele>
        <time>2020-01-06T14:34:50Z</time>
      </trkpt>
      <trkpt lat="46.071015950292349" lon="8.827059594914317">
        <ele>948.71000000000004</ele>
        <time>2020-01-06T14:35:09Z</time>
      </trkpt>
      <trkpt lat="46.071013770997524" lon="8.827053308486939">
        <ele>949.09000000000003</ele>
        <time>2020-01-06T14:35:26Z</time>
      </trkpt>
      <trkpt lat="46.071015866473317" lon="8.827044926583767">
        <ele>949.00999999999999</ele>
        <time>2020-01-06T14:35:49Z</time>
      </trkpt>
      <trkpt lat="46.071010921150446" lon="8.827045764774084">
        <ele>949.38</ele>
        <time>2020-01-06T14:36:10Z</time>
      </trkpt>
      <trkpt lat="46.07100086286664" lon="8.827059008181095">
        <ele>949.44000000000005</ele>
        <time>2020-01-06T14:36:44Z</time>
      </trkpt>
      <trkpt lat="46.071002874523401" lon="8.827068395912647">
        <ele>949.45000000000005</ele>
        <time>2020-01-06T14:36:58Z</time>
      </trkpt>
      <trkpt lat="46.071062134578824" lon="8.827081052586436">
        <ele>949.39999999999998</ele>
        <time>2020-01-06T14:37:07Z</time>
      </trkpt>
      <trkpt lat="46.071113767102361" lon="8.827040148898959">
        <ele>949.24000000000001</ele>
        <time>2020-01-06T14:37:14Z</time>
      </trkpt>
      <trkpt lat="46.07123589143157" lon="8.826962281018496">
        <ele>945.72000000000003</ele>
        <time>2020-01-06T14:37:28Z</time>
      </trkpt>
      <trkpt lat="46.071245027706027" lon="8.826963035389781">
        <ele>945.44000000000005</ele>
        <time>2020-01-06T14:37:29Z</time>
      </trkpt>
      <trkpt lat="46.071361787617207" lon="8.82696152664721">
        <ele>942.33000000000004</ele>
        <time>2020-01-06T14:37:41Z</time>
      </trkpt>
      <trkpt lat="46.071474775671959" lon="8.826967813074589">
        <ele>939.20000000000005</ele>
        <time>2020-01-06T14:37:53Z</time>
      </trkpt>
      <trkpt lat="46.071586003527045" lon="8.826979799196124">
        <ele>936.26999999999998</ele>
        <time>2020-01-06T14:38:05Z</time>
      </trkpt>
      <trkpt lat="46.071691028773785" lon="8.82698642089963">
        <ele>933.13</ele>
        <time>2020-01-06T14:38:17Z</time>
      </trkpt>
      <trkpt lat="46.071774261072278" lon="8.827017014846206">
        <ele>930.00999999999999</ele>
        <time>2020-01-06T14:38:27Z</time>
      </trkpt>
      <trkpt lat="46.071848860010505" lon="8.827066216617823">
        <ele>926.84000000000003</ele>
        <time>2020-01-06T14:38:36Z</time>
      </trkpt>
      <trkpt lat="46.071926560252905" lon="8.827145844697952">
        <ele>923.73000000000002</ele>
        <time>2020-01-06T14:38:49Z</time>
      </trkpt>
      <trkpt lat="46.071954807266593" lon="8.8271813839674">
        <ele>921.94000000000005</ele>
        <time>2020-01-06T14:38:54Z</time>
      </trkpt>
      <trkpt lat="46.072037788107991" lon="8.827123297378421">
        <ele>918.47000000000003</ele>
        <time>2020-01-06T14:39:08Z</time>
      </trkpt>
      <trkpt lat="46.072081793099642" lon="8.826890783384442">
        <ele>916.36000000000001</ele>
        <time>2020-01-06T14:39:22Z</time>
      </trkpt>
      <trkpt lat="46.072181118652225" lon="8.82687846198678">
        <ele>915.38</ele>
        <time>2020-01-06T14:39:34Z</time>
      </trkpt>
      <trkpt lat="46.072203498333693" lon="8.826882317662239">
        <ele>914.86000000000001</ele>
        <time>2020-01-06T14:39:37Z</time>
      </trkpt>
      <trkpt lat="46.072316151112318" lon="8.826895896345377">
        <ele>911.52999999999997</ele>
        <time>2020-01-06T14:39:52Z</time>
      </trkpt>
      <trkpt lat="46.072361832484603" lon="8.826776789501309">
        <ele>909.30999999999995</ele>
        <time>2020-01-06T14:40:04Z</time>
      </trkpt>
      <trkpt lat="46.072388989850879" lon="8.826623233035207">
        <ele>906.24000000000001</ele>
        <time>2020-01-06T14:40:17Z</time>
      </trkpt>
      <trkpt lat="46.072393516078591" lon="8.826600182801485">
        <ele>905.89999999999998</ele>
        <time>2020-01-06T14:40:19Z</time>
      </trkpt>
      <trkpt lat="46.072469372302294" lon="8.826481243595481">
        <ele>902.88999999999999</ele>
        <time>2020-01-06T14:40:33Z</time>
      </trkpt>
      <trkpt lat="46.072505917400122" lon="8.826363896951079">
        <ele>900.01999999999998</ele>
        <time>2020-01-06T14:40:46Z</time>
      </trkpt>
      <trkpt lat="46.07255126349628" lon="8.82624763995409">
        <ele>898.46000000000004</ele>
        <time>2020-01-06T14:40:56Z</time>
      </trkpt>
      <trkpt lat="46.072567105293274" lon="8.826139681041241">
        <ele>896.88</ele>
        <time>2020-01-06T14:41:05Z</time>
      </trkpt>
      <trkpt lat="46.072605913504958" lon="8.826059382408857">
        <ele>895.75</ele>
        <time>2020-01-06T14:41:12Z</time>
      </trkpt>
      <trkpt lat="46.072694342583418" lon="8.825907083228231">
        <ele>893.13999999999999</ele>
        <time>2020-01-06T14:41:27Z</time>
      </trkpt>
      <trkpt lat="46.072725858539343" lon="8.825784539803863">
        <ele>891.15999999999997</ele>
        <time>2020-01-06T14:41:39Z</time>
      </trkpt>
      <trkpt lat="46.07278729788959" lon="8.82568622007966">
        <ele>889.35000000000002</ele>
        <time>2020-01-06T14:41:51Z</time>
      </trkpt>
      <trkpt lat="46.072842283174396" lon="8.825596701353788">
        <ele>886.96000000000004</ele>
        <time>2020-01-06T14:42:02Z</time>
      </trkpt>
      <trkpt lat="46.07288796454668" lon="8.825494442135096">
        <ele>884.54999999999995</ele>
        <time>2020-01-06T14:42:15Z</time>
      </trkpt>
      <trkpt lat="46.072924342006445" lon="8.825392769649625">
        <ele>881.87</ele>
        <time>2020-01-06T14:42:27Z</time>
      </trkpt>
      <trkpt lat="46.072965329512954" lon="8.825261844322085">
        <ele>879.84000000000003</ele>
        <time>2020-01-06T14:42:39Z</time>
      </trkpt>
      <trkpt lat="46.073006987571716" lon="8.825124632567167">
        <ele>879.38</ele>
        <time>2020-01-06T14:42:50Z</time>
      </trkpt>
      <trkpt lat="46.073024086654186" lon="8.824983481317759">
        <ele>879.40999999999997</ele>
        <time>2020-01-06T14:43:01Z</time>
      </trkpt>
      <trkpt lat="46.073049902915955" lon="8.824851550161839">
        <ele>879.00999999999999</ele>
        <time>2020-01-06T14:43:16Z</time>
      </trkpt>
      <trkpt lat="46.07305996119976" lon="8.824741998687387">
        <ele>876.94000000000005</ele>
        <time>2020-01-06T14:43:29Z</time>
      </trkpt>
      <trkpt lat="46.073064152151346" lon="8.824697323143482">
        <ele>874.71000000000004</ele>
        <time>2020-01-06T14:43:41Z</time>
      </trkpt>
      <trkpt lat="46.0730389226228" lon="8.824692545458674">
        <ele>873.74000000000001</ele>
        <time>2020-01-06T14:43:45Z</time>
      </trkpt>
      <trkpt lat="46.073054680600762" lon="8.824619455263019">
        <ele>871.99000000000001</ele>
        <time>2020-01-06T14:43:56Z</time>
      </trkpt>
      <trkpt lat="46.073097428306937" lon="8.824562290683389">
        <ele>870.15999999999997</ele>
        <time>2020-01-06T14:44:07Z</time>
      </trkpt>
      <trkpt lat="46.07317621819675" lon="8.824453661218286">
        <ele>867.20000000000005</ele>
        <time>2020-01-06T14:44:22Z</time>
      </trkpt>
      <trkpt lat="46.073231538757682" lon="8.824371350929141">
        <ele>865.03999999999996</ele>
        <time>2020-01-06T14:44:33Z</time>
      </trkpt>
      <trkpt lat="46.073293816298246" lon="8.824265990406275">
        <ele>862.79999999999995</ele>
        <time>2020-01-06T14:44:45Z</time>
      </trkpt>
      <trkpt lat="46.073398003354669" lon="8.824119977653027">
        <ele>860.19000000000005</ele>
        <time>2020-01-06T14:45:02Z</time>
      </trkpt>
      <trkpt lat="46.073451898992062" lon="8.824006402865052">
        <ele>857.84000000000003</ele>
        <time>2020-01-06T14:45:14Z</time>
      </trkpt>
      <trkpt lat="46.073517361655831" lon="8.82391151972115">
        <ele>855.58000000000004</ele>
        <time>2020-01-06T14:45:27Z</time>
      </trkpt>
      <trkpt lat="46.073577795177698" lon="8.823812194168568">
        <ele>852.85000000000002</ele>
        <time>2020-01-06T14:45:40Z</time>
      </trkpt>
      <trkpt lat="46.073637139052153" lon="8.823698032647371">
        <ele>850.47000000000003</ele>
        <time>2020-01-06T14:45:53Z</time>
      </trkpt>
      <trkpt lat="46.073603527620435" lon="8.82372091524303">
        <ele>847.87</ele>
        <time>2020-01-06T14:46:05Z</time>
      </trkpt>
      <trkpt lat="46.073599420487881" lon="8.823675401508808">
        <ele>846.38999999999999</ele>
        <time>2020-01-06T14:46:15Z</time>
      </trkpt>
      <trkpt lat="46.07360084541142" lon="8.823633156716824">
        <ele>844.32000000000005</ele>
        <time>2020-01-06T14:46:27Z</time>
      </trkpt>
      <trkpt lat="46.07352364808321" lon="8.823629217222333">
        <ele>841.20000000000005</ele>
        <time>2020-01-06T14:46:41Z</time>
      </trkpt>
      <trkpt lat="46.073541920632124" lon="8.823541877791286">
        <ele>838.74000000000001</ele>
        <time>2020-01-06T14:46:52Z</time>
      </trkpt>
      <trkpt lat="46.073514008894563" lon="8.823510445654392">
        <ele>835.96000000000004</ele>
        <time>2020-01-06T14:47:04Z</time>
      </trkpt>
      <trkpt lat="46.073520379140973" lon="8.823496950790286">
        <ele>835.75</ele>
        <time>2020-01-06T14:47:05Z</time>
      </trkpt>
      <trkpt lat="46.07359791174531" lon="8.823304586112499">
        <ele>834.13</ele>
        <time>2020-01-06T14:47:18Z</time>
      </trkpt>
      <trkpt lat="46.073629427701235" lon="8.823173576965928">
        <ele>832.32000000000005</ele>
        <time>2020-01-06T14:47:28Z</time>
      </trkpt>
      <trkpt lat="46.073642252013087" lon="8.823058493435383">
        <ele>830.58000000000004</ele>
        <time>2020-01-06T14:47:38Z</time>
      </trkpt>
      <trkpt lat="46.073650298640132" lon="8.82293569855392">
        <ele>827.5</ele>
        <time>2020-01-06T14:47:49Z</time>
      </trkpt>
      <trkpt lat="46.07369028031826" lon="8.822826566174626">
        <ele>825.26999999999998</ele>
        <time>2020-01-06T14:48:00Z</time>
      </trkpt>
      <trkpt lat="46.07370343990624" lon="8.822729084640741">
        <ele>822.24000000000001</ele>
        <time>2020-01-06T14:48:12Z</time>
      </trkpt>
      <trkpt lat="46.073686005547643" lon="8.822654653340578">
        <ele>820.45000000000005</ele>
        <time>2020-01-06T14:48:22Z</time>
      </trkpt>
      <trkpt lat="46.073691956698895" lon="8.822569074109197">
        <ele>818.08000000000004</ele>
        <time>2020-01-06T14:48:32Z</time>
      </trkpt>
      <trkpt lat="46.073708971962333" lon="8.822520961984992">
        <ele>816.17999999999995</ele>
        <time>2020-01-06T14:48:44Z</time>
      </trkpt>
      <trkpt lat="46.07369271107018" lon="8.822475280612707">
        <ele>815.24000000000001</ele>
        <time>2020-01-06T14:48:53Z</time>
      </trkpt>
      <trkpt lat="46.073673684149981" lon="8.822375368326902">
        <ele>813.17999999999995</ele>
        <time>2020-01-06T14:49:03Z</time>
      </trkpt>
      <trkpt lat="46.073685586452484" lon="8.822301439940929">
        <ele>811.09000000000003</ele>
        <time>2020-01-06T14:49:15Z</time>
      </trkpt>
      <trkpt lat="46.073699416592717" lon="8.822217537090182">
        <ele>808.04999999999995</ele>
        <time>2020-01-06T14:49:29Z</time>
      </trkpt>
      <trkpt lat="46.073686508461833" lon="8.822121983394027">
        <ele>804.99000000000001</ele>
        <time>2020-01-06T14:49:41Z</time>
      </trkpt>
      <trkpt lat="46.073654741048813" lon="8.822033805772662">
        <ele>802.83000000000004</ele>
        <time>2020-01-06T14:49:53Z</time>
      </trkpt>
      <trkpt lat="46.073615262284875" lon="8.822004804387689">
        <ele>801.57000000000005</ele>
        <time>2020-01-06T14:50:04Z</time>
      </trkpt>
      <trkpt lat="46.073612915351987" lon="8.821952836588025">
        <ele>798.64999999999998</ele>
        <time>2020-01-06T14:50:17Z</time>
      </trkpt>
      <trkpt lat="46.073615178465843" lon="8.821907741948962">
        <ele>796.51999999999998</ele>
        <time>2020-01-06T14:50:28Z</time>
      </trkpt>
      <trkpt lat="46.073655243963003" lon="8.821868263185024">
        <ele>793.88</ele>
        <time>2020-01-06T14:50:39Z</time>
      </trkpt>
      <trkpt lat="46.073576621711254" lon="8.821801794692874">
        <ele>791.13999999999999</ele>
        <time>2020-01-06T14:50:53Z</time>
      </trkpt>
      <trkpt lat="46.073630517348647" lon="8.821743372827768">
        <ele>788.91999999999996</ele>
        <time>2020-01-06T14:51:05Z</time>
      </trkpt>
      <trkpt lat="46.073634289205074" lon="8.821674641221762">
        <ele>785.82000000000005</ele>
        <time>2020-01-06T14:51:20Z</time>
      </trkpt>
      <trkpt lat="46.073572598397732" lon="8.821609932929277">
        <ele>783.22000000000003</ele>
        <time>2020-01-06T14:51:35Z</time>
      </trkpt>
      <trkpt lat="46.073548458516598" lon="8.821539608761668">
        <ele>781.11000000000001</ele>
        <time>2020-01-06T14:51:48Z</time>
      </trkpt>
      <trkpt lat="46.073531778529286" lon="8.821499040350318">
        <ele>778.28999999999996</ele>
        <time>2020-01-06T14:52:00Z</time>
      </trkpt>
      <trkpt lat="46.07351484708488" lon="8.821436008438468">
        <ele>776.77999999999997</ele>
        <time>2020-01-06T14:52:12Z</time>
      </trkpt>
      <trkpt lat="46.073474446311593" lon="8.82142142392695">
        <ele>773.66999999999996</ele>
        <time>2020-01-06T14:52:26Z</time>
      </trkpt>
      <trkpt lat="46.073479894548655" lon="8.821375574916601">
        <ele>771.27999999999997</ele>
        <time>2020-01-06T14:52:37Z</time>
      </trkpt>
      <trkpt lat="46.073544099926949" lon="8.821330731734633">
        <ele>769.53999999999996</ele>
        <time>2020-01-06T14:52:48Z</time>
      </trkpt>
      <trkpt lat="46.073566982522607" lon="8.82129292935133">
        <ele>768.03999999999996</ele>
        <time>2020-01-06T14:52:58Z</time>
      </trkpt>
      <trkpt lat="46.073512332513928" lon="8.82129049859941">
        <ele>766.20000000000005</ele>
        <time>2020-01-06T14:53:08Z</time>
      </trkpt>
      <trkpt lat="46.07347721233964" lon="8.821268454194069">
        <ele>762.91999999999996</ele>
        <time>2020-01-06T14:53:21Z</time>
      </trkpt>
      <trkpt lat="46.073480481281877" lon="8.8212616648525">
        <ele>762.78999999999996</ele>
        <time>2020-01-06T14:53:22Z</time>
      </trkpt>
      <trkpt lat="46.073536807671189" lon="8.821168541908264">
        <ele>759.92999999999995</ele>
        <time>2020-01-06T14:53:35Z</time>
      </trkpt>
      <trkpt lat="46.073596319183707" lon="8.82112680003047">
        <ele>757.85000000000002</ele>
        <time>2020-01-06T14:53:46Z</time>
      </trkpt>
      <trkpt lat="46.073651472106576" lon="8.821080448105931">
        <ele>755.29999999999995</ele>
        <time>2020-01-06T14:53:57Z</time>
      </trkpt>
      <trkpt lat="46.073594391345978" lon="8.821031916886568">
        <ele>752.86000000000001</ele>
        <time>2020-01-06T14:54:09Z</time>
      </trkpt>
      <trkpt lat="46.073553236201406" lon="8.820993611589074">
        <ele>750.41999999999996</ele>
        <time>2020-01-06T14:54:22Z</time>
      </trkpt>
      <trkpt lat="46.073614843189716" lon="8.820938291028142">
        <ele>747.95000000000005</ele>
        <time>2020-01-06T14:54:35Z</time>
      </trkpt>
      <trkpt lat="46.073661530390382" lon="8.82090887054801">
        <ele>746.22000000000003</ele>
        <time>2020-01-06T14:54:46Z</time>
      </trkpt>
      <trkpt lat="46.07363261282444" lon="8.820872744545341">
        <ele>744.86000000000001</ele>
        <time>2020-01-06T14:54:54Z</time>
      </trkpt>
      <trkpt lat="46.073579639196396" lon="8.820829996839166">
        <ele>742.41999999999996</ele>
        <time>2020-01-06T14:55:05Z</time>
      </trkpt>
      <trkpt lat="46.073547620326281" lon="8.820811221376061">
        <ele>740.75999999999999</ele>
        <time>2020-01-06T14:55:15Z</time>
      </trkpt>
      <trkpt lat="46.073589278385043" lon="8.82076621055603">
        <ele>738.15999999999997</ele>
        <time>2020-01-06T14:55:28Z</time>
      </trkpt>
      <trkpt lat="46.073528174310923" lon="8.8207539729774">
        <ele>735.50999999999999</ele>
        <time>2020-01-06T14:55:41Z</time>
      </trkpt>
      <trkpt lat="46.073484756052494" lon="8.820758583024144">
        <ele>733.51999999999998</ele>
        <time>2020-01-06T14:55:51Z</time>
      </trkpt>
      <trkpt lat="46.073419796302915" lon="8.820788925513625">
        <ele>731.45000000000005</ele>
        <time>2020-01-06T14:56:04Z</time>
      </trkpt>
      <trkpt lat="46.073416611179709" lon="8.820797055959702">
        <ele>730.30999999999995</ele>
        <time>2020-01-06T14:56:15Z</time>
      </trkpt>
      <trkpt lat="46.073413593694568" lon="8.820768222212791">
        <ele>729.99000000000001</ele>
        <time>2020-01-06T14:56:29Z</time>
      </trkpt>
      <trkpt lat="46.073406636714935" lon="8.820778531953692">
        <ele>731.02999999999997</ele>
        <time>2020-01-06T14:56:43Z</time>
      </trkpt>
      <trkpt lat="46.073396746069193" lon="8.820759505033493">
        <ele>730.84000000000003</ele>
        <time>2020-01-06T14:57:00Z</time>
      </trkpt>
      <trkpt lat="46.073393560945988" lon="8.820720613002777">
        <ele>730.41999999999996</ele>
        <time>2020-01-06T14:57:10Z</time>
      </trkpt>
      <trkpt lat="46.073434548452497" lon="8.820655317977071">
        <ele>728.01999999999998</ele>
        <time>2020-01-06T14:57:21Z</time>
      </trkpt>
      <trkpt lat="46.073482492938638" lon="8.82062204182148">
        <ele>726.32000000000005</ele>
        <time>2020-01-06T14:57:33Z</time>
      </trkpt>
      <trkpt lat="46.073527671396732" lon="8.820583820343018">
        <ele>724.67999999999995</ele>
        <time>2020-01-06T14:57:45Z</time>
      </trkpt>
      <trkpt lat="46.073597492650151" lon="8.820516765117645">
        <ele>721.98000000000002</ele>
        <time>2020-01-06T14:57:57Z</time>
      </trkpt>
      <trkpt lat="46.073625739663839" lon="8.820485584437847">
        <ele>721.01999999999998</ele>
        <time>2020-01-06T14:58:02Z</time>
      </trkpt>
      <trkpt lat="46.073676701635122" lon="8.820389611646533">
        <ele>718.62</ele>
        <time>2020-01-06T14:58:12Z</time>
      </trkpt>
      <trkpt lat="46.073698662221432" lon="8.820339404046536">
        <ele>717.38</ele>
        <time>2020-01-06T14:58:17Z</time>
      </trkpt>
      <trkpt lat="46.073761275038123" lon="8.820289866998792">
        <ele>715.63999999999999</ele>
        <time>2020-01-06T14:58:26Z</time>
      </trkpt>
      <trkpt lat="46.073833191767335" lon="8.820257680490613">
        <ele>713.03999999999996</ele>
        <time>2020-01-06T14:58:36Z</time>
      </trkpt>
      <trkpt lat="46.073873927816749" lon="8.820269666612148">
        <ele>712.64999999999998</ele>
        <time>2020-01-06T14:58:45Z</time>
      </trkpt>
      <trkpt lat="46.073904689401388" lon="8.820324819535017">
        <ele>712.32000000000005</ele>
        <time>2020-01-06T14:58:58Z</time>
      </trkpt>
      <trkpt lat="46.073927823454142" lon="8.820351138710976">
        <ele>712.5</ele>
        <time>2020-01-06T14:59:27Z</time>
      </trkpt>
      <trkpt lat="46.073896810412407" lon="8.820268493145704">
        <ele>713.05999999999995</ele>
        <time>2020-01-06T14:59:42Z</time>
      </trkpt>
      <trkpt lat="46.07387107796967" lon="8.820208897814155">
        <ele>712.12</ele>
        <time>2020-01-06T14:59:53Z</time>
      </trkpt>
      <trkpt lat="46.073860516771674" lon="8.820204874500632">
        <ele>711.84000000000003</ele>
        <time>2020-01-06T15:00:14Z</time>
      </trkpt>
      <trkpt lat="46.0738539788872" lon="8.820194061845541">
        <ele>711.98000000000002</ele>
        <time>2020-01-06T15:00:38Z</time>
      </trkpt>
      <trkpt lat="46.073848530650139" lon="8.820192972198129">
        <ele>711.77999999999997</ele>
        <time>2020-01-06T15:00:58Z</time>
      </trkpt>
      <trkpt lat="46.073843250051141" lon="8.820184590294957">
        <ele>711.74000000000001</ele>
        <time>2020-01-06T15:01:19Z</time>
      </trkpt>
      <trkpt lat="46.073834029957652" lon="8.820171682164073">
        <ele>711.90999999999997</ele>
        <time>2020-01-06T15:01:33Z</time>
      </trkpt>
      <trkpt lat="46.07384224422276" lon="8.820172855630517">
        <ele>712.22000000000003</ele>
        <time>2020-01-06T15:01:50Z</time>
      </trkpt>
      <trkpt lat="46.073848782107234" lon="8.820173693820834">
        <ele>712.20000000000005</ele>
        <time>2020-01-06T15:02:15Z</time>
      </trkpt>
      <trkpt lat="46.073846267536283" lon="8.82017302326858">
        <ele>712</ele>
        <time>2020-01-06T15:02:38Z</time>
      </trkpt>
      <trkpt lat="46.073840316385031" lon="8.82016908377409">
        <ele>712.16999999999996</ele>
        <time>2020-01-06T15:02:59Z</time>
      </trkpt>
      <trkpt lat="46.07383931055665" lon="8.820165311917663">
        <ele>712.59000000000003</ele>
        <time>2020-01-06T15:03:15Z</time>
      </trkpt>
      <trkpt lat="46.073840567842126" lon="8.820170424878597">
        <ele>712.59000000000003</ele>
        <time>2020-01-06T15:03:34Z</time>
      </trkpt>
      <trkpt lat="46.073841908946633" lon="8.820175873115659">
        <ele>712.38</ele>
        <time>2020-01-06T15:03:54Z</time>
      </trkpt>
      <trkpt lat="46.073847692459822" lon="8.820177046582103">
        <ele>712.39999999999998</ele>
        <time>2020-01-06T15:04:16Z</time>
      </trkpt>
      <trkpt lat="46.07385003939271" lon="8.820171179249883">
        <ele>712.42999999999995</ele>
        <time>2020-01-06T15:04:29Z</time>
      </trkpt>
      <trkpt lat="46.073848865926266" lon="8.820167323574424">
        <ele>712.5</ele>
        <time>2020-01-06T15:04:43Z</time>
      </trkpt>
      <trkpt lat="46.073853392153978" lon="8.820166233927012">
        <ele>712.39999999999998</ele>
        <time>2020-01-06T15:05:00Z</time>
      </trkpt>
      <trkpt lat="46.073856828734279" lon="8.820156510919333">
        <ele>712.23000000000002</ele>
        <time>2020-01-06T15:05:19Z</time>
      </trkpt>
      <trkpt lat="46.073842998594046" lon="8.820163467898965">
        <ele>712.34000000000003</ele>
        <time>2020-01-06T15:05:46Z</time>
      </trkpt>
      <trkpt lat="46.073845680803061" lon="8.82017151452601">
        <ele>712.30999999999995</ele>
        <time>2020-01-06T15:06:04Z</time>
      </trkpt>
      <trkpt lat="46.073843166232109" lon="8.820177465677261">
        <ele>712.22000000000003</ele>
        <time>2020-01-06T15:06:18Z</time>
      </trkpt>
      <trkpt lat="46.073854649439454" lon="8.82018718868494">
        <ele>712.46000000000004</ele>
        <time>2020-01-06T15:06:44Z</time>
      </trkpt>
      <trkpt lat="46.073857583105564" lon="8.82018618285656">
        <ele>712.49000000000001</ele>
        <time>2020-01-06T15:07:11Z</time>
      </trkpt>
      <trkpt lat="46.073859930038452" lon="8.820188362151384">
        <ele>712.70000000000005</ele>
        <time>2020-01-06T15:07:35Z</time>
      </trkpt>
      <trkpt lat="46.073853140696883" lon="8.820187943056226">
        <ele>712.63</ele>
        <time>2020-01-06T15:07:55Z</time>
      </trkpt>
      <trkpt lat="46.073847524821758" lon="8.820187607780099">
        <ele>713.03999999999996</ele>
        <time>2020-01-06T15:08:17Z</time>
      </trkpt>
      <trkpt lat="46.073845680803061" lon="8.820191966369748">
        <ele>712.92999999999995</ele>
        <time>2020-01-06T15:08:35Z</time>
      </trkpt>
      <trkpt lat="46.073843836784363" lon="8.820202359929681">
        <ele>713.11000000000001</ele>
        <time>2020-01-06T15:09:00Z</time>
      </trkpt>
      <trkpt lat="46.073841825127602" lon="8.82019741460681">
        <ele>713.19000000000005</ele>
        <time>2020-01-06T15:09:26Z</time>
      </trkpt>
      <trkpt lat="46.073834532871842" lon="8.820191798731685">
        <ele>713</ele>
        <time>2020-01-06T15:09:40Z</time>
      </trkpt>
      <trkpt lat="46.07383294031024" lon="8.820159696042538">
        <ele>712.69000000000005</ele>
        <time>2020-01-06T15:09:44Z</time>
      </trkpt>
      <trkpt lat="46.073821038007736" lon="8.820098927244544">
        <ele>712.39999999999998</ele>
        <time>2020-01-06T15:09:56Z</time>
      </trkpt>
      <trkpt lat="46.073820618912578" lon="8.82008308544755">
        <ele>712.63999999999999</ele>
        <time>2020-01-06T15:10:17Z</time>
      </trkpt>
      <trkpt lat="46.073828749358654" lon="8.820084761828184">
        <ele>712.42999999999995</ele>
        <time>2020-01-06T15:10:33Z</time>
      </trkpt>
      <trkpt lat="46.073872586712241" lon="8.820107728242874">
        <ele>711.76999999999998</ele>
        <time>2020-01-06T15:10:45Z</time>
      </trkpt>
      <trkpt lat="46.073888260871172" lon="8.820035560056567">
        <ele>709.69000000000005</ele>
        <time>2020-01-06T15:10:56Z</time>
      </trkpt>
      <trkpt lat="46.0738764423877" lon="8.820008486509323">
        <ele>708.04999999999995</ele>
        <time>2020-01-06T15:11:08Z</time>
      </trkpt>
      <trkpt lat="46.073876190930605" lon="8.820012677460909">
        <ele>707.83000000000004</ele>
        <time>2020-01-06T15:11:21Z</time>
      </trkpt>
      <trkpt lat="46.073880046606064" lon="8.820015275850892">
        <ele>707.91999999999996</ele>
        <time>2020-01-06T15:11:33Z</time>
      </trkpt>
      <trkpt lat="46.07388281263411" lon="8.820011671632528">
        <ele>707.90999999999997</ele>
        <time>2020-01-06T15:11:43Z</time>
      </trkpt>
      <trkpt lat="46.07388474047184" lon="8.820004966109991">
        <ele>708.03999999999996</ele>
        <time>2020-01-06T15:11:57Z</time>
      </trkpt>
      <trkpt lat="46.073879627510905" lon="8.820010665804148">
        <ele>708.13</ele>
        <time>2020-01-06T15:12:12Z</time>
      </trkpt>
      <trkpt lat="46.073872083798051" lon="8.820021897554398">
        <ele>708.09000000000003</ele>
        <time>2020-01-06T15:12:26Z</time>
      </trkpt>
      <trkpt lat="46.073871245607734" lon="8.820020640268922">
        <ele>707.99000000000001</ele>
        <time>2020-01-06T15:12:46Z</time>
      </trkpt>
      <trkpt lat="46.073855319991708" lon="8.819993901997805">
        <ele>707.25999999999999</ele>
        <time>2020-01-06T15:12:58Z</time>
      </trkpt>
      <trkpt lat="46.073804358020425" lon="8.819987699389458">
        <ele>704.21000000000004</ele>
        <time>2020-01-06T15:13:12Z</time>
      </trkpt>
      <trkpt lat="46.073840484023094" lon="8.819883512333036">
        <ele>702.47000000000003</ele>
        <time>2020-01-06T15:13:23Z</time>
      </trkpt>
      <trkpt lat="46.07388423755765" lon="8.819801956415176">
        <ele>700.5</ele>
        <time>2020-01-06T15:13:36Z</time>
      </trkpt>
      <trkpt lat="46.073828246444464" lon="8.819802459329367">
        <ele>697.99000000000001</ele>
        <time>2020-01-06T15:13:47Z</time>
      </trkpt>
      <trkpt lat="46.073754569515586" lon="8.819876136258245">
        <ele>694.84000000000003</ele>
        <time>2020-01-06T15:14:01Z</time>
      </trkpt>
      <trkpt lat="46.073687430471182" lon="8.819946628063917">
        <ele>692.01999999999998</ele>
        <time>2020-01-06T15:14:13Z</time>
      </trkpt>
      <trkpt lat="46.073608472943306" lon="8.820010162889957">
        <ele>688.91999999999996</ele>
        <time>2020-01-06T15:14:26Z</time>
      </trkpt>
      <trkpt lat="46.073546363040805" lon="8.820018880069256">
        <ele>686.08000000000004</ele>
        <time>2020-01-06T15:14:39Z</time>
      </trkpt>
      <trkpt lat="46.073556924238801" lon="8.819937743246555">
        <ele>684.13</ele>
        <time>2020-01-06T15:14:46Z</time>
      </trkpt>
      <trkpt lat="46.073573101311922" lon="8.81978309713304">
        <ele>680.88</ele>
        <time>2020-01-06T15:14:58Z</time>
      </trkpt>
      <trkpt lat="46.073515936732292" lon="8.81976549513638">
        <ele>677.88</ele>
        <time>2020-01-06T15:15:10Z</time>
      </trkpt>
      <trkpt lat="46.073474697768688" lon="8.819770524278283">
        <ele>674.51999999999998</ele>
        <time>2020-01-06T15:15:20Z</time>
      </trkpt>
      <trkpt lat="46.073412001132965" lon="8.81980455480516">
        <ele>671.90999999999997</ele>
        <time>2020-01-06T15:15:34Z</time>
      </trkpt>
      <trkpt lat="46.073410660028458" lon="8.819744875654578">
        <ele>670.75</ele>
        <time>2020-01-06T15:15:48Z</time>
      </trkpt>
      <trkpt lat="46.07343178242445" lon="8.819612693041563">
        <ele>668.47000000000003</ele>
        <time>2020-01-06T15:15:59Z</time>
      </trkpt>
      <trkpt lat="46.073488276451826" lon="8.8195607252419">
        <ele>665.59000000000003</ele>
        <time>2020-01-06T15:16:10Z</time>
      </trkpt>
      <trkpt lat="46.073504704982042" lon="8.819518312811852">
        <ele>662.87</ele>
        <time>2020-01-06T15:16:23Z</time>
      </trkpt>
      <trkpt lat="46.073463885113597" lon="8.819519737735391">
        <ele>659.65999999999997</ele>
        <time>2020-01-06T15:16:31Z</time>
      </trkpt>
      <trkpt lat="46.073392974212766" lon="8.819529293105006">
        <ele>656.60000000000002</ele>
        <time>2020-01-06T15:16:42Z</time>
      </trkpt>
      <trkpt lat="46.073447205126286" lon="8.819451006129384">
        <ele>653.44000000000005</ele>
        <time>2020-01-06T15:16:54Z</time>
      </trkpt>
      <trkpt lat="46.073511661961675" lon="8.819380262866616">
        <ele>650.37</ele>
        <time>2020-01-06T15:17:07Z</time>
      </trkpt>
      <trkpt lat="46.073594139888883" lon="8.819289319217205">
        <ele>647.22000000000003</ele>
        <time>2020-01-06T15:17:22Z</time>
      </trkpt>
      <trkpt lat="46.073620542883873" lon="8.819226706400514">
        <ele>644.10000000000002</ele>
        <time>2020-01-06T15:17:36Z</time>
      </trkpt>
      <trkpt lat="46.073624566197395" lon="8.819180019199848">
        <ele>641.03999999999996</ele>
        <time>2020-01-06T15:17:48Z</time>
      </trkpt>
      <trkpt lat="46.073594475165009" lon="8.819163674488664">
        <ele>638.26999999999998</ele>
        <time>2020-01-06T15:18:00Z</time>
      </trkpt>
      <trkpt lat="46.073624482378364" lon="8.819110952317715">
        <ele>635.59000000000003</ele>
        <time>2020-01-06T15:18:12Z</time>
      </trkpt>
      <trkpt lat="46.073582489043474" lon="8.819083040580154">
        <ele>633.64999999999998</ele>
        <time>2020-01-06T15:18:22Z</time>
      </trkpt>
      <trkpt lat="46.073519624769688" lon="8.819127045571804">
        <ele>630.42999999999995</ele>
        <time>2020-01-06T15:18:35Z</time>
      </trkpt>
      <trkpt lat="46.073554996401072" lon="8.819027049466968">
        <ele>627.22000000000003</ele>
        <time>2020-01-06T15:18:48Z</time>
      </trkpt>
      <trkpt lat="46.073625655844808" lon="8.818980948999524">
        <ele>624.97000000000003</ele>
        <time>2020-01-06T15:18:59Z</time>
      </trkpt>
      <trkpt lat="46.073638731613755" lon="8.818925712257624">
        <ele>621.89999999999998</ele>
        <time>2020-01-06T15:19:12Z</time>
      </trkpt>
      <trkpt lat="46.073644682765007" lon="8.818909451365471">
        <ele>619.52999999999997</ele>
        <time>2020-01-06T15:19:23Z</time>
      </trkpt>
      <trkpt lat="46.073699751868844" lon="8.818818926811218">
        <ele>616.40999999999997</ele>
        <time>2020-01-06T15:19:36Z</time>
      </trkpt>
      <trkpt lat="46.073704529553652" lon="8.818726139143109">
        <ele>613.21000000000004</ele>
        <time>2020-01-06T15:19:45Z</time>
      </trkpt>
      <trkpt lat="46.073696902021766" lon="8.818633183836937">
        <ele>610.11000000000001</ele>
        <time>2020-01-06T15:19:56Z</time>
      </trkpt>
      <trkpt lat="46.073673516511917" lon="8.818474933505058">
        <ele>608.00999999999999</ele>
        <time>2020-01-06T15:20:09Z</time>
      </trkpt>
      <trkpt lat="46.073678378015757" lon="8.818304361775518">
        <ele>606.28999999999996</ele>
        <time>2020-01-06T15:20:22Z</time>
      </trkpt>
      <trkpt lat="46.073737805709243" lon="8.818161282688379">
        <ele>604.62</ele>
        <time>2020-01-06T15:20:35Z</time>
      </trkpt>
      <trkpt lat="46.073783067986369" lon="8.818089868873358">
        <ele>602.52999999999997</ele>
        <time>2020-01-06T15:20:47Z</time>
      </trkpt>
      <trkpt lat="46.07374208047986" lon="8.818053407594562">
        <ele>600.52999999999997</ele>
        <time>2020-01-06T15:20:57Z</time>
      </trkpt>
      <trkpt lat="46.073780301958323" lon="8.818007474765182">
        <ele>597.75999999999999</ele>
        <time>2020-01-06T15:21:08Z</time>
      </trkpt>
      <trkpt lat="46.07371081598103" lon="8.818040164187551">
        <ele>595.28999999999996</ele>
        <time>2020-01-06T15:21:20Z</time>
      </trkpt>
      <trkpt lat="46.073658345267177" lon="8.818137478083372">
        <ele>591.88999999999999</ele>
        <time>2020-01-06T15:21:32Z</time>
      </trkpt>
      <trkpt lat="46.073630014434457" lon="8.818127671256661">
        <ele>590.75</ele>
        <time>2020-01-06T15:21:42Z</time>
      </trkpt>
      <trkpt lat="46.073664631694555" lon="8.817987274378538">
        <ele>588.07000000000005</ele>
        <time>2020-01-06T15:21:56Z</time>
      </trkpt>
      <trkpt lat="46.073686927556992" lon="8.817868167534471">
        <ele>584.79999999999995</ele>
        <time>2020-01-06T15:22:09Z</time>
      </trkpt>
      <trkpt lat="46.073737554252148" lon="8.81781192496419">
        <ele>582.52999999999997</ele>
        <time>2020-01-06T15:22:21Z</time>
      </trkpt>
      <trkpt lat="46.073733698576689" lon="8.817703379318118">
        <ele>580.20000000000005</ele>
        <time>2020-01-06T15:22:33Z</time>
      </trkpt>
      <trkpt lat="46.073772674426436" lon="8.817593576386571">
        <ele>578.69000000000005</ele>
        <time>2020-01-06T15:22:45Z</time>
      </trkpt>
      <trkpt lat="46.073732357472181" lon="8.817554768174887">
        <ele>576.55999999999995</ele>
        <time>2020-01-06T15:22:56Z</time>
      </trkpt>
      <trkpt lat="46.073727244511247" lon="8.817442283034325">
        <ele>573.44000000000005</ele>
        <time>2020-01-06T15:23:08Z</time>
      </trkpt>
      <trkpt lat="46.073705786839128" lon="8.817368606105447">
        <ele>570.79999999999995</ele>
        <time>2020-01-06T15:23:20Z</time>
      </trkpt>
      <trkpt lat="46.073748031631112" lon="8.817340778186917">
        <ele>568.86000000000001</ele>
        <time>2020-01-06T15:23:30Z</time>
      </trkpt>
      <trkpt lat="46.073718192055821" lon="8.817270873114467">
        <ele>566.38999999999999</ele>
        <time>2020-01-06T15:23:44Z</time>
      </trkpt>
      <trkpt lat="46.07379237189889" lon="8.817322505638003">
        <ele>564.12</ele>
        <time>2020-01-06T15:23:56Z</time>
      </trkpt>
      <trkpt lat="46.073778793215752" lon="8.817229382693768">
        <ele>561.50999999999999</ele>
        <time>2020-01-06T15:24:07Z</time>
      </trkpt>
      <trkpt lat="46.07375088147819" lon="8.817132823169231">
        <ele>558.37</ele>
        <time>2020-01-06T15:24:20Z</time>
      </trkpt>
      <trkpt lat="46.073699248954654" lon="8.817053698003292">
        <ele>555.25</ele>
        <time>2020-01-06T15:24:32Z</time>
      </trkpt>
      <trkpt lat="46.073678964748979" lon="8.816922353580594">
        <ele>552.16999999999996</ele>
        <time>2020-01-06T15:24:44Z</time>
      </trkpt>
      <trkpt lat="46.073722634464502" lon="8.816924449056387">
        <ele>549.47000000000003</ele>
        <time>2020-01-06T15:24:55Z</time>
      </trkpt>
      <trkpt lat="46.073776194825768" lon="8.816939955577254">
        <ele>547.90999999999997</ele>
        <time>2020-01-06T15:25:07Z</time>
      </trkpt>
      <trkpt lat="46.073842998594046" lon="8.816978512331843">
        <ele>545.25</ele>
        <time>2020-01-06T15:25:18Z</time>
      </trkpt>
      <trkpt lat="46.073916926980019" lon="8.817080184817314">
        <ele>543.17999999999995</ele>
        <time>2020-01-06T15:25:31Z</time>
      </trkpt>
      <trkpt lat="46.0739213693887" lon="8.817057302221656">
        <ele>542.77999999999997</ele>
        <time>2020-01-06T15:25:34Z</time>
      </trkpt>
      <trkpt lat="46.073877532035112" lon="8.816973650828004">
        <ele>542.51999999999998</ele>
        <time>2020-01-06T15:25:47Z</time>
      </trkpt>
      <trkpt lat="46.073877699673176" lon="8.816966274753213">
        <ele>542.52999999999997</ele>
        <time>2020-01-06T15:25:51Z</time>
      </trkpt>
      <trkpt lat="46.073875017464161" lon="8.816904835402966">
        <ele>542.34000000000003</ele>
        <time>2020-01-06T15:25:55Z</time>
      </trkpt>
      <trkpt lat="46.073833275586367" lon="8.816699981689453">
        <ele>543.25999999999999</ele>
        <time>2020-01-06T15:26:08Z</time>
      </trkpt>
      <trkpt lat="46.073802597820759" lon="8.816605936735869">
        <ele>543.23000000000002</ele>
        <time>2020-01-06T15:26:15Z</time>
      </trkpt>
      <trkpt lat="46.073787258937955" lon="8.816581461578608">
        <ele>541.23000000000002</ele>
        <time>2020-01-06T15:26:17Z</time>
      </trkpt>
      <trkpt lat="46.073726490139961" lon="8.816494541242719">
        <ele>539.35000000000002</ele>
        <time>2020-01-06T15:26:25Z</time>
      </trkpt>
    </trkseg>
  </trk>

</gpx>